[[{"header":{"parameterUnit":"m.s-1","parameterCategory":1,"la1":31.0,"la2":29.5877,"lo1":-88.7671,"lo2":-86.6584,"dy":0.0162,"dx":0.0185,"nx":115,"ny":88,"refTime":"2024-08-18T12:00:00:Z","depth":0,"parameterNumber":2,"parameterNumberName":"U-component_of_WINDS"},"data":[0.0,0.0,0.0,0.0,0.0,0.0,0.0,0.0,0.0,0.0,0.0,0.0,0.0,0.0,0.0,0.0,0.0,0.0,0.0,0.0,0.0,0.0,0.0,0.0,0.0,0.0,0.0,0.0,0.0,0.0,0.0,0.0,0.0,0.0,0.0,0.0,0.0,0.0,0.0,0.0,0.0,0.0,0.0,0.0,0.0,0.0,0.0,0.0,0.0,0.0,0.0,0.0,0.0,0.0,0.0,0.0,0.0,0.0,0.0,0.0,0.0,0.0,0.0,0.0,0.0,0.0,0.0,0.0,0.0,0.0,0.0,0.0,0.0,0.0,0.0,0.0,0.0,0.0,0.0,0.0,0.0,0.0,0.0,0.0,0.0,0.0,0.0,0.0,0.0,0.0,0.0,0.0,0.0,0.0,0.0,0.0,0.0,0.0,0.0,0.0,0.0,0.0,0.0,0.0,0.0,0.0,0.0,0.0,0.0,0.0,0.0,0.0,0.0,0.0,0.0,0.0,0.0,0.0,0.0,0.0,0.0,0.0,0.0,0.0,0.0,0.0,0.0,0.0,0.0,0.0,0.0,0.0,0.0,0.0,0.0,0.0,0.0,0.0,0.0,0.0,0.0,0.0,0.0,0.0,0.0,0.0,0.0,0.0,0.0,0.0,0.0,0.0,0.0,0.0,0.0,0.0,0.0,0.0,0.0,0.0,0.0,0.0,0.0,0.0,0.0,0.0,0.0,0.0,0.0,0.0,0.0,0.0,0.0,0.0,0.0,0.0,0.0,0.0,0.0,0.0,0.0,0.0,0.0,0.0,0.0,0.0,0.0,0.0,0.0,0.0,0.0,0.0,0.0,0.0,0.0,0.0,0.0,0.0,0.0,0.0,0.0,0.0,0.0,0.0,0.0,0.0,0.0,0.0,0.0,0.0,0.0,0.0,0.0,0.0,0.0,0.0,0.0,0.0,0.0,0.0,0.0,0.0,0.0,0.0,0.0,0.0,0.0,0.0,0.0,0.0,0.0,0.0,0.0,0.0,0.0,0.0,0.0,0.0,0.0,0.0,0.0,0.0,0.0,0.0,0.0,0.0,0.0,0.0,0.0,0.0,0.0,0.0,0.0,0.0,0.0,0.0,0.0,0.0,0.0,0.0,0.0,0.0,0.0,0.0,0.0,0.0,0.0,0.0,0.0,0.0,0.0,0.0,0.0,0.0,0.0,0.0,0.0,0.0,0.0,0.0,0.0,0.0,0.0,0.0,0.0,0.0,0.0,0.0,0.0,0.0,0.0,0.0,0.0,0.0,0.0,0.0,0.0,0.0,0.0,0.0,0.0,0.0,0.0,0.0,0.0,0.0,0.0,0.0,0.0,0.0,0.0,0.0,0.0,0.0,0.0,0.0,0.0,0.0,0.0,0.0,0.0,0.0,0.0,0.0,0.0,0.0,0.0,0.0,0.0,0.0,0.0,0.0,0.0,0.0,0.0,0.0,0.0,0.0,0.0,0.0,0.0,0.0,0.0,0.0,0.0,0.0,0.0,0.0,0.0,0.0,0.0,0.0,0.0,0.0,0.0,0.0,0.0,0.0,0.0,0.0,0.0,0.0,0.0,0.0,0.0,0.0,0.0,0.0,0.0,0.0,0.0,0.0,0.0,0.0,0.0,0.0,0.0,0.0,0.0,0.0,0.0,0.0,0.0,0.0,0.0,0.0,0.0,0.0,0.0,0.0,0.0,0.0,0.0,0.0,0.0,0.0,0.0,0.0,0.0,0.0,0.0,0.0,0.0,0.0,0.0,0.0,0.0,0.0,0.0,0.0,0.0,0.0,0.0,0.0,0.0,0.0,0.0,0.0,0.0,0.0,0.0,0.0,0.0,0.0,0.0,0.0,0.0,0.0,0.0,0.0,0.0,0.0,0.0,0.0,0.0,0.0,0.0,0.0,0.0,0.0,0.0,0.0,0.0,0.0,0.0,0.0,0.0,0.0,0.0,0.0,0.0,0.0,0.0,0.0,0.0,0.0,0.0,0.0,0.0,0.0,0.0,0.0,0.0,0.0,0.0,0.0,0.0,0.0,0.0,0.0,0.0,0.0,0.0,0.0,0.0,0.0,0.0,0.0,0.0,0.0,0.0,0.0,0.0,0.0,0.0,0.0,0.0,0.0,0.0,0.0,0.0,0.0,0.0,0.0,0.0,0.0,0.0,0.0,0.0,0.0,0.0,0.0,0.0,0.0,0.0,0.0,0.0,0.0,0.0,0.0,0.0,0.0,0.0,0.0,0.0,0.0,0.0,0.0,0.0,0.0,0.0,0.0,0.0,0.0,0.0,0.0,0.0,0.0,0.0,0.0,0.0,0.0,0.0,0.0,0.0,0.0,0.0,0.0,0.0,0.0,0.0,0.0,0.0,0.0,0.0,0.0,0.0,0.0,0.0,0.0,0.0,0.0,0.0,0.0,0.0,0.0,0.0,0.0,0.0,0.0,0.0,0.0,0.0,0.0,0.0,0.0,0.0,0.0,0.0,0.0,0.0,0.0,0.0,0.0,0.0,0.0,0.0,0.0,0.0,0.0,0.0,0.0,0.0,0.0,0.0,0.0,0.0,0.0,0.0,0.0,0.0,0.0,0.0,0.0,0.0,0.0,0.0,0.0,0.0,0.0,0.0,0.0,0.0,0.0,0.0,0.0,0.0,0.0,0.0,0.0,0.0,0.0,0.0,0.0,0.0,0.0,0.0,0.0,0.0,0.0,0.0,0.0,0.0,0.0,0.0,0.0,0.0,0.0,0.0,0.0,0.0,0.0,0.0,0.0,0.0,0.0,0.0,0.0,0.0,0.0,0.0,0.0,0.0,0.0,0.0,0.0,0.0,0.0,0.0,0.0,0.0,0.0,0.0,0.0,0.0,0.0,0.0,0.0,0.0,0.0,0.0,0.0,0.0,0.0,0.0,0.0,0.0,0.0,0.0,0.0,0.0,0.0,0.0,0.0,0.0,0.0,0.0,0.0,0.0,0.0,0.0,0.0,0.0,0.0,0.0,0.0,0.0,0.0,0.0,0.0,0.0,0.0,0.0,0.0,0.0,0.0,0.0,0.0,0.0,0.0,0.0,0.0,0.0,0.0,0.0,0.0,0.0,0.0,0.0,0.0,0.0,0.0,0.0,0.0,0.0,0.0,0.0,0.0,0.0,0.0,0.0,0.0,0.0,0.0,0.0,0.0,0.0,0.0,0.0,0.0,0.0,0.0,0.0,0.0,0.0,0.0,0.0,0.0,0.0,0.0,0.0,0.0,0.0,0.0,0.0,0.0,0.0,0.0,0.0,0.0,0.0,0.0,0.0,0.0,0.0,0.0,0.0,0.0,0.0,0.0,0.0,0.0,0.0,0.0,0.0,0.0,0.0,0.0,0.0,0.0,0.0,0.0,0.0,0.0,0.0,0.0,0.0,0.0,0.0,0.0,0.0,0.0,0.0,0.0,0.0,0.0,0.0,0.0,0.0,0.0,0.0,0.0,0.0,0.0,0.0,0.0,0.0,0.0,0.0,0.0,0.0,0.0,0.0,0.0,0.0,0.0,0.0,0.0,0.0,0.0,0.0,0.0,0.0,0.0,0.0,0.0,0.0,0.0,0.0,0.0,0.0,0.0,0.0,0.0,0.0,0.0,0.0,0.0,0.0,0.0,0.0,0.0,0.0,0.0,0.0,0.0,0.0,0.0,0.0,0.0,0.0,0.0,0.0,0.0,0.0,0.0,0.0,0.0,0.0,0.0,0.0,0.0,0.0,0.0,0.0,0.0,0.0,0.0,0.0,0.0,0.0,0.0,0.0,0.0,0.0,0.0,0.0,0.0,0.0,0.0,0.0,0.0,0.0,0.0,0.0,0.0,0.0,0.0,0.0,0.0,0.0,0.0,0.0,0.0,0.0,0.0,0.0,0.0,0.0,0.0,0.0,0.0,0.0,0.0,0.0,0.0,0.0,0.0,0.0,0.0,0.0,0.0,0.0,0.0,0.0,0.0,0.0,0.0,0.0,0.0,0.0,0.0,0.0,0.0,0.0,0.0,0.0,0.0,0.0,0.0,0.0,0.0,0.0,0.0,0.0,0.0,0.0,0.0,0.0,0.0,0.0,0.0,0.0,0.0,0.0,0.0,0.0,0.0,0.0,0.0,0.0,0.0,0.0,0.0,0.0,0.0,0.0,0.0,0.0,0.0,0.0,0.0,0.0,0.0,0.0,0.0,0.0,0.0,0.0,0.0,0.0,0.0,0.0,0.0,0.0,0.0,2.287,0.0,0.0,0.0,0.0,0.0,0.0,0.0,0.0,0.0,0.0,0.0,0.0,0.0,0.0,0.0,0.0,0.0,0.0,0.0,0.0,0.0,0.0,0.0,0.0,0.0,0.0,0.0,0.0,0.0,0.0,0.0,0.0,0.0,0.0,0.0,0.0,0.0,0.0,0.0,0.0,0.0,0.0,0.0,0.0,0.0,0.0,0.0,0.0,0.0,0.0,0.0,0.0,0.0,0.0,0.0,0.0,0.0,0.0,0.0,0.0,0.0,0.0,0.0,0.0,0.0,0.0,0.0,0.0,0.0,0.0,0.0,0.0,0.0,0.0,0.0,0.0,0.0,0.0,0.0,0.0,0.0,0.0,0.0,0.0,0.0,0.0,0.0,0.0,0.0,0.0,0.0,0.0,0.0,0.0,0.0,0.0,0.0,0.0,0.0,0.0,0.0,0.0,0.0,0.0,0.0,0.0,0.0,0.0,0.0,0.0,2.5303,2.5293,2.4861,2.4062,2.2841,0.0,0.0,0.0,0.0,0.0,0.0,0.0,0.0,0.0,0.0,0.0,0.0,0.0,0.0,0.0,0.0,0.0,0.0,0.0,0.0,0.0,0.0,0.0,0.0,0.0,0.0,0.0,0.0,0.0,0.0,0.0,0.0,0.0,0.0,0.0,0.0,0.0,0.0,0.0,0.0,0.0,0.0,0.0,0.0,0.0,0.0,0.0,0.0,0.0,0.0,0.0,0.0,0.0,0.0,0.0,0.0,0.0,0.0,0.0,0.0,0.0,0.0,0.0,0.0,0.0,0.0,0.0,0.0,0.0,0.0,0.0,0.0,0.0,0.0,0.0,0.0,0.0,0.0,0.0,0.0,0.0,0.0,0.0,0.0,0.0,0.0,0.0,0.0,0.0,0.0,0.0,0.0,0.0,0.0,0.0,0.0,0.0,0.0,0.0,0.0,0.0,0.0,0.0,0.0,0.0,0.0,0.0,0.0,0.0,0.0,0.0,0.0,2.5284,2.4466,2.338,0.0,0.0,0.0,0.0,0.0,0.0,0.0,0.0,0.0,0.0,0.0,0.0,0.0,0.0,0.0,0.0,0.0,0.0,0.0,0.0,0.0,0.0,0.0,0.0,0.0,0.0,0.0,0.0,0.0,0.0,0.0,0.0,0.0,0.0,0.0,0.0,0.0,0.0,0.0,0.0,0.0,0.0,0.0,0.0,0.0,0.0,0.0,0.0,0.0,0.0,0.0,0.0,0.0,0.0,0.0,0.0,0.0,0.0,0.0,0.0,0.0,0.0,0.0,0.0,0.0,0.0,0.0,0.0,0.0,0.0,0.0,0.0,0.0,0.0,0.0,0.0,0.0,0.0,0.0,0.0,0.0,0.0,0.0,0.0,0.0,0.0,0.0,0.0,0.0,0.0,0.0,0.0,0.0,0.0,0.0,0.0,0.0,0.0,0.0,0.0,0.0,0.0,0.0,0.0,0.0,0.0,0.0,0.0,0.0,0.0,2.5303,2.7582,2.7563,0.0,2.512,0.0,0.0,0.0,0.0,0.0,0.0,0.0,0.0,0.0,0.0,0.0,0.0,0.0,0.0,0.0,0.0,0.0,0.0,0.0,0.0,0.0,0.0,0.0,0.0,0.0,0.0,0.0,0.0,0.0,0.0,0.0,0.0,0.0,0.0,0.0,0.0,0.0,0.0,0.0,0.0,0.0,0.0,0.0,0.0,0.0,0.0,0.0,0.0,0.0,0.0,0.0,0.0,0.0,0.0,0.0,0.0,0.0,0.0,0.0,0.0,0.0,0.0,0.0,0.0,0.0,0.0,0.0,0.0,0.0,0.0,0.0,0.0,0.0,0.0,0.0,0.0,0.0,0.0,0.0,0.0,0.0,0.0,0.0,0.0,0.0,0.0,0.0,0.0,0.0,0.0,0.0,0.0,0.0,0.0,0.0,0.0,0.0,0.0,0.0,0.0,0.0,0.0,0.0,0.0,0.0,0.0,0.0,0.0,0.0,0.0,2.6322,2.7861,2.6899,2.5313,0.0,0.0,0.0,0.0,0.0,0.0,0.0,0.0,0.0,0.0,0.0,0.0,0.0,0.0,0.0,0.0,0.0,0.0,0.0,0.0,0.0,0.0,0.0,0.0,0.0,0.0,0.0,0.0,0.0,0.0,0.0,0.0,0.0,0.0,0.0,0.0,0.0,0.0,0.0,0.0,0.0,0.0,0.0,0.0,0.0,0.0,0.0,0.0,0.0,0.0,0.0,0.0,0.0,0.0,0.0,0.0,0.0,0.0,0.0,0.0,0.0,0.0,0.0,0.0,0.0,0.0,0.0,0.0,0.0,0.0,0.0,0.0,0.0,0.0,0.0,0.0,0.0,0.0,0.0,0.0,0.0,0.0,0.0,0.0,0.0,0.0,0.0,0.0,0.0,0.0,0.0,0.0,0.0,0.0,0.0,0.0,0.0,0.0,0.0,0.0,0.0,0.0,0.0,0.0,0.0,0.0,0.0,0.0,0.0,0.0,2.5986,2.688,2.8093,2.6794,2.4716,2.1945,0.0,0.0,0.0,0.0,0.0,0.0,0.0,0.0,0.0,0.0,0.0,0.0,0.0,0.0,0.0,0.0,0.0,0.0,0.0,0.0,0.0,0.0,0.0,0.0,0.0,0.0,0.0,0.0,0.0,0.0,0.0,0.0,0.0,0.0,0.0,0.0,0.0,0.0,0.0,0.0,0.0,0.0,0.0,0.0,0.0,0.0,0.0,0.0,0.0,0.0,0.0,0.0,0.0,0.0,0.0,0.0,0.0,0.0,0.0,0.0,0.0,0.0,0.0,0.0,0.0,0.0,0.0,0.0,0.0,0.0,0.0,0.0,0.0,0.0,0.0,0.0,0.0,0.0,0.0,0.0,0.0,0.0,0.0,0.0,0.0,0.0,0.0,0.0,0.0,0.0,0.0,0.0,0.0,0.0,0.0,0.0,0.0,0.0,0.0,0.0,0.0,0.0,0.0,0.0,0.0,0.0,0.0,0.0,2.8429,2.6553,2.6582,2.9037,2.8247,2.6188,0.0,0.0,0.0,0.0,0.0,0.0,0.0,0.0,0.0,0.0,0.0,0.0,0.0,0.0,0.0,0.0,0.0,0.0,0.0,0.0,0.0,0.0,0.0,0.0,0.0,0.0,0.0,0.0,0.0,0.0,0.0,0.0,0.0,0.0,0.0,0.0,0.0,0.0,0.0,0.0,0.0,0.0,0.0,0.0,0.0,0.0,0.0,0.0,0.0,0.0,0.0,0.0,0.0,0.0,0.0,0.0,0.0,0.0,0.0,0.0,0.0,0.0,0.0,0.0,0.0,0.0,0.0,0.0,0.0,0.0,0.0,0.0,0.0,0.0,0.0,0.0,0.0,0.0,0.0,0.0,0.0,0.0,0.0,0.0,0.0,0.0,0.0,0.0,0.0,0.0,0.0,0.0,0.0,0.0,0.0,0.0,0.0,0.0,0.0,0.0,0.0,0.0,0.0,0.0,0.0,0.0,0.0,0.0,0.0,2.4072,2.5476,2.7422,2.9821,2.7624,2.5215,0.0,0.0,0.0,0.0,0.0,0.0,0.0,0.0,0.0,0.0,0.0,0.0,0.0,0.0,0.0,0.0,0.0,0.0,0.0,0.0,0.0,0.0,0.0,0.0,0.0,0.0,0.0,0.0,0.0,0.0,0.0,0.0,0.0,0.0,0.0,0.0,0.0,0.0,0.0,0.0,0.0,0.0,0.0,0.0,0.0,0.0,0.0,0.0,0.0,0.0,0.0,0.0,0.0,0.0,0.0,0.0,0.0,0.0,0.0,0.0,0.0,0.0,0.0,0.0,0.0,0.0,0.0,0.0,0.0,0.0,0.0,0.0,0.0,0.0,0.0,0.0,0.0,0.0,0.0,0.0,0.0,0.0,0.0,0.0,0.0,0.0,0.0,0.0,0.0,0.0,0.0,0.0,0.0,0.0,0.0,0.0,0.0,0.0,0.0,0.0,0.0,0.0,0.0,0.0,0.0,0.0,0.0,0.0,0.0,2.3116,0.0,2.8548,0.0,2.7206,2.4675,0.0,0.0,0.0,0.0,0.0,0.0,0.0,0.0,0.0,0.0,0.0,0.0,0.0,0.0,0.0,0.0,0.0,0.0,0.0,0.0,0.0,0.0,0.0,0.0,0.0,0.0,0.0,0.0,0.0,0.0,0.0,0.0,0.0,0.0,0.0,0.0,0.0,0.0,0.0,0.0,0.0,0.0,0.0,0.0,0.0,0.0,0.0,0.0,0.0,0.0,0.0,0.0,0.0,0.0,0.0,0.0,0.0,0.0,0.0,0.0,0.0,0.0,0.0,0.0,0.0,0.0,0.0,0.0,0.0,0.0,0.0,0.0,0.0,0.0,0.0,0.0,0.0,0.0,0.0,0.0,0.0,0.0,0.0,0.0,0.0,0.0,0.0,0.0,0.0,0.0,0.0,0.0,0.0,0.0,0.0,0.0,0.0,0.0,0.0,0.0,0.0,0.0,0.0,0.0,0.0,0.0,0.0,0.0,2.2325,2.6486,2.9077,2.9576,2.8107,2.7175,2.4759,0.0,0.0,0.0,0.0,0.0,0.0,0.0,0.0,0.0,0.0,0.0,0.0,0.0,0.0,0.0,0.0,0.0,0.0,0.0,0.0,0.0,0.0,0.0,0.0,0.0,0.0,0.0,0.0,0.0,0.0,0.0,0.0,0.0,0.0,0.0,0.0,0.0,0.0,0.0,0.0,0.0,0.0,0.0,0.0,0.0,0.0,0.0,0.0,0.0,0.0,0.0,0.0,0.0,0.0,0.0,0.0,0.0,0.0,0.0,0.0,0.0,0.0,0.0,0.0,0.0,0.0,0.0,0.0,0.0,0.0,0.0,0.0,0.0,0.0,0.0,0.0,0.0,0.0,0.0,0.0,0.0,0.0,0.0,0.0,0.0,0.0,0.0,0.0,0.0,0.0,0.0,0.0,0.0,0.0,0.0,0.0,0.0,0.0,0.0,0.0,0.0,0.0,0.0,0.0,0.0,0.0,0.0,0.0,0.0,2.5886,2.7273,2.8304,2.8846,2.6398,2.4401,0.0,0.0,0.0,0.0,0.0,0.0,0.0,0.0,0.0,0.0,0.0,0.0,0.0,0.0,0.0,0.0,0.0,0.0,0.0,0.0,0.0,0.0,0.0,0.0,0.0,0.0,0.0,0.0,0.0,0.0,0.0,0.0,0.0,0.0,0.0,0.0,0.0,0.0,0.0,0.0,0.0,0.0,0.0,0.0,0.0,0.0,0.0,0.0,0.0,0.0,0.0,0.0,0.0,0.0,0.0,0.0,0.0,0.0,0.0,0.0,0.0,0.0,0.0,0.0,0.0,0.0,0.0,0.0,0.0,0.0,0.0,0.0,0.0,0.0,0.0,0.0,0.0,0.0,0.0,0.0,0.0,0.0,0.0,0.0,0.0,0.0,0.0,0.0,0.0,0.0,0.0,0.0,0.0,0.0,0.0,0.0,0.0,0.0,0.0,0.0,0.0,0.0,0.0,0.0,0.0,0.0,0.0,0.0,0.0,2.6367,2.7249,2.8043,2.8796,2.6406,2.4678,2.3703,0.0,0.0,0.0,0.0,0.0,0.0,0.0,0.0,0.0,0.0,0.0,0.0,0.0,0.0,0.0,0.0,0.0,0.0,0.0,0.0,0.0,0.0,0.0,0.0,0.0,0.0,0.0,0.0,0.0,0.0,0.0,0.0,0.0,0.0,0.0,0.0,0.0,0.0,0.0,0.0,0.0,0.0,0.0,0.0,0.0,0.0,0.0,0.0,0.0,0.0,0.0,0.0,0.0,0.0,0.0,0.0,0.0,0.0,0.0,0.0,0.0,0.0,0.0,0.0,0.0,0.0,0.0,0.0,0.0,0.0,0.0,0.0,0.0,0.0,0.0,0.0,0.0,0.0,0.0,0.0,0.0,0.0,0.0,0.0,0.0,0.0,0.0,0.0,0.0,0.0,0.0,0.0,0.0,0.0,0.0,0.0,0.0,0.0,0.0,0.0,0.0,0.0,0.0,0.0,0.0,0.0,0.0,0.0,2.7582,2.856,2.868,2.7974,2.7078,2.542,0.0,0.0,0.0,0.0,0.0,0.0,0.0,0.0,0.0,0.0,0.0,0.0,0.0,0.0,0.0,0.0,0.0,0.0,0.0,0.0,0.0,0.0,0.0,0.0,0.0,0.0,0.0,0.0,0.0,0.0,0.0,0.0,0.0,0.0,0.0,0.0,0.0,0.0,0.0,0.0,0.0,0.0,0.0,0.0,0.0,0.0,0.0,0.0,0.0,0.0,0.0,0.0,0.0,0.0,0.0,0.0,0.0,0.0,0.0,0.0,0.0,0.0,0.0,0.0,0.0,0.0,0.0,0.0,0.0,0.0,0.0,0.0,0.0,0.0,0.0,0.0,0.0,0.0,0.0,0.0,0.0,0.0,0.0,0.0,0.0,0.0,0.0,0.0,0.0,0.0,0.0,0.0,0.0,0.0,0.0,0.0,0.0,0.0,0.0,0.0,0.0,0.0,0.0,0.0,0.0,0.0,0.0,0.0,0.0,2.6437,2.7101,2.8013,2.9166,2.7033,2.5246,0.0,0.0,0.0,0.0,0.0,0.0,0.0,0.0,0.0,0.0,0.0,0.0,0.0,0.0,0.0,0.0,0.0,0.0,0.0,0.0,0.0,0.0,0.0,0.0,0.0,0.0,0.0,0.0,0.0,0.0,0.0,0.0,0.0,0.0,0.0,0.0,0.0,0.0,0.0,0.0,0.0,0.0,0.0,0.0,0.0,0.0,0.0,0.0,0.0,0.0,0.0,0.0,0.0,0.0,0.0,0.0,0.0,0.0,0.0,0.0,0.0,0.0,0.0,0.0,0.0,0.0,0.0,0.0,0.0,0.0,0.0,0.0,0.0,0.0,0.0,0.0,0.0,0.0,0.0,0.0,0.0,0.0,0.0,0.0,0.0,0.0,0.0,0.0,0.0,0.0,0.0,0.0,0.0,0.0,0.0,0.0,0.0,0.0,0.0,0.0,0.0,0.0,0.0,0.0,0.0,0.0,0.0,0.0,2.5442,2.571,2.6321,2.7176,2.8258,2.6508,2.5007,0.0,0.0,0.0,0.0,0.0,0.0,0.0,0.0,0.0,0.0,0.0,0.0,0.0,0.0,0.0,0.0,0.0,0.0,0.0,0.0,0.0,0.0,0.0,0.0,0.0,0.0,0.0,0.0,0.0,0.0,0.0,0.0,0.0,0.0,0.0,0.0,0.0,0.0,0.0,0.0,0.0,0.0,0.0,0.0,0.0,0.0,0.0,0.0,0.0,0.0,0.0,0.0,0.0,0.0,0.0,0.0,0.0,0.0,0.0,0.0,0.0,0.0,0.0,0.0,0.0,0.0,0.0,0.0,0.0,0.0,0.0,0.0,0.0,0.0,0.0,0.0,0.0,0.0,0.0,0.0,0.0,0.0,0.0,0.0,0.0,0.0,0.0,0.0,0.0,0.0,0.0,0.0,0.0,0.0,0.0,0.0,0.0,0.0,0.0,0.0,0.0,0.0,0.0,0.0,0.0,0.0,0.0,0.0,2.5605,2.515,2.5877,2.6167,2.5847,2.5605,2.4709,0.0,0.0,0.0,0.0,0.0,0.0,0.0,0.0,0.0,0.0,0.0,0.0,0.0,0.0,0.0,0.0,0.0,0.0,0.0,0.0,0.0,0.0,0.0,0.0,0.0,0.0,0.0,0.0,0.0,0.0,0.0,0.0,0.0,0.0,0.0,0.0,0.0,0.0,0.0,0.0,0.0,0.0,0.0,0.0,0.0,0.0,0.0,0.0,0.0,0.0,0.0,0.0,0.0,0.0,0.0,0.0,0.0,0.0,0.0,0.0,0.0,0.0,0.0,0.0,0.0,0.0,0.0,0.0,0.0,0.0,0.0,0.0,0.0,0.0,0.0,0.0,0.0,0.0,0.0,0.0,0.0,0.0,0.0,0.0,0.0,0.0,0.0,0.0,0.0,0.0,0.0,0.0,0.0,0.0,0.0,0.0,0.0,0.0,0.0,0.0,0.0,0.0,0.0,0.0,0.0,0.0,0.0,0.0,2.4986,2.4088,2.468,2.453,2.3559,2.4317,2.417,0.0,0.0,0.0,0.0,0.0,0.0,0.0,0.0,0.0,0.0,0.0,0.0,0.0,0.0,0.0,0.0,0.0,0.0,0.0,0.0,0.0,0.0,0.0,0.0,0.0,0.0,0.0,0.0,0.0,0.0,0.0,0.0,0.0,0.0,0.0,0.0,0.0,0.0,0.0,0.0,0.0,0.0,0.0,0.0,0.0,0.0,0.0,0.0,1.7741,0.0,0.0,0.0,0.0,0.0,0.0,0.0,0.0,0.0,0.0,0.0,0.0,0.0,0.0,0.0,0.0,0.0,0.0,0.0,0.0,0.0,0.0,0.0,0.0,0.0,0.0,0.0,0.0,0.0,0.0,0.0,0.0,0.0,0.0,0.0,0.0,0.0,0.0,0.0,0.0,0.0,0.0,0.0,0.0,0.0,0.0,0.0,0.0,0.0,0.0,0.0,0.0,0.0,0.0,0.0,0.0,0.0,0.0,0.0,2.401,2.3399,2.3534,2.3301,2.2669,2.2997,2.297,0.0,0.0,0.0,0.0,0.0,0.0,0.0,0.0,0.0,0.0,0.0,0.0,0.0,0.0,0.0,0.0,0.0,0.0,0.0,0.0,0.0,0.0,0.0,0.0,0.0,0.0,0.0,0.0,0.0,0.0,0.0,0.0,0.0,0.0,0.0,0.0,0.0,0.0,0.0,0.0,0.0,0.0,0.0,0.0,0.0,0.0,0.0,0.0,0.0,0.0,0.0,0.0,0.0,0.0,0.0,0.0,0.0,0.0,0.0,0.0,0.0,0.0,0.0,0.0,0.0,0.0,0.0,0.0,0.0,0.0,0.0,0.0,0.0,0.0,0.0,0.0,0.0,0.0,0.0,0.0,0.0,0.0,0.0,0.0,0.0,0.0,0.0,0.0,0.0,0.0,0.0,0.0,0.0,0.0,0.0,0.0,0.0,0.0,0.0,0.0,0.0,0.0,0.0,0.0,0.0,0.0,0.0,2.2625,2.299,2.2968,2.2617,2.2359,2.2186,2.1807,2.1557,2.1374,0.0,0.0,0.0,0.0,0.0,0.0,0.0,0.0,0.0,0.0,0.0,0.0,0.0,0.0,0.0,0.0,0.0,0.0,0.0,0.0,0.0,0.0,0.0,0.0,0.0,0.0,0.0,0.0,0.0,0.0,0.0,0.0,0.0,0.0,0.0,0.0,0.0,0.0,2.2453,2.1578,0.0,0.0,0.0,0.0,0.0,0.0,0.0,0.0,1.4648,0.0,0.0,0.0,0.0,0.0,0.0,0.0,0.0,0.0,0.0,0.0,0.0,0.0,0.0,0.0,0.0,0.0,0.0,0.0,0.0,0.0,0.0,0.0,0.0,0.0,0.0,0.0,0.0,0.0,0.0,0.0,0.0,0.0,0.0,0.0,0.0,0.0,0.0,0.0,0.0,0.0,0.0,0.0,0.0,0.0,0.0,0.0,0.0,0.0,0.0,0.0,0.0,0.0,0.0,0.0,0.0,2.2602,2.2216,2.227,2.2798,2.2439,2.1948,2.1328,2.1235,2.0599,1.9308,0.0,0.0,0.0,0.0,0.0,0.0,0.0,0.0,0.0,0.0,0.0,0.0,0.0,0.0,0.0,0.0,0.0,0.0,0.0,0.0,0.0,0.0,0.0,0.0,0.0,0.0,0.0,0.0,0.0,0.0,0.0,0.0,0.0,0.0,0.0,0.0,0.0,0.0,0.0,2.1495,2.1014,0.0,0.0,0.0,0.0,0.0,0.0,0.0,0.0,1.2192,0.0,0.0,0.0,0.0,0.0,0.0,0.0,0.0,0.0,0.0,0.0,0.0,0.0,0.0,0.0,0.0,0.0,0.0,0.0,0.0,0.0,0.0,0.0,0.0,0.0,0.0,0.0,0.0,0.0,0.0,0.0,0.0,0.0,0.0,0.0,0.0,0.0,0.0,0.0,0.0,0.0,0.0,0.0,0.0,0.0,0.0,0.0,0.0,0.0,0.0,0.0,0.0,0.0,0.0,0.0,2.209,2.2242,2.2391,2.2564,2.189,2.1337,2.0934,2.0009,1.9269,0.0,0.0,0.0,0.0,0.0,0.0,0.0,0.0,0.0,0.0,0.0,0.0,0.0,0.0,0.0,0.0,0.0,0.0,0.0,0.0,0.0,0.0,0.0,0.0,0.0,0.0,0.0,0.0,0.0,0.0,0.0,0.0,0.0,0.0,0.0,0.0,0.0,0.0,0.0,0.0,2.0738,2.0314,1.9085,0.0,0.0,0.0,0.0,0.0,0.0,1.0992,1.0314,0.0,0.0,0.0,0.0,0.0,0.0,0.0,0.0,0.0,0.0,0.0,0.0,0.0,0.0,0.0,0.0,0.0,0.0,0.0,0.0,0.0,0.0,0.0,0.0,0.0,0.0,0.0,0.0,0.0,0.0,0.0,0.0,0.0,0.0,0.0,0.0,0.0,0.0,0.0,0.0,0.0,0.0,0.0,0.0,0.0,0.0,0.0,0.0,0.0,0.0,0.0,0.0,0.0,0.0,0.0,2.1498,2.2005,2.2234,2.2133,2.1251,2.0697,2.0571,1.9041,1.8292,0.0,0.0,0.0,0.0,0.0,0.0,0.0,0.0,0.0,0.0,0.0,0.0,0.0,0.0,0.0,0.0,0.0,0.0,0.0,0.0,0.0,0.0,0.0,0.0,0.0,0.0,0.0,0.0,0.0,0.0,0.0,0.0,0.0,0.0,0.0,0.0,0.0,0.0,0.0,0.0,0.0,1.9777,1.7983,1.6974,0.0,0.0,0.0,0.0,0.932,0.8255,0.0,0.0,0.0,0.0,0.0,0.0,0.0,0.0,0.0,0.0,0.0,0.0,0.0,0.0,0.0,0.0,0.0,0.0,0.0,0.0,0.0,0.0,0.0,0.0,0.0,0.0,0.0,0.0,0.0,0.0,0.0,0.0,0.0,0.0,0.0,0.0,0.0,0.0,0.0,0.0,0.0,0.0,0.0,0.0,0.0,0.0,0.0,0.0,0.0,0.0,0.0,0.0,0.0,0.0,0.0,0.0,2.1159,2.0916,2.0982,2.1354,2.0667,2.0147,1.9826,1.9214,1.8281,0.0,0.0,0.0,0.0,0.0,0.0,0.0,0.0,0.0,0.0,0.0,0.0,0.0,0.0,0.0,0.0,0.0,0.0,0.0,0.0,0.0,0.0,0.0,0.0,0.0,0.0,0.0,0.0,0.0,0.0,0.0,0.0,0.0,0.0,0.0,0.0,0.0,0.0,0.0,0.0,0.0,2.037,1.7043,1.6142,1.4749,0.0,0.0,0.9721,0.617,0.4774,0.0,0.0,0.0,0.0,0.0,0.0,0.0,0.0,0.0,0.0,0.0,0.0,0.0,0.0,0.0,0.0,0.0,0.0,0.0,0.0,0.0,0.0,0.0,0.0,0.0,0.0,0.0,0.0,0.0,0.0,0.0,0.0,0.0,0.0,0.0,0.0,0.0,0.0,0.0,0.0,0.0,0.0,0.0,0.0,0.0,0.0,0.0,0.0,0.0,0.0,0.0,0.0,0.0,0.0,0.0,1.9979,2.1066,2.1402,2.1466,2.1295,2.0575,1.9647,1.8455,1.7492,1.6261,0.0,0.0,0.0,0.0,0.0,0.0,0.0,0.0,0.0,0.0,0.0,0.0,0.0,0.0,0.0,0.0,0.0,0.0,0.0,0.0,0.0,0.0,0.0,0.0,0.0,0.0,0.0,0.0,0.0,0.0,0.0,0.0,0.0,0.0,0.0,0.0,0.0,0.0,0.0,0.0,0.0,0.0,1.5751,1.3912,0.0,0.0,0.0,0.5314,0.2806,0.0,0.0,0.0,0.0,0.0,0.0,0.0,0.0,0.0,0.0,0.0,0.0,0.0,0.0,0.0,0.0,0.0,0.0,0.0,0.0,0.0,0.0,0.0,0.0,0.0,0.0,0.0,0.0,0.0,0.0,0.0,0.0,0.0,0.0,0.0,0.0,0.0,0.0,0.0,0.0,0.0,0.0,0.0,0.0,0.0,0.0,0.0,0.0,0.0,0.0,0.0,0.0,0.0,0.0,0.0,0.0,0.0,2.0959,2.1481,2.1406,2.0678,1.9708,1.8525,1.7146,1.5769,0.0,0.0,0.0,0.0,0.0,0.0,0.0,0.0,0.0,0.0,0.0,0.0,0.0,0.0,0.0,0.0,0.0,0.0,0.0,0.0,0.0,0.0,0.0,0.0,0.0,0.0,0.0,1.5321,0.0,0.0,0.0,0.0,0.0,0.0,0.0,0.0,0.0,0.0,0.0,0.0,0.0,0.0,1.4844,1.2846,1.0574,0.824,0.0,0.0,0.1189,-0.0691,-0.2145,-0.3238,0.0,0.0,0.0,0.0,0.0,0.0,0.0,0.0,0.0,0.0,0.0,0.0,0.0,0.0,0.0,0.0,0.0,0.0,0.0,0.0,0.0,0.0,0.0,0.0,0.0,0.0,0.0,0.0,0.0,0.0,0.0,0.0,0.0,0.0,0.0,0.0,0.0,0.0,0.0,0.0,0.0,0.0,0.0,0.0,0.0,0.0,0.0,0.0,0.0,0.0,0.0,0.0,0.0,0.0,1.9918,2.0757,2.0325,1.9644,1.8848,1.7276,1.6357,1.6082,1.4856,1.3945,0.0,0.0,0.0,0.0,0.0,0.0,0.0,0.0,0.0,0.0,0.0,0.0,0.0,0.0,0.0,0.0,0.0,0.0,0.0,0.0,0.0,0.0,0.0,0.0,0.0,0.0,0.0,0.0,0.0,0.0,0.0,0.0,0.0,0.0,0.0,0.0,0.0,0.0,0.0,0.0,0.0,1.1215,0.7228,0.5732,0.405,0.0,0.0196,-0.1194,-0.424,-0.5653,-0.6531,-0.7051,0.0,0.0,0.0,0.0,0.0,0.0,0.0,0.0,0.0,0.0,0.0,0.0,0.0,0.0,0.0,0.0,0.0,0.0,0.0,0.0,0.0,0.0,0.0,0.0,0.0,0.0,0.0,0.0,0.0,0.0,0.0,0.0,0.0,0.0,0.0,0.0,0.0,0.0,0.0,0.0,0.0,0.0,0.0,0.0,0.0,0.0,0.0,0.0,0.0,0.0,0.0,0.0,0.0,1.7249,2.0377,1.7411,1.6519,1.7871,1.5657,1.407,1.3376,1.1785,1.0563,0.0,0.0,0.0,0.0,0.0,0.0,0.0,0.0,0.0,0.0,0.0,0.0,0.0,0.0,0.0,0.0,0.0,0.0,0.0,0.0,0.0,0.0,0.0,0.0,0.0,0.0,0.0,0.0,1.5235,1.3466,1.1374,0.0,0.0,0.0,0.0,0.0,0.0,0.0,0.0,0.0,0.0,0.5218,0.2356,0.0597,0.0,0.0,-0.4704,-0.6206,-0.7313,-0.8649,-0.9509,-0.9425,-1.0329,0.0,0.0,0.0,0.0,0.0,0.0,0.0,0.0,0.0,0.0,0.0,0.0,0.0,0.0,0.0,0.0,0.0,0.0,0.0,0.0,0.0,0.0,0.0,0.0,0.0,0.0,0.0,0.0,0.0,0.0,0.0,0.0,0.0,0.0,0.0,0.0,0.0,0.0,0.0,0.0,0.0,0.0,0.0,0.0,0.0,0.0,0.0,0.0,0.0,0.0,0.0,0.0,1.364,1.8769,1.3554,1.2559,1.6079,1.2544,1.0238,0.9458,0.8415,0.7321,0.0,0.0,0.0,0.0,0.0,0.0,0.0,0.0,0.0,0.0,0.0,0.0,0.0,0.0,0.0,0.0,0.0,0.0,0.0,0.0,0.0,0.0,0.0,0.0,0.0,0.0,0.0,0.0,1.0239,0.7639,0.4703,0.0,0.0,0.0,0.0,0.0,0.0,0.0,0.0,0.0,0.0,-0.1331,-0.3013,-0.474,-0.6151,-0.6806,-0.859,-0.9852,-0.9916,-1.0935,-1.166,-1.1527,0.0,0.0,0.0,0.0,0.0,0.0,0.0,0.0,0.0,0.0,0.0,0.0,0.0,0.0,0.0,0.0,0.0,0.0,0.0,0.0,0.0,0.0,0.0,0.0,0.0,0.0,0.0,0.0,0.0,0.0,-0.5108,0.0,0.0,0.0,0.0,0.0,0.0,0.0,0.0,0.0,0.0,0.0,0.0,0.0,0.0,0.0,0.0,0.0,0.0,0.0,0.0,0.0,0.0,0.9086,1.5274,0.8579,0.7588,1.2377,0.7358,0.4391,0.4287,0.4873,0.4703,0.3602,0.0,0.0,0.0,0.0,0.0,0.0,0.0,0.0,0.0,0.0,0.0,0.0,0.0,0.0,0.0,0.0,0.0,0.0,0.0,0.0,0.0,0.0,0.0,0.0,0.0,0.0,0.4842,0.3413,0.207,0.0,0.0,0.0,0.0,0.0,0.0,0.0,0.0,0.0,0.0,-0.6432,-0.8161,-0.9071,-1.0184,-1.0841,-1.0628,-1.0927,-1.1341,-1.1877,-1.2306,-1.2774,0.0,0.0,0.0,0.0,0.0,0.0,0.0,0.0,0.0,0.0,0.0,0.0,0.0,0.0,0.0,0.0,0.0,0.0,0.0,0.0,0.0,0.0,0.0,0.0,0.0,0.0,0.0,-1.0127,-0.8595,0.0,0.0,0.0,0.0,0.0,0.0,0.0,0.0,0.0,0.0,0.0,-1.2315,-1.2819,0.0,0.0,0.0,0.0,0.0,0.0,0.0,0.0,0.0,0.0,0.0,0.0,0.3082,0.5499,0.1138,-0.0033,0.2485,0.0307,-0.0579,0.0129,-0.0,0.0043,0.038,0.0,0.0,0.0,0.0,0.0,0.0,0.0,0.0,0.0,0.0,0.0,0.0,0.0,0.0,0.0,0.0,0.0,0.0,0.0,0.0,0.0,0.0,0.0,0.0,0.0,0.1068,0.0,0.0,0.0,0.0,0.0,0.0,0.0,0.0,0.0,0.0,0.0,-0.9408,-1.1813,-1.2852,-1.3511,-1.3992,-1.4532,-1.4648,0.0,0.0,0.0,0.0,0.0,0.0,0.0,0.0,0.0,0.0,0.0,0.0,0.0,0.0,-1.9985,-1.9678,-1.989,-2.0237,-2.0514,0.0,0.0,0.0,0.0,0.0,0.0,0.0,0.0,0.0,0.0,0.0,0.0,0.0,0.0,-1.3033,0.0,-1.1146,0.0,0.0,0.0,0.0,0.0,0.0,0.0,0.0,-1.3048,-1.3735,-1.4863,-1.5648,-1.5562,0.0,-1.4176,-1.2469,0.0,0.0,0.0,0.0,0.0,0.0,0.0,0.0,-0.3807,-0.1417,-0.545,-0.6247,-0.3386,-0.4993,-0.543,-0.4396,-0.4317,-0.385,-0.2914,-0.2646,-0.2726,0.0,0.0,0.0,0.0,0.0,0.0,0.0,0.0,0.0,0.0,0.0,0.0,0.0,0.0,0.0,0.0,0.0,0.0,0.0,0.0,0.0,0.0,0.0,-0.6321,0.0,0.0,0.0,0.0,0.0,0.0,0.0,0.0,0.0,-1.4249,-1.453,-1.5796,-1.7816,-1.7963,-1.7829,-1.7684,0.0,0.0,0.0,0.0,0.0,0.0,0.0,-1.7409,-1.7134,-1.804,-1.8843,-1.8838,-1.9724,-2.0514,-2.0773,0.0,0.0,-2.0399,-2.0567,-2.0836,-2.0939,-2.1069,-2.1131,-2.1136,-2.1166,-2.1197,0.0,0.0,0.0,0.0,0.0,0.0,0.0,0.0,-1.6118,-1.5733,0.0,-1.3692,0.0,0.0,0.0,0.0,0.0,-1.4381,0.0,0.0,-1.5934,-1.6532,-1.6844,-1.7424,-1.7199,-1.6362,-1.6584,-1.6264,-1.5359,-1.2651,0.0,0.0,0.0,0.0,0.0,0.0,-1.1314,-0.5967,-1.0937,-1.0876,-0.5401,-0.8521,-0.9998,-0.9096,-0.7849,-0.6864,-0.6214,-0.5955,-0.6186,-0.694,-0.7353,0.0,0.0,0.0,0.0,0.0,0.0,0.0,0.0,0.0,0.0,0.0,0.0,0.0,0.0,0.0,0.0,0.0,0.0,0.0,0.0,-1.4784,0.0,0.0,0.0,0.0,0.0,0.0,0.0,0.0,0.0,0.0,-2.065,-2.0663,-2.124,-2.2092,0.0,0.0,0.0,0.0,-1.9159,-1.8549,-1.8436,-1.8442,-1.8431,-1.8931,-1.9264,-1.931,0.0,0.0,-2.0204,-2.0574,-2.0805,-2.0848,-2.1149,-2.1465,-2.167,-2.1913,-2.2107,-2.2011,-2.1587,-2.1686,-2.2607,-2.2046,-2.1669,-2.1551,0.0,0.0,0.0,0.0,-2.0157,-1.946,-1.8294,-1.8585,-1.7928,-1.6516,-1.5825,0.0,0.0,0.0,0.0,0.0,0.0,-1.6798,-1.7076,-1.7738,-1.7997,-1.798,-1.8987,-1.9114,-1.8514,-1.8788,-1.8834,-1.8576,-1.7648,-1.6221,-1.4224,0.0,0.0,0.0,0.0,-1.472,-1.5767,-1.5625,-1.5392,-1.5183,-1.3899,-1.2271,-1.0306,-0.9343,-0.8616,-0.8072,-0.7679,-0.7911,-0.8777,-0.8635,0.0,0.0,0.0,0.0,0.0,0.0,0.0,0.0,0.0,0.0,0.0,0.0,0.0,0.0,0.0,0.0,0.0,0.0,0.0,-1.4887,-1.6983,-1.8523,0.0,0.0,0.0,0.0,0.0,0.0,0.0,0.0,0.0,-2.3746,-2.3771,-2.3859,0.0,0.0,-2.2589,-2.1368,-2.1051,-2.065,-1.9825,-1.967,0.0,-1.967,-1.9843,-1.9946,-1.9959,-2.0308,-2.0696,-2.1008,-2.114,-2.1244,-2.1252,-2.1327,-2.1416,-2.152,-2.1752,-2.1702,-2.1169,-2.1013,-2.1093,-2.1369,-2.1376,-2.1471,-2.3173,-2.273,-2.1882,-2.1729,-2.1971,-2.1773,-2.1164,-2.0295,-2.0403,-1.9669,-1.8331,-1.7965,-1.7625,-1.7377,-1.7009,0.0,0.0,0.0,-1.8076,-1.851,-1.8876,-1.9046,-1.9022,-1.994,-2.0248,-1.9965,-2.0257,-2.0477,-2.0635,-2.0525,-1.9823,-1.8374,0.0,0.0,-1.8538,-1.754,-1.8211,-2.0501,-1.8925,-1.8465,-1.9352,-1.662,-1.4211,-1.23,-1.1281,-1.039,-0.9554,-0.9399,-0.9826,-1.0818,-1.0541,-1.0528,0.0,0.0,0.0,0.0,0.0,0.0,0.0,0.0,0.0,0.0,0.0,-1.0943,-1.0161,0.0,0.0,0.0,-1.5439,-1.6949,-1.7938,-1.9589,0.0,0.0,0.0,0.0,0.0,0.0,0.0,-2.4618,-2.5445,-2.595,-2.5632,-2.5401,-2.5155,-2.4788,-2.4141,-2.3402,-2.2495,0.0,-2.1846,-2.1111,-2.0999,-2.0914,-2.0723,-2.0679,-2.0673,-2.0666,-2.0871,-2.1111,-2.1313,-2.141,-2.141,-2.141,-2.141,-2.141,-2.141,-2.1561,-2.1424,-2.0643,-2.0322,-2.036,-2.0869,-2.1133,-2.1355,-2.4024,-2.391,-2.2948,-2.2682,-2.2907,-2.2665,-2.2068,-2.1373,-2.16,-2.1021,-1.9869,-1.9925,-1.9966,-1.998,-1.9477,0.0,-1.8567,-1.8591,-1.8926,-1.9506,-1.9666,-1.9829,-1.9951,-2.0524,-2.079,-2.079,-2.1141,-2.1442,-2.1761,-2.1782,-2.2231,-2.2966,-2.1672,-2.1462,-2.228,-2.1624,-2.1402,-2.1664,-2.1095,-2.0325,-1.9335,-1.7451,-1.5902,-1.4755,-1.3417,-1.2112,-1.0998,-1.1129,-1.1769,-1.2897,-1.2888,-1.2985,-1.336,0.0,0.0,0.0,0.0,0.0,0.0,0.0,0.0,0.0,0.0,0.0,0.0,0.0,0.0,0.0,-1.8659,0.0,-2.1103,-2.2215,0.0,0.0,0.0,-2.3869,-2.4602,-2.5279,-2.5693,-2.5693,0.0,0.0,-2.6624,-2.5944,-2.5446,-2.5234,-2.4339,-2.3653,-2.3602,-2.3201,-2.2799,-2.2282,-2.2263,-2.2077,-2.1609,-2.1458,-2.1423,-2.1326,-2.141,-2.1361,-2.1375,-2.141,-2.141,-2.141,-2.141,-2.1416,-2.1423,-2.1431,-2.1186,-2.0676,-1.9898,-1.9724,-2.1015,-2.1347,-2.1568,-2.4109,-2.4162,-2.34,-2.3138,-2.3188,-2.2929,-2.2695,-2.2461,-2.1988,-2.1572,-2.1254,-2.0476,-2.0125,-2.015,-1.9891,-1.9904,-2.0069,-1.9883,-1.9962,-2.0364,-2.0927,-2.1085,-2.0974,-2.1354,-2.159,-2.1699,-2.1836,-2.2054,-2.2388,-2.2643,-2.2865,-2.3065,-2.2921,-2.3132,-2.3662,-2.2598,-2.2409,-2.3169,-2.2237,-2.1034,-1.9573,-1.8311,-1.7119,-1.5986,-1.4396,-1.3496,-1.3514,-1.2854,-1.3154,-1.4546,-1.4608,-1.4823,-1.5379,-1.4567,0.0,0.0,0.0,0.0,0.0,0.0,0.0,0.0,0.0,-1.6062,-1.458,0.0,-1.8586,0.0,-1.9991,-2.1636,-2.2373,-2.3004,0.0,0.0,-2.5028,-2.536,-2.6099,-2.6327,-2.6429,-2.6437,-2.659,-2.6462,-2.588,-2.5615,-2.5262,-2.4635,-2.4326,-2.4032,-2.3656,-2.3509,-2.3289,-2.2826,-2.2712,-2.2663,-2.2519,-2.2256,-2.1855,-2.1471,-2.141,-2.141,-2.141,-2.141,-2.141,-2.141,-2.141,-2.1471,-2.1657,-2.1354,-2.107,-2.1067,-2.0751,-2.0715,-2.1548,-2.1808,-2.2027,-2.3959,-2.3959,-2.3436,-2.3187,-2.3105,-2.2978,-2.306,-2.3231,-2.2716,-2.2256,-2.1834,-2.1077,-2.0609,-2.0364,-2.0385,-2.0489,-2.0655,-2.0453,-2.0613,-2.1071,-2.1471,-2.168,-2.1711,-2.1882,-2.213,-2.2388,-2.2421,-2.259,-2.2949,-2.3131,-2.3312,-2.35,-2.3602,-2.389,-2.4363,-2.3316,-2.3121,-2.387,-2.3001,-2.2285,-2.1657,-1.9893,-1.8567,-1.7814,-1.5983,-1.5009,-1.4967,-1.4455,-1.4548,-1.5353,-1.543,-1.5686,-1.6331,-1.5699,-1.5097,0.0,0.0,0.0,0.0,0.0,0.0,0.0,0.0,0.0,0.0,0.0,-2.0438,-2.0519,-2.1988,-2.3251,-2.3978,-2.4678,-2.5314,-2.5958,-2.61,-2.631,-2.6657,-2.67,-2.67,-2.67,-2.67,-2.6547,-2.6096,-2.5734,-2.5351,-2.4863,-2.4533,-2.4193,-2.3927,-2.3769,-2.3484,-2.324,-2.3018,-2.2882,-2.2882,-2.2663,-2.2388,-2.2116,-2.1881,-2.1746,-2.1759,-2.1561,-2.141,-2.141,-2.141,-2.1458,-2.1595,-2.1363,-2.121,-2.1435,-2.1481,-2.1566,-2.1713,-2.1831,-2.2033,-2.3643,-2.3404,-2.3179,-2.2914,-2.2642,-2.2728,-2.3113,-2.3711,-2.3312,-2.268,-2.1824,-2.1363,-2.0908,-2.047,-2.0678,-2.0803,-2.0782,-2.0628,-2.0925,-2.1581,-2.1642,-2.184,-2.2192,-2.2248,-2.2501,-2.2935,-2.2876,-2.3052,-2.3426,-2.3449,-2.3615,-2.3972,-2.389,-2.4127,-2.4651,-2.3892,-2.373,-2.4222,-2.3584,-2.3583,-2.4176,-2.1591,-2.001,-1.9586,-1.7727,-1.6442,-1.5894,-1.5787,-1.5787,-1.586,-1.5854,-1.6177,-1.6888,-1.6548,-1.6351,0.0,-1.6269,0.0,0.0,0.0,0.0,0.0,0.0,0.0,0.0,-2.0997,-2.2266,-2.3251,-2.4214,-2.5033,-2.5627,-2.65,-2.6975,-2.6917,-2.6799,-2.6707,-2.6598,-2.6505,-2.6454,-2.653,-2.6547,-2.6581,-2.6564,-2.5944,-2.5494,-2.5313,-2.4759,-2.431,-2.4261,-2.3944,-2.3686,-2.3598,-2.3281,-2.3016,-2.2927,-2.2882,-2.2852,-2.2837,-2.2349,-2.2123,-2.2217,-2.1746,-2.1423,-2.1465,-2.1416,-2.1423,-2.1465,-2.1458,-2.1541,-2.1846,-2.1995,-2.1981,-2.1844,-2.1798,-2.1905,-2.316,-2.2445,-2.2797,-2.2331,-2.1409,-2.1939,-2.2557,-2.3209,-2.279,-2.1995,-2.0988,-2.0259,-2.0031,-2.0115,-2.0333,-2.0553,-2.0811,-2.0819,-2.1039,-2.1456,-2.1823,-2.2047,-2.2144,-2.2465,-2.279,-2.3116,-2.3133,-2.3301,-2.3647,-2.3647,-2.3762,-2.3983,-2.3972,-2.4237,-2.4733,0.0,0.0,0.0,-2.4396,-2.4049,-2.3922,-2.2237,-2.0877,-2.0004,-1.8566,0.0,-1.6772,-1.6288,-1.6255,-1.6714,-1.6748,0.0,0.0,0.0,0.0,0.0,0.0,0.0,0.0,0.0,0.0,0.0,-2.1128,-2.1375,-2.1392,-2.3198,-2.4613,-2.5095,-2.5812,-2.6426,-2.6758,-2.6985,-2.7047,-2.6966,-2.6356,-2.5909,-2.5875,-2.5319,-2.5127,-2.5744,-2.582,-2.5949,-2.6154,-2.5799,-2.5389,-2.509,-2.4606,-2.431,-2.431,-2.4177,-2.4,-2.3679,-2.3495,-2.3304,-2.2986,-2.2927,-2.2934,-2.2799,-2.2109,-2.1888,-2.2296,-2.1881,-2.1513,-2.1657,-2.1554,-2.1458,-2.165,-2.1705,-2.1848,-2.2317,-2.2123,-2.1908,-2.2083,-2.2285,-2.2366,-2.2398,0.0,-2.1837,-2.1555,0.0,-2.1351,-2.177,-2.2154,-2.2004,-2.1404,-2.0508,-1.9799,-1.9581,-1.9812,-2.0024,-2.0365,-2.07,-2.0793,-2.1015,-2.1317,-2.1615,-2.1895,-2.2124,-2.2448,-2.2738,-2.2958,-2.3221,-2.338,-2.344,-2.3589,-2.3756,-2.395,-2.3959,-2.4211,-2.4702,-2.494,-2.5126,-2.5298,-2.4902,-2.4591,-2.4341,-2.2834,-2.1568,-2.0583,0.0,0.0,0.0,0.0,0.0,0.0,0.0,0.0,0.0,0.0,0.0,-1.8748,-1.9255,-1.9474,-1.9421,-2.0394,-2.1193,-2.1619,-2.2409,-2.3022,-2.33,-2.4774,-2.5847,-2.6398,-2.6792,-2.7064,-2.7184,-2.684,-2.6585,-2.6473,-2.572,-2.5309,-2.5577,-2.5302,-2.5338,-2.5989,-2.6141,-2.6219,-2.6386,-2.588,-2.5465,-2.5206,-2.4687,-2.431,-2.4268,-2.4086,-2.3869,-2.3648,-2.3592,-2.3523,-2.3326,-2.3246,-2.3113,-2.2927,-2.2656,-2.2512,-2.2459,-2.2109,-2.1841,-2.1949,-2.1807,-2.1705,-2.1942,-2.199,-2.203,-2.2149,-2.1839,-2.1558,-2.1611,-2.1913,-2.2217,-2.1625,-2.1116,-2.0896,-2.0782,-2.0669,-2.0688,-2.0681,-2.0621,0.0,0.0,0.0,-1.928,-1.9101,-1.9303,-1.9615,-1.9987,-2.0363,-2.0624,-2.0843,-2.1006,-2.1277,-2.1576,-2.1907,-2.2258,-2.2502,-2.2626,-2.3149,-2.3333,-2.3206,-2.3462,-2.3709,-2.3876,-2.3928,-2.4164,-2.466,-2.505,-2.5219,-2.5177,-2.5074,-2.4967,-2.4788,-2.332,-2.2048,-2.1064,-1.9897,-1.8894,-1.8069,-1.8404,-1.8229,-1.7526,-1.8035,-1.8424,-1.8558,-1.8825,-1.9413,-2.0311,-2.0714,-2.0983,-2.1253,-2.1483,-2.1799,-2.2324,-2.3256,-2.4113,-2.4866,-2.569,-2.6442,-2.704,-2.7075,-2.7032,-2.6894,-2.6307,-2.5889,-2.582,-2.5043,-2.4739,-2.5218,-2.5274,-2.538,-2.6158,-2.6327,-2.6556,-2.6641,-2.5988,-2.5511,-2.5381,-2.4799,-2.431,-2.4227,-2.3932,-2.3625,-2.3611,-2.3589,-2.3551,-2.3457,-2.3414,-2.3326,-2.2972,-2.3009,-2.3009,-2.2603,-2.2249,-2.2077,-2.2077,-2.1819,-2.1675,-2.1808,-2.1669,-2.169,-2.1529,-2.124,-2.0969,-2.0921,-2.113,-2.1448,-2.0859,-2.0135,-2.0744,-2.0364,-1.9375,-1.9532,-1.9179,-1.8545,-1.9249,-1.9301,-1.8811,-1.8066,-1.7894,-1.8154,-1.8604,-1.9013,-1.942,-2.0123,-2.0376,0.0,-2.1047,-2.1285,-2.1103,-2.1811,-2.2172,-2.2228,-2.2841,-2.3135,-2.316,-2.3383,-2.3656,-2.3867,-2.4019,-2.4363,-2.4907,-2.4949,-2.4764,-2.4389,-2.4627,-2.4693,-2.4544,-2.3543,-2.228,-2.0837,-2.0566,-1.9811,-1.8461,-1.8829,-1.9103,-1.9206,-1.9075,-1.928,-1.9855,-1.9695,-1.9911,-2.0654,-2.1053,-2.1303,-2.1432,-2.1759,-2.2089,-2.2477,-2.3536,-2.4425,-2.4866,-2.5639,-2.6143,-2.6273,-2.6273,-2.5997,-2.5419,-2.5229,-2.5181,-2.51,-2.4368,-2.3887,-2.3992,-2.393,-2.4138,-2.4836,-2.5372,-2.6006,-2.6387,-2.5898,-2.5397,-2.5357,-2.4768,-2.431,-2.4227,-2.39,-2.3634,-2.3574,-2.3595,-2.3428,-2.3157,-2.3031,-2.3016,-2.2927,-2.2342,-2.2196,-2.2413,-2.2063,-2.1779,-2.1827,-2.1306,-2.0871,-2.0789,-2.0334,-2.0319,-2.0347,-2.0165,-2.0068,-2.0304,-2.0188,-2.0112,-1.986,-1.943,-1.9573,-1.9312,-1.8767,-1.8604,-1.8194,-1.7679,-1.8106,-1.8248,-1.8049,-1.7547,-1.7536,-1.7922,-1.8286,-1.8662,-1.9072,-1.9739,-2.0003,-1.998,-2.0462,-2.0763,-2.0926,-2.1444,-2.1761,-2.192,-2.2483,-2.2721,-2.2651,-2.2892,-2.3214,-2.3486,-2.3816,-2.4247,-2.4697,-2.4723,-2.4538,-2.4176,-2.4805,-2.4826,-2.4187,-2.3974,-2.3147,-2.1674,-2.1239,-2.0532,-1.9419,-1.9391,-1.9573,-1.9866,-1.978,-1.9889,-2.0181,-2.0266,-2.0444,-2.0802,-2.1294,-2.1575,-2.1601,-2.2061,-2.2369,-2.2523,-2.3317,-2.4029,-2.4601,-2.5361,-2.5749,-2.5535,-2.5588,-2.5527,-2.5171,-2.4825,-2.4627,-2.4752,-2.3894,-2.3438,-2.3719,-2.3571,-2.374,-2.4388,-2.4771,-2.5135,-2.5488,-2.486,-2.4539,-2.4737,-2.4508,-2.4279,-2.4222,-2.3629,-2.3223,-2.3527,-2.3595,-2.3377,-2.3024,-2.312,-2.3068,-2.2625,-2.2709,-2.261,-2.2526,-2.2156,-2.2115,-2.1795,-2.1283,-2.083,-2.0488,-2.0277,-2.009,-1.994,-1.9644,-1.9513,-1.9494,-1.9124,-1.9028,-1.8812,-1.8673,-1.8436,-1.8273,-1.8187,-1.7915,-1.7544,-1.716,-1.738,-1.7509,-1.7482,-1.7269,-1.7447,-1.7828,-1.8088,-1.8397,-1.8791,-1.9339,-1.9595,-1.9616,-1.9917,-2.0308,-2.0622,-2.0927,-2.1188,-2.1446,-2.1989,-2.2214,-2.2127,-2.2492,-2.2833,-2.3058,-2.3334,-2.376,-2.4317,-2.4444,-2.4306,-2.4014,-2.4692,-2.4633,-2.3736,-2.4185,-2.3731,-2.2247,-2.1733,-2.1095,-2.0312,-2.0108,-2.0185,-2.0462,-2.0499,-2.0504,-2.0481,-2.073,-2.0917,-2.0982,-2.1524,-2.189,-2.1974,-2.2371,-2.2597,-2.2587,-2.3044,-2.3567,-2.4129,-2.4745,-2.5085,-2.4949,-2.5067,-2.5059,-2.4796,-2.4365,-2.4104,-2.4254,-2.3559,-2.3272,-2.372,-2.3667,-2.3746,-2.4279,-2.4479,-2.4584,-2.4405,-2.3901,-2.3718,-2.3939,-2.3943,-2.3858,-2.3738,-2.3074,-2.2888,-2.3053,-2.3281,-2.3169,-2.2819,-2.3084,-2.3002,-2.2317,-2.2889,-2.2802,-2.2232,-2.2259,-2.2088,-2.1282,-2.0703,-2.0131,-1.9747,-1.9398,-1.9183,-1.8872,-1.8494,-1.8315,-1.8113,-1.7807,-1.7902,-1.7625,-1.7794,-1.7801,-1.7591,-1.7393,-1.7639,-1.7338,-1.6716,-1.7227,-1.7269,-1.6954,-1.7115,-1.731,-1.7557,-1.7828,-1.8076,-1.8347,-1.8959,-1.9132,-1.9042,-1.9739,-1.9995,-1.9882,-2.0212,-2.0408,-2.0575,-2.128,-2.166,-2.1668,-2.2296,-2.2712,-2.2861,-2.2491,-2.2767,-2.3667,-2.3997,-2.3917,-2.3486,-2.3725,-2.3578,-2.3085,-2.3853,-2.3373,-2.1471,-2.1884,-2.1644,-2.0774,-2.0983,-2.1283,-2.1576,-2.1331,-2.1214,-2.1206,-2.1237,-2.1245,-2.1276,-2.182,-2.2301,-2.2642,-2.2703,-2.2712,-2.2773,-2.3003,-2.3234,-2.3445,-2.3673,-2.4055,-2.4486,-2.4648,-2.4397,-2.3684,-2.3542,-2.3574,-2.3678,-2.3471,-2.336,-2.3439,-2.3879,-2.4139,-2.3874,-2.4325,-2.4773,-2.4328,-2.3939,-2.3544,-2.3028,-2.2867,-2.2717,-2.2678,-2.2432,-2.2116,-2.2022,-2.2301,-2.252,-2.2242,-2.2571,-2.2481,-2.2172,-2.2243,-2.1857,-2.1275,-2.1212,-2.132,-1.9775,-1.9023,-1.8464,-1.7678,-1.6934,-1.6732,-1.706,-1.6838,-1.6501,-1.6383,-1.64,-1.684,-1.7208,-1.7564,-1.7373,-1.7262,-1.7199,-1.7102,-1.6667,-1.6151,-1.6454,-1.6423,-1.6169,-1.6318,-1.6788,-1.7523,-1.7788,-1.7996,-1.8242,-1.8606,-1.876,-1.8767,-1.9161,-1.9406,-1.9603,-1.9839,-2.0062,-2.028,-2.0659,-2.0887,-2.103,-2.118,-2.1126,-2.1002,-2.1097,-2.1689,-2.2558,-2.3084,-2.2997,-2.2368,-2.3086,-2.2735,-2.1588,-2.2968,-2.3347,-2.2361,-2.2432,-2.2371,-2.1903,-2.1521,-2.154,-2.2011,-2.1593,-2.1401,-2.1593,-2.1593,-2.1601,-2.1615,-2.2133,-2.2527,-2.2782,-2.2816,-2.2857,-2.2975,-2.3227,-2.3486,-2.3768,-2.3908,-2.4135,-2.4287,-2.4241,-2.3961,-2.3694,-2.364,-2.3701,-2.3786,-2.3658,-2.3495,-2.3482,-2.3543,-2.3474,-2.324,-2.34,-2.3541,-2.3249,-2.3079,-2.2775,-2.2354,-2.223,-2.2247,-2.2247,-2.1759,-2.1311,-2.1158,-2.1345,-2.1453,-2.1389,-2.1282,-2.1124,-2.0734,-2.0457,-2.0067,-1.9644,-1.9594,-1.9405,-1.8237,-1.785,-1.7325,-1.6678,-1.6362,-1.6118,-1.6064,-1.6098,-1.6118,-1.6118,-1.5995,-1.619,-1.6435,-1.6629,-1.6514,-1.649,-1.6588,-1.6244,-1.5938,-1.5662,-1.5756,-1.5718,-1.5635,-1.575,-1.6275,-1.7102,-1.7406,-1.7659,-1.7902,-1.8016,-1.8182,-1.8333,-1.8475,-1.8777,-1.9147,-1.9266,-1.95,-1.9786,-1.9904,-2.012,-2.0346,-2.002,-1.9793,-1.98,-2.0221,-2.086,-2.161,-2.2203,-2.2127,-2.1561,-2.2374,-2.1947,-2.059,-2.2078,-2.2949,-2.2563,-2.2874,-2.2992,-2.2686,-2.2047,-2.1869,-2.2254,-2.1827,-2.1623,-2.1789,-2.1878,-2.1995,-2.2169,-2.2482,-2.2799,-2.2961,-2.2963,-2.3041,-2.323,-2.3584,-2.3933,-2.4065,-2.4181,-2.421,-2.42,-2.4008,-2.3935,-2.3917,-2.3899,-2.3996,-2.4161,-2.3896,-2.3723,-2.371,-2.345,-2.3214,-2.2867,-2.2937,-2.2668,-2.2381,-2.2253,-2.2078,-2.178,-2.1765,-2.1798,-2.173,-2.1058,-2.0615,-2.0571,-2.031,-2.0198,-2.0504,-2.052,-1.994,-1.9516,-1.9269,-1.8914,-1.8187,-1.827,-1.7946,-1.7244,-1.6992,-1.6502,-1.5721,-1.5548,-1.5637,-1.5623,-1.563,-1.5588,-1.5453,-1.535,-1.5299,-1.4943,-1.4732,-1.4897,-1.5181,-1.5187,-1.5198,-1.5147,-1.5096,-1.5271,-1.54,-1.5496,-1.57,-1.5938,-1.6281,-1.6436,-1.6814,-1.7205,-1.7166,-1.7236,-1.7442,-1.7868,-1.8147,-1.8337,-1.8376,-1.8454,-1.8672,-1.8992,-1.9389,-1.9855,-1.9287,-1.9364,-1.9971,-1.9956,-2.0443,-2.1081,-2.1444,-2.1404,-2.1011,-2.151,-2.1258,-2.0486,-2.143,-2.2028,-2.1953,-2.3061,-2.3408,-2.2839,-2.2669,-2.2533,-2.2319,-2.2237,-2.2115,-2.1894,-2.2106,-2.248,-2.2926,-2.2935,-2.3052,-2.3362,-2.3236,-2.3218,-2.3513,-2.4051,-2.4331,-2.417,-2.4105,-2.4172,-2.421,-2.4219,-2.419,-2.419,-2.4152,-2.417,-2.4199,-2.4065,-2.3976,-2.3967,-2.3786,-2.3558,-2.3197,-2.3035,-2.279,-2.2349,-2.1999,-2.1708,-2.1366,-2.111,-2.0848,-2.0624,-2.0424,-2.035,-2.0035,-1.9436,-1.8692,-1.9551,-1.9339,-1.9319,-1.8857,-1.8152,-1.8245,-1.7967,-1.7546,-1.6829,-1.6278,-1.5896,-1.538,-1.4692,-1.4443,-1.4558,-1.4579,-1.46,-1.4587,-1.4654,-1.4233,-1.423,-1.4623,-1.4646,-1.4801,-1.496,-1.5114,-1.5119,-1.4783,-1.4294,-1.4588,-1.449,-1.434,-1.468,-1.5181,-1.5579,-1.5271,-1.5756,-1.6735,-1.6915,-1.7028,-1.7146,-1.7401,-1.7598,-1.7686,-1.7821,-1.7948,-1.8035,-1.8145,-1.8187,-1.8075,-1.7935,-1.7868,-1.7961,-1.8261,-1.888,-1.974,-2.0303,-2.0399,-2.0172,-2.0656,-2.0694,-2.02,-2.1372,-2.2217,-2.26,-2.2892,-2.3206,-2.3475,-2.2974,-2.2659,-2.256,-2.2569,-2.2424,-2.22,-2.2396,-2.2694,-2.3051,-2.3251,-2.3436,-2.3637,-2.3608,-2.3646,-2.3881,-2.4264,-2.4514,-2.4483,-2.4426,-2.4444,-2.4533,-2.4554,-2.453,-2.4472,-2.4339,-2.419,-2.419,-2.4113,-2.4065,-2.3987,-2.3917,-2.375,-2.3394,-2.3084,-2.2703,-2.2332,-2.1827,-2.1471,-2.1276,-2.0844,-2.0494,-2.0339,-2.0304,-2.015,-1.9731,-1.9249,-1.8856,-1.8601,-1.7736,-1.7107,-1.6879,-1.652,-1.6276,-1.6006,-1.5986,-1.5426,-1.5503,-1.5092,-1.4833,-1.4375,-1.4276,-1.4242,-1.4072,-1.404,-1.4033,-1.3822,-1.3668,-1.3636,-1.3873,-1.3904,-1.4107,-1.416,-1.4097,-1.4212,-1.3925,-1.3457,-1.3663,-1.3557,-1.3357,-1.3695,-1.4206,-1.4577,-1.4269,-1.4582,-1.5517,-1.5896,-1.6058,-1.6164,-1.6587,-1.6834,-1.6918,-1.7201,-1.7332,-1.7194,-1.7021,-1.6794,-1.6718,-1.6929,-1.6957,-1.6833,-1.7425,-1.8047,-1.8647,-1.9093,-1.9149,-1.8931,-1.9593,-1.9673,-1.9157,-2.0571,-2.1726,-2.2195,-2.2331,-2.2911,-2.3942,-2.3405,-2.303,-2.2931,-2.2799,-2.2597,-2.2479,-2.2668,-2.2927,-2.3157,-2.3441,-2.3671,-2.3756,-2.3866,-2.4025,-2.4146,-2.4431,-2.4636,-2.4757,-2.4707,-2.4729,-2.4731,-2.4725,-2.4698,-2.4704,-2.4536,-2.4383,-2.4348,-2.4284,-2.4191,-2.4114,-2.4027,-2.3813,-2.3508,-2.3109,-2.2747,-2.2451,-2.2073,-2.1667,-2.1354,-2.0869,-2.0613,-2.0365,-2.0073,-1.9905,-1.9451,-1.8864,-1.8407,-1.8074,-1.7324,-1.6949,-1.6671,-1.6208,-1.5499,-1.511,-1.4905,-1.4801,-1.4795,-1.4639,-1.4456,-1.4315,-1.4223,-1.404,-1.3841,-1.3874,-1.3908,-1.3628,-1.3323,-1.3301,-1.2622,-1.2349,-1.2569,-1.2545,-1.236,-1.2594,-1.2578,-1.2569,-1.2618,-1.2745,-1.2779,-1.2866,-1.3208,-1.3409,-1.3399,-1.3462,-1.3732,-1.3899,-1.4138,-1.4525,-1.5383,-1.5808,-1.5909,-1.6336,-1.6478,-1.6275,-1.5567,-1.5466,-1.5935,-1.6333,-1.6584,-1.6968,-1.7518,-1.7724,-1.7844,-1.7803,-1.7545,-1.7353,-1.8186,-1.8018,-1.6862,-1.8836,-2.0209,-2.0544,-2.1394,-2.2617,-2.4152,-2.3958,-2.3677,-2.3448,-2.3045,-2.2729,-2.279,-2.3001,-2.3182,-2.3357,-2.3571,-2.3683,-2.3726,-2.408,-2.4316,-2.4383,-2.461,-2.483,-2.4912,-2.4874,-2.4814,-2.4804,-2.4799,-2.477,-2.4827,-2.4804,-2.4766,-2.4713,-2.4552,-2.4434,-2.4302,-2.4181,-2.3944,-2.3585,-2.3245,-2.2994,-2.279,-2.2489,-2.2093,-2.1493,-2.1175,-2.0885,-2.0402,-1.9919,-1.9573,-1.9321,-1.8819,-1.8242,-1.7651,-1.7134,-1.7142,-1.7018,-1.6501,-1.5957,-1.5874,-1.5688,-1.5584,-1.5528,-1.4985,-1.4742,-1.4185,-1.4072,-1.3794,-1.3634,-1.3708,-1.3674,-1.3397,-1.3088,-1.306,-1.1701,-1.1683,-1.2008,-1.2107,-1.207,-1.2363,-1.2328,-1.2121,-1.2377,-1.2372,-1.2304,-1.2623,-1.2919,-1.2914,-1.256,-1.2365,-1.2458,-1.1994,-1.2483,-1.3868,-1.4485,-1.4703,-1.4824,-1.5045,-1.5225,-1.5287,-1.5181,-1.5187,-1.535,-1.5599,-1.5764,-1.5846,-1.5941,-1.617,-1.634,-1.6199,-1.5966,-1.5909,-1.6459,-1.6559,-1.6292,-1.7291,-1.8563,-2.0138,-2.0955,-2.2127,-2.3678,-2.3869,-2.3855,-2.3773,-2.362,-2.3481,-2.3446,-2.3566,-2.3674,-2.3729,-2.4108,-2.4328,-2.4336,-2.4544,-2.4714,-2.4788,-2.4879,-2.501,-2.5145,-2.5106,-2.5096,-2.5145,-2.5183,-2.5192,-2.5204,-2.5214,-2.5101,-2.4875,-2.4728,-2.4611,-2.4472,-2.4275,-2.3987,-2.3658,-2.3312,-2.3001,-2.2721,-2.2462,-2.2007,-2.1471,-2.1151,-2.0811,-2.0376,-2.0058,-1.9788,-1.9435,-1.8762,-1.8324,-1.8013,-1.7739,-1.7609,-1.7468,-1.7001,-1.6572,-1.6475,-1.6387,-1.6307,-1.5935,-1.5427,-1.4832,-1.4302,-1.3914,-1.3651,-1.3354,-1.3335,-1.3198,-1.3019,-1.2879,-1.2809,-1.1145,-1.1082,-1.1418,-1.1514,-1.1434,-1.1547,-1.1506,-1.1372,-1.1541,-1.1431,-1.12,-1.1606,-1.1796,-1.1715,-1.1312,-1.1216,-1.1262,-1.0762,-1.1308,-1.2633,-1.3173,-1.3321,-1.3464,-1.3585,-1.3779,-1.3998,-1.3993,-1.4009,-1.4118,-1.437,-1.4538,-1.4532,-1.4391,-1.4438,-1.4598,-1.4348,-1.4206,-1.4246,-1.4474,-1.4507,-1.453,-1.5332,-1.6432,-1.7592,-1.8855,-2.0458,-2.2168,-2.2694,-2.3334,-2.4,-2.4185,-2.4109,-2.3969,-2.4081,-2.4182,-2.419,-2.446,-2.47,-2.4662,-2.4863,-2.5031,-2.5098,-2.5091,-2.5149,-2.5295,-2.5319,-2.5357,-2.5374,-2.5385,-2.5425,-2.5427,-2.5432,-2.5335,-2.5182,-2.5023,-2.4858,-2.4665,-2.4405,-2.4145,-2.3899,-2.3655,-2.3339,-2.2968,-2.2616,-2.2116,-2.1688,-2.1247,-2.0868,-2.0504,-2.011,-1.9772,-1.9348,-1.8841,-1.8586,-1.8571,-1.8358,-1.8082,-1.7862,-1.754,-1.7202,-1.6975,-1.6871,-1.6727,-1.6121,-1.5576,-1.4891,-1.4316,-1.3968,-1.3676,-1.3372,-1.3045,-1.2996,-1.2885,-1.2579,-1.2437,-1.0744,-1.0348,-1.0612,-1.0608,-1.0403,-1.0178,-1.023,-1.0352,-1.0288,-1.007,-0.9892,-1.0221,-1.0169,-0.9972,-1.006,-1.0119,-1.0163,-1.021,-1.0265,-1.0754,-1.1236,-1.163,-1.1998,-1.2181,-1.2327,-1.2395,-1.2199,-1.2169,-1.2482,-1.2836,-1.312,-1.308,-1.2924,-1.2905,-1.2623,-1.2325,-1.205,-1.205,-1.2161,-1.1701,-1.1028,-1.275,-1.3737,-1.3352,-1.5383,-1.7535,-1.95,-2.0806,-2.2417,-2.4317,-2.4591,-2.4475,-2.4401,-2.4573,-2.4632,-2.4544,-2.4789,-2.4841,-2.4839,-2.5043,-2.5224,-2.5282,-2.5276,-2.5276,-2.5408,-2.5484,-2.5489,-2.5439,-2.5436,-2.545,-2.5493,-2.5508,-2.5514,-2.5558,-2.536,-2.5113,-2.477,-2.4604,-2.4388,-2.421,-2.4095,-2.3926,-2.3477,-2.3188,-2.2704,-2.2147,-2.1582,-2.1182,-2.0624,-2.011,-1.963,-1.9268,-1.8943,-1.8695,-1.8612,-1.8271,-1.8014,-1.7743,-1.7503,-1.7277,-1.7096,-1.6977,-1.6835,-1.6236,-1.5533,-1.4867,-1.4442,-1.4076,-1.3667,-1.3246,-1.3057,-1.2959,-1.2668,-1.233,-1.2066,-0.9044,-0.8942,-0.9249,-0.935,-0.9402,-0.951,-0.9669,-0.9773,-0.9788,-0.9632,-0.9621,-0.9736,-0.9732,-0.9766,-0.9354,-0.9364,-0.9402,-0.9183,-0.9194,-0.935,-0.911,-0.9875,-1.0754,-1.1107,-1.1048,-1.0893,-1.0939,-1.0986,-1.1099,-1.1336,-1.1472,-1.1418,-1.0873,-1.0559,-1.0475,-0.9906,-0.9592,-0.9585,-0.9307,-0.9146,-0.894,-0.9362,-1.0113,-1.0963,-1.2227,-1.4169,-1.6526,-1.9159,-2.1819,-2.4264,-2.4437,-2.4511,-2.46,-2.4768,-2.4842,-2.492,-2.5059,-2.5146,-2.5119,-2.5265,-2.5416,-2.5455,-2.5436,-2.5544,-2.5605,-2.5633,-2.5615,-2.5558,-2.5541,-2.553,-2.5566,-2.5569,-2.5591,-2.5642,-2.5478,-2.5277,-2.5075,-2.483,-2.4607,-2.4522,-2.4136,-2.3869,-2.3689,-2.3321,-2.2832,-2.2141,-2.169,-2.1256,-2.0606,-2.0058,-1.9585,-1.9486,-1.9236,-1.8874,-1.8552,-1.8192,-1.7894,-1.7524,-1.7259,-1.7009,-1.6844,-1.6655,-1.6514,-1.62,-1.5249,-1.451,-1.4386,-1.4186,-1.3672,-1.2942,-1.2661,-1.2401,-1.2228,-1.1962,-1.1737,-0.8368,-0.8421,-0.8573,-0.8725,-0.8873,-0.8817,-0.8922,-0.9089,-0.8991,-0.889,-0.8886,-0.8893,-0.8827,-0.8662,-0.8412,-0.819,-0.8131,-0.7975,-0.7984,-0.8034,-0.7922,-0.8439,-0.9322,-0.9688,-0.9743,-0.9629,-0.9729,-0.9765,-0.9754,-1.0029,-0.9912,-0.9475,-0.9016,-0.8763,-0.86,-0.7979,-0.7558,-0.7553,-0.7326,-0.7102,-0.6724,-0.6913,-0.7396,-0.8222,-0.9089,-1.0689,-1.3418,-1.6754,-1.993,-2.228,-2.3321,-2.3839,-2.433,-2.4466,-2.4629,-2.4871,-2.5078,-2.5154,-2.516,-2.5269,-2.5349,-2.5382,-2.5447,-2.5444,-2.5398,-2.5382,-2.5333,-2.5332,-2.5361,-2.5383,-2.54,-2.5412,-2.5465,-2.5491,-2.5443,-2.5365,-2.5273,-2.5101,-2.4913,-2.471,-2.44,-2.4081,-2.4042,-2.3539,-2.3012,-2.2486,-2.2017,-2.1308,-2.0488,-1.9999,-1.9375,-1.8951,-1.8417,-1.78,-1.7173,-1.677,-1.6447,-1.623,-1.5992,-1.5917,-1.5969,-1.5844,-1.5724,-1.5348,-1.4725,-1.428,-1.404,-1.3676,-1.2946,-1.2347,-1.2073,-1.1887,-1.1748,-1.1394,-1.1207,-0.8096,-0.8096,-0.8096,-0.8196,-0.8287,-0.7903,-0.7803,-0.814,-0.783,-0.7676,-0.7676,-0.7732,-0.7509,-0.7031,-0.7235,-0.6958,-0.6519,-0.6904,-0.6851,-0.6904,-0.6956,-0.7382,-0.7481,-0.8187,-0.8399,-0.8442,-0.8508,-0.8274,-0.8146,-0.8639,-0.8429,-0.777,-0.7614,-0.725,-0.6822,-0.635,-0.5975,-0.5695,-0.5627,-0.5354,-0.4969,-0.5161,-0.5466,-0.5797,-0.671,-0.8028,-1.0663,-1.3783,-1.6909,-1.9503,-2.1312,-2.2321,-2.3048,-2.3236,-2.3592,-2.4005,-2.4215,-2.4508,-2.4703,-2.4636,-2.4874,-2.4914,-2.5082,-2.5149,-2.4988,-2.4848,-2.4819,-2.5086,-2.5001,-2.4907,-2.4902,-2.4989,-2.5027,-2.5033,-2.5146,-2.5214,-2.5223,-2.525,-2.521,-2.4975,-2.4816,-2.4662,-2.4379,-2.3941,-2.3392,-2.2904,-2.2288,-2.1249,-2.0219,-1.9322,-1.8448,-1.758,-1.6998,-1.6391,-1.5767,-1.5196,-1.4826,-1.4541,-1.421,-1.4098,-1.4375,-1.4392,-1.4473,-1.4304,-1.3966,-1.3643,-1.3322,-1.2805,-1.2141,-1.1937,-1.1783,-1.1555,-1.1324,-1.0781,-1.0442,-0.5984,-0.593,-0.5987,-0.6088,-0.6187,-0.6077,-0.619,-0.6473,-0.6473,-0.648,-0.647,-0.6532,-0.6534,-0.6372,-0.6426,-0.6418,-0.6308,-0.6418,-0.6369,-0.5867,-0.6143,-0.5821,-0.5764,-0.6689,-0.7176,-0.6958,-0.6899,-0.6676,-0.6401,-0.6568,-0.6519,-0.6345,-0.5964,-0.5538,-0.5212,-0.4721,-0.4174,-0.3782,-0.35,-0.3448,-0.3398,-0.3388,-0.366,-0.4003,-0.5454,-0.6376,-0.7431,-1.0534,-1.269,-1.4105,-1.6895,-1.9166,-1.9976,-2.0718,-2.1246,-2.1685,-2.2381,-2.2887,-2.3098,-2.3299,-2.3612,-2.3895,-2.4163,-2.4627,-2.465,-2.4125,-2.4312,-2.4695,-2.4495,-2.4039,-2.4053,-2.4186,-2.4192,-2.4185,-2.42,-2.4102,-2.4038,-2.4678,-2.5105,-2.5077,-2.4923,-2.4797,-2.4652,-2.4409,-2.391,-2.3367,-2.2089,-2.1104,-1.9532,-1.7823,-1.5977,-1.4106,-1.4622,-1.3867,-1.3443,-1.2853,-1.2399,-1.2058,-1.1819,-1.1825,-1.2126,-1.2465,-1.2402,-1.2839,-1.3394,-1.2904,-1.2047,-1.2081,-1.1444,-1.1466,-1.1223,-1.0777,-1.0292,-0.9923,-0.9577,-0.5332,-0.5332,-0.5332,-0.5332,-0.5384,-0.5384,-0.5494,-0.5666,-0.5745,-0.585,-0.5932,-0.6039,-0.593,-0.5714,-0.5716,-0.5714,-0.5498,-0.5443,-0.5169,-0.478,-0.5058,-0.5013,-0.4679,-0.5158,-0.5479,-0.5599,-0.5817,-0.5544,-0.5277,-0.533,-0.5376,-0.4661,-0.461,-0.433,-0.3783,-0.3403,-0.3125,-0.2735,-0.2288,-0.2066,-0.2066,-0.1788,-0.19,-0.268,-0.4213,-0.5138,-0.5012,-0.7584,-0.8945,-0.9813,-1.2083,-1.5082,-1.7135,-1.819,-1.8752,-1.9313,-2.0332,-2.0967,-2.1233,-2.1572,-2.1955,-2.2236,-2.2459,-2.2558,-2.2668,-2.2418,-2.2554,-2.2877,-2.277,-2.2636,-2.2797,-2.2833,-2.2884,-2.2967,-2.3031,-2.2922,-2.2721,-2.3686,-2.4564,-2.4512,-2.4494,-2.4556,-2.4534,-2.3143,-2.301,-2.188,-1.7148,-1.5887,-1.3941,-1.2234,-1.0481,-0.9519,-1.0848,-1.1151,-1.0872,-1.0345,-0.9762,-0.9325,-0.8877,-0.9002,-0.9257,-0.9708,-1.0096,-1.0739,-1.1386,-1.0883,-1.0184,-1.0363,-1.0243,-0.9613,-0.9217,-0.9222,-0.9085,-0.8597,-0.8395,-0.4948,-0.495,-0.5003,-0.5007,-0.5003,-0.5005,-0.5056,-0.5171,-0.5219,-0.5207,-0.5449,-0.5546,-0.505,-0.4889,-0.4723,-0.4562,-0.4293,-0.4132,-0.3906,-0.3624,-0.4019,-0.4076,-0.3961,-0.384,-0.3944,-0.4664,-0.4999,-0.4785,-0.4508,-0.4668,-0.4114,-0.3178,-0.3452,-0.3282,-0.2565,-0.2457,-0.2348,-0.1903,-0.151,-0.1342,-0.123,-0.0783,-0.1007,-0.1787,-0.3004,-0.3725,-0.3782,-0.5379,-0.6506,-0.6218,-0.7353,-1.023,-1.3236,-1.5502,-1.6138,-1.6705,-1.7769,-1.8572,-1.8918,-1.9379,-1.9783,-2.0104,-2.0215,-2.0302,-2.0447,-2.0587,-2.0722,-2.0796,-2.0879,-2.0879,-2.1065,-2.0923,-2.0963,-2.1069,-2.1388,-2.1292,-2.1109,-2.2064,-2.2374,-2.2999,-2.2377,-2.2,-2.0826,-1.9444,-2.0038,-1.9343,-1.4239,-1.0364,-0.8363,-0.6523,-0.4712,-0.4196,-0.5321,-0.6127,-0.5982,-0.5925,-0.5596,-0.5286,-0.5045,-0.5339,-0.552,-0.5324,-0.5794,-0.8319,-0.8958,-0.8415,-0.8156,-0.815,-0.7893,-0.7366,-0.7355,-0.7573,-0.7457,-0.7234,-0.7007,-0.3461,-0.3462,-0.3631,-0.3744,-0.3745,-0.3858,-0.3856,-0.3914,-0.4033,-0.4086,-0.4073,-0.3735,-0.368,-0.3515,-0.2954,-0.2843,-0.3071,-0.3072,-0.2961,-0.2791,-0.3073,-0.3129,-0.2738,-0.2737,-0.2737,-0.2903,-0.3566,-0.3734,-0.3236,-0.3069,-0.2901,-0.2348,-0.2347,-0.2067,-0.1731,-0.162,-0.1566,-0.1177,-0.0728,-0.0616,-0.0728,-0.0784,-0.0951,-0.151,-0.2397,-0.251,-0.2679,-0.3995,-0.5087,-0.4918,-0.5894,-0.7006,-0.8677,-1.1002,-1.2442,-1.3289,-1.4431,-1.5531,-1.62,-1.6612,-1.7386,-1.8205,-1.852,-1.8897,-1.9209,-1.9246,-1.9053,-1.9303,-1.9136,-1.8954,-1.8774,-1.8542,-1.8441,-1.8484,-1.8608,-1.8287,-1.7899,-1.7818,-1.7911,-1.7687,-1.7979,-1.7483,-1.4872,-1.2676,-1.1779,-0.9868,-0.5584,-0.3163,-0.1983,-0.0331,0.1253,0.1178,0.0509,-0.0175,-0.0569,-0.065,-0.054,-0.0192,-0.0078,-0.0443,-0.0485,-0.0163,-0.1222,-0.3452,-0.5508,-0.6035,-0.5887,-0.5705,-0.5638,-0.5201,-0.5521,-0.5885,-0.53,-0.4726,-0.5042,-0.2906,-0.2629,-0.2742,-0.2574,-0.2347,-0.2513,-0.257,-0.2571,-0.2686,-0.274,-0.2739,-0.2628,-0.2571,-0.2571,-0.24,-0.2233,-0.2179,-0.2347,-0.2237,-0.2014,-0.2181,-0.2124,-0.1678,-0.1734,-0.1622,-0.1677,-0.2175,-0.251,-0.2178,-0.2235,-0.1902,-0.1568,-0.1457,-0.1288,-0.1008,-0.1064,-0.1008,-0.0673,-0.0224,0.0,-0.0224,-0.0224,-0.0559,-0.123,-0.1509,-0.162,-0.1955,-0.2173,-0.3056,-0.3444,-0.3993,-0.4486,-0.5493,-0.6905,-0.8902,-1.0035,-1.1323,-1.241,-1.3366,-1.3882,-1.48,-1.5495,-1.5956,-1.6344,-1.6675,-1.6694,-1.6811,-1.6804,-1.6547,-1.6119,-1.6045,-1.5753,-1.598,-1.6053,-1.5762,-1.4081,-1.2125,-1.1244,-1.0288,-0.9845,-1.0466,-0.9178,-0.6044,-0.4185,-0.2907,-0.0134,0.3426,0.4415,0.4809,0.608,0.7605,0.6784,0.61,0.493,0.4402,0.4218,0.4332,0.4714,0.4681,0.4309,0.4098,0.4273,0.3526,0.1955,-0.004,-0.1777,-0.2533,-0.1951,-0.2476,-0.2958,-0.2967,-0.2839,-0.2494,-0.2323,-0.2489,-0.2403,-0.1958,-0.1959,-0.1679,-0.1341,-0.1506,-0.1619,-0.1566,-0.1792,-0.1847,-0.1679,-0.1734,-0.1792,-0.1791,-0.1732,-0.162,-0.1343,-0.1511,-0.1344,-0.1177,-0.1457,-0.1399,-0.0951,-0.0559,-0.0391,-0.0671,-0.0838,-0.1006,-0.1286,-0.1454,-0.1176,-0.0785,-0.0785,-0.0673,-0.0392,-0.0336,-0.0561,-0.0393,0.0168,0.056,0.0392,0.0504,0.028,-0.0617,-0.0559,-0.0783,-0.1287,-0.1284,-0.1618,-0.2065,-0.2399,-0.2563,-0.317,-0.416,-0.5569,-0.7209,-0.8676,-0.9762,-1.0677,-1.159,-1.2484,-1.3242,-1.3261,-1.3512,-1.3736,-1.3917,-1.3822,-1.3657,-1.3403,-1.2242,-1.1446,-1.1522,-1.0759,-0.9534,-0.9184,-0.8663,-0.4744,-0.2168,0.037,0.0,-0.186,-0.0432,0.3129,0.5204,0.6661,0.8895,1.2333,1.1863,1.228,1.2953,1.3712,1.2678,1.1602,1.0038,0.9282,0.895,0.9123,0.9504,0.9246,0.8853,0.8607,0.8463,0.7573,0.6828,0.5964,0.4349,0.3167,0.1691,0.1255,0.0837,0.0343,0.0258,0.0765,0.0851,0.0725,-0.1117,-0.1062,-0.1174,-0.1174,-0.1118,-0.1397,-0.1453,-0.1342,-0.1569,-0.1624,-0.1231,-0.1064,-0.0953,-0.0897,-0.0728,-0.056,-0.0392,-0.028,-0.0224,-0.0224,-0.0672,-0.0672,0.0,0.1065,0.0728,0.0336,0.0112,-0.0168,-0.0448,-0.056,-0.0336,0.0056,0.0,0.0112,0.0168,0.028,0.0336,0.028,0.0951,0.1007,0.0392,0.0561,0.0336,0.0,0.0056,0.0056,-0.0448,-0.0503,-0.0838,-0.1285,-0.1341,-0.1397,-0.1675,-0.2343,-0.3171,-0.4588,-0.6257,-0.8143,-0.8899,-0.9669,-1.0436,-1.1081,-1.1221,-1.1204,-1.1492,-1.1487,-1.1429,-1.1617,-1.0902,-0.8793,-0.5863,-0.4131,-0.1481,0.0216,0.0721,0.18,0.4359,0.4892,0.7708,1.1168,0.9746,1.0651,1.2988,1.4691,1.643,1.877,2.0258,1.9293,1.849,1.8132,1.772,1.6206,1.5348,1.3922,1.3193,1.2983,1.3045,1.3657,1.3219,1.2831,1.2588,1.223,1.2323,1.161,1.0776,0.9506,0.7585,0.6162,0.5344,0.452,0.3839,0.3823,0.4094,0.4035,0.3716,0.0,-0.0392,-0.0448,-0.028,0.0,-0.0224,-0.028,-0.0224,-0.0448,-0.0448,-0.028,0.0056,0.0336,0.0504,0.0448,0.0504,0.0783,0.084,0.084,0.0672,0.0224,0.0224,0.0895,0.1458,0.1459,0.1178,0.0897,0.0785,0.0505,0.0336,0.0336,0.0393,0.0392,0.0448,0.0728,0.0785,0.0897,0.1064,0.1342,0.1342,0.112,0.1121,0.1009,0.0449,0.0841,0.0673,0.0336,0.0392,0.0112,-0.028,-0.0392,-0.0448,-0.0783,-0.1565,-0.2457,-0.2901,-0.4548,-0.6013,-0.6977,-0.7726,-0.8557,-0.9068,-0.9309,-0.9607,-0.9807,-0.9478,-0.9387,-0.9944,-0.6594,-0.3563,-0.0814,0.1595,0.3989,0.6269,0.8361,1.0065,1.1154,1.22,1.4047,1.7954,2.097,2.0019,1.9439,2.0183,2.0561,2.1164,2.1894,2.1011,2.013,1.9466,1.9037,1.841,1.7816,1.7232,1.6733,1.6392,1.6126,1.6353,1.5854,1.5647,1.5925,1.588,1.5468,1.5214,1.4418,1.3028,1.1535,0.9893,0.8372,0.7732,0.7269,0.7269,0.7198,0.6578,0.6309,0.0841,0.0336,0.0224,0.0505,0.0897,0.0897,0.0841,0.0729,0.084,0.0784,0.0897,0.1232,0.1623,0.1734,0.14,0.1344,0.1677,0.1734,0.1677,0.1453,0.1342,0.1454,0.1791,0.2074,0.202,0.174,0.1569,0.1513,0.1512,0.1344,0.1064,0.0841,0.1063,0.1174,0.1398,0.1567,0.1736,0.2069,0.1845,0.1733,0.1623,0.168,0.1457,0.129,0.1347,0.1291,0.0785,0.1009,0.0953,0.0449,0.0393,0.028,0.0,-0.0895,-0.1679,-0.2236,-0.3452,-0.445,-0.5376,-0.619,-0.6722,-0.7253,-0.7214,-0.7313,-0.5667,-0.6037,-0.4742,-0.3392,-0.0505,0.2305,0.4534,0.8228,1.0849,1.2415,1.3365,1.5437,1.7179,1.7758,1.8627,2.1192,2.3511,2.4217,2.3985,2.4624,2.4652,2.4097,2.3496,2.2567,2.1422,2.0253,1.9812,1.9223,1.8977,1.8662,1.8556,1.8503,1.8673,1.8555,1.8038,1.7805,1.7702,1.7669,1.7322,1.7247,1.7088,1.6369,1.4716,1.2971,1.1365,1.0994,1.0696,1.0381,1.0074,0.9396,0.8924,0.1235,0.1178,0.0953,0.0897,0.0953,0.1344,0.1288,0.1121,0.1732,0.1899,0.179,0.2122,0.2233,0.2178,0.2124,0.2013,0.2231,0.218,0.2291,0.2516,0.2632,0.2576,0.2689,0.2689,0.2689,0.2296,0.2238,0.2348,0.2402,0.2457,0.2179,0.1958,0.2011,0.2233,0.2457,0.2627,0.2853,0.2906,0.2569,0.2179,0.2013,0.1902,0.1679,0.1679,0.1682,0.1572,0.1122,0.1403,0.1347,0.0785,0.0897,0.0841,0.0504,-0.0224,-0.0896,-0.1622,-0.2402,-0.3347,-0.4122,-0.4948,-0.5764,-0.631,-0.5705,-0.3896,-0.1196,0.0616,0.2941,0.5576,0.6862,0.9968,1.3031,1.6502,1.7873,1.903,1.9414,2.0424,2.1928,2.2635,2.3582,2.4966,2.5532,2.5556,2.5599,2.5564,2.5424,2.4788,2.3472,2.2519,2.1183,2.0115,1.9992,1.9677,1.9525,1.9365,1.9323,1.927,1.9084,1.9006,1.8723,1.8688,1.873,1.8706,1.8511,1.8362,1.8058,1.8011,1.7766,1.5769,1.4393,1.4326,1.395,1.2991,1.239,1.1805,1.1522,0.2235,0.2514,0.2345,0.2012,0.1568,0.1679,0.1846,0.2014,0.2347,0.2626,0.274,0.2625,0.279,0.3071,0.285,0.2905,0.3236,0.3296,0.3296,0.3298,0.3357,0.3192,0.3192,0.3299,0.3352,0.3014,0.307,0.3236,0.3399,0.3512,0.3681,0.3515,0.3124,0.3071,0.3296,0.3576,0.3747,0.3633,0.335,0.3015,0.2796,0.2571,0.2349,0.2296,0.2297,0.2187,0.185,0.1906,0.1626,0.1403,0.1347,0.1178,0.0897,0.028,-0.028,-0.0896,-0.1733,-0.2347,-0.3019,-0.3849,-0.4622,-0.4066,-0.239,0.0506,0.3275,0.4899,0.6824,0.9408,1.2538,1.5728,1.6354,1.9903,2.2891,2.4605,2.5273,2.5331,2.539,2.5464,2.5499,2.5541,2.5585,2.5615,2.5654,2.5684,2.5511,2.5172,2.3779,2.2414,2.1138,2.0127,2.0021,1.9933,1.9783,1.9654,1.9601,1.9488,1.9379,1.9374,1.936,1.9345,1.9336,1.9286,1.9127,1.9031,1.8886,1.8645,1.8301,1.7808,1.7038,1.61,1.5448,1.4817,1.4377,1.3987,1.3656,0.3067,0.3343,0.323,0.2843,0.2346,0.2402,0.2568,0.2845,0.3234,0.3516,0.3745,0.3349,0.3459,0.3909,0.3688,0.3685,0.3964,0.3967,0.391,0.3856,0.3747,0.3691,0.3798,0.3959,0.4122,0.3949,0.4006,0.4228,0.4553,0.4622,0.4734,0.4565,0.4125,0.4018,0.4016,0.4298,0.4301,0.4132,0.3962,0.3741,0.3579,0.3188,0.302,0.2857,0.2746,0.2578,0.2298,0.2185,0.2017,0.1738,0.1626,0.1403,0.1066,0.0673,0.0168,-0.0392,-0.0952,-0.1567,-0.2238,-0.3073,-0.3051,-0.1217,0.0614,0.3772,0.7111,1.0196,1.2615,1.5206,1.8007,1.9568,1.9577,2.2841,2.4486,2.5322,2.5379,2.544,2.5483,2.5541,2.5565,2.5595,2.5629,2.5658,2.5668,2.5652,2.534,2.4958,2.3811,2.2535,2.1403,2.0541,2.0095,2.0031,1.9963,1.9858,1.976,1.98,1.9841,1.9828,1.9804,1.9731,1.9701,1.9641,1.9564,1.9385,1.9246,1.9132,1.885,1.8492,1.7921,1.7246,1.6643,1.6068,1.5849,1.5426,1.4979,0.3627,0.3569,0.3456,0.3288,0.323,0.3676,0.3619,0.3398,0.4231,0.4625,0.4575,0.4462,0.446,0.4462,0.4189,0.4244,0.4351,0.4189,0.4133,0.4244,0.4241,0.4351,0.4679,0.4895,0.4997,0.5154,0.5158,0.5324,0.5701,0.5389,0.5557,0.5668,0.5232,0.4851,0.4899,0.4846,0.4737,0.4517,0.446,0.4241,0.3965,0.3634,0.3467,0.3302,0.3079,0.2856,0.2745,0.2463,0.2295,0.2073,0.1794,0.157,0.1346,0.0953,0.0448,-0.0112,-0.056,-0.1232,-0.1958,-0.2842,-0.0612,0.3099,0.5415,0.8299,1.4571,1.7688,1.8705,2.0819,2.3453,2.4315,2.4859,2.5062,2.5284,2.5407,2.5451,2.5484,2.5524,2.5583,2.5594,2.5591,2.5645,2.5697,2.5697,2.5596,2.5209,2.4608,2.3666,2.2613,2.1507,2.081,2.0251,2.0267,2.0231,2.0145,2.0115,2.025,2.0313,2.0282,2.0145,1.9959,1.9896,1.9828,1.9757,1.9673,1.9554,1.9405,1.9329,1.923,1.8664,1.8135,1.7683,1.7227,1.7069,1.6724,1.6158,0.4677,0.5071,0.5011,0.4899,0.4787,0.4229,0.4064,0.4341,0.4732,0.4846,0.4847,0.4846,0.4791,0.4736,0.4682,0.4629,0.4631,0.468,0.4682,0.4785,0.4838,0.5117,0.5445,0.5767,0.5923,0.6032,0.6091,0.6312,0.6637,0.6211,0.6107,0.622,0.5952,0.5458,0.5124,0.4958,0.4847,0.4847,0.4791,0.4625,0.4351,0.4187,0.3967,0.3802,0.3522,0.3356,0.3135,0.2853,0.2686,0.2464,0.2186,0.1906,0.1681,0.1289,0.0897,0.0448,0.0,-0.0672,-0.0488,0.0309,0.4168,0.7978,1.128,1.3782,1.7994,2.1389,2.3526,2.4693,2.5245,2.5312,2.5293,2.5226,2.5341,2.5395,2.5447,2.5463,2.549,2.5564,2.5595,2.5576,2.5595,2.5665,2.5699,2.5654,2.5322,2.4757,2.3915,2.2601,2.1419,2.0827,2.0306,2.0502,2.0558,2.0468,2.0488,2.0866,2.0668,2.0412,2.0193,1.9938,1.9907,1.9961,1.9909,1.9811,1.9738,1.9673,1.9595,1.9504,1.939,1.9031,1.851,1.8102,1.7838,1.7503,1.7052,0.5493,0.5881,0.5821,0.5835,0.5761,0.4978,0.4844,0.5119,0.512,0.5067,0.5014,0.5014,0.4958,0.4956,0.4901,0.5064,0.5067,0.5175,0.5445,0.5546,0.5712,0.6041,0.6364,0.6632,0.6897,0.7009,0.7125,0.7295,0.7405,0.7139,0.6871,0.6549,0.6337,0.6114,0.5784,0.5563,0.5181,0.5181,0.5016,0.4903,0.4682,0.4519,0.441,0.4187,0.4021,0.3801,0.358,0.3356,0.3132,0.2911,0.2632,0.2352,0.2073,0.1793,0.1402,0.0952,0.0168,0.1066,0.3852,0.5509,1.0129,1.6063,1.8064,1.9092,2.0497,2.3392,2.4446,2.5205,2.5223,2.5283,2.5351,2.5322,2.5359,2.5429,2.5451,2.5466,2.5488,2.5561,2.5601,2.557,2.56,2.5661,2.5685,2.5614,2.5474,2.4852,2.4198,2.291,2.1744,2.1302,2.1001,2.1183,2.1417,2.1512,2.1585,2.173,2.1368,2.0623,2.0479,2.045,2.0021,2.0078,2.0022,1.9981,1.9952,1.9903,1.9818,1.9731,1.9776,1.962,1.9215,1.8862,1.861,1.8217,1.7811,0.5905,0.6092,0.5925,0.5956,0.6076,0.581,0.5686,0.5635,0.5629,0.5403,0.5179,0.5297,0.5238,0.5009,0.5009,0.5336,0.5769,0.5825,0.6204,0.6477,0.6635,0.7012,0.7334,0.7545,0.7762,0.8034,0.8096,0.7937,0.8112,0.7619,0.719,0.7036,0.6871,0.6709,0.649,0.622,0.5784,0.5677,0.5456,0.5342,0.5122,0.4904,0.4794,0.4627,0.4353,0.4189,0.3968,0.3745,0.3524,0.3303,0.308,0.2856,0.2633,0.2409,0.1903,0.1174,0.0112,0.381,0.8422,0.982,1.4659,1.9403,2.0219,2.181,2.3353,2.4774,2.5087,2.5273,2.5253,2.5303,2.5361,2.5387,2.543,2.5453,2.5473,2.5485,2.5499,2.555,2.5593,2.5615,2.5654,2.5698,2.5694,2.5635,2.5547,2.5214,2.4747,2.4492,2.34,2.2581,2.2336,2.2323,2.2547,2.2748,2.2782,2.2651,2.2333,2.1676,2.1557,2.1451,2.0893,2.0589,2.089,2.0907,2.0374,2.0283,2.0684,2.0596,2.0325,2.0144,2.0272,1.9597,1.9346,1.8875,1.849,0.6184,0.639,0.6149,0.6181,0.6315,0.6089,0.5914,0.5908,0.5801,0.5681,0.557,0.5629,0.5626,0.5567,0.5939,0.6095,0.6362,0.6738,0.7168,0.7439,0.7602,0.7925,0.8206,0.8384,0.8477,0.8546,0.85,0.8538,0.8394,0.8005,0.7744,0.7608,0.7472,0.7344,0.7163,0.6877,0.6665,0.6384,0.6161,0.5834,0.567,0.5561,0.5395,0.512,0.4741,0.4632,0.4517,0.4189,0.4078,0.4078,0.3907,0.3684,0.3192,0.2962,0.251,0.1734,0.1102,0.2226,0.736,1.0355,1.4557,2.048,2.1778,2.367,2.4906,2.5221,2.5221,2.5262,2.5273,2.5302,2.5351,2.5407,2.5433,2.5448,2.5461,2.5466,2.5478,2.5515,2.5564,2.5615,2.5655,2.5671,2.5673,2.5676,2.558,2.5398,2.5263,2.5158,2.4855,2.3966,2.3525,2.3502,2.357,2.3734,2.3537,2.3385,2.3121,2.2827,2.2656,2.2491,2.2159,2.1978,2.2104,2.1927,2.1515,2.1636,2.1991,2.1732,2.129,2.1685,2.1763,2.0835,2.0037,1.9721,1.9394,0.6625,0.6677,0.6573,0.6638,0.6772,0.6651,0.6629,0.6637,0.6128,0.5879,0.5894,0.5991,0.5959,0.5902,0.6433,0.6802,0.6897,0.7495,0.8034,0.8349,0.8508,0.8768,0.9015,0.9183,0.9289,0.9289,0.9285,0.9319,0.9044,0.8896,0.8699,0.8659,0.8349,0.8218,0.8078,0.7894,0.7718,0.7336,0.6918,0.6487,0.6324,0.6159,0.5884,0.5614,0.5236,0.5179,0.5179,0.4853,0.4741,0.4849,0.4734,0.451,0.4433,0.4551,0.4967,0.4557,0.4681,0.7006,1.1325,1.2905,1.6251,1.9882,2.3226,2.4313,2.4945,2.512,2.5209,2.5272,2.5262,2.5282,2.5341,2.5398,2.5416,2.5425,2.5432,2.5429,2.5447,2.5483,2.5525,2.5586,2.5621,2.5632,2.5645,2.5661,2.5644,2.5535,2.5488,2.5468,2.5317,2.489,2.4564,2.4508,2.4574,2.4658,2.4409,2.4178,2.3997,2.3787,2.3578,2.3413,2.3254,2.2986,2.2761,2.2743,2.2746,2.2825,2.2829,2.2661,2.2413,2.2765,2.2836,2.2061,2.135,2.1008,2.0685,0.7107,0.7117,0.7099,0.7211,0.7326,0.7433,0.7602,0.776,0.6805,0.6251,0.6353,0.6473,0.644,0.6544,0.713,0.7594,0.791,0.8394,0.8948,0.9306,0.9208,0.9436,0.9706,0.9944,0.9947,1.0225,1.0247,0.9921,0.9949,0.9761,0.9683,0.9836,0.9718,0.9519,0.9167,0.8925,0.8743,0.8619,0.7948,0.7321,0.6833,0.6534,0.6317,0.6159,0.6,0.5839,0.5852,0.5686,0.5405,0.5578,0.5721,0.5655,0.6318,0.6623,0.7241,0.7861,0.7865,1.1081,1.4061,1.5924,1.9081,2.2209,2.4771,2.479,2.4879,2.5,2.5075,2.5198,2.5209,2.5219,2.5271,2.5242,2.5243,2.5253,2.5244,2.5303,2.5364,2.5439,2.5546,2.5595,2.5609,2.5625,2.5625,2.5632,2.5629,2.5616,2.5613,2.5629,2.5576,2.5396,2.5314,2.5235,2.5221,2.5211,2.5245,2.5031,2.4934,2.4739,2.4467,2.4292,2.4122,2.3723,2.3271,2.3571,2.391,2.3547,2.3425,2.3433,2.3458,2.341,2.3379,2.3071,2.2686,2.2401,2.1835,0.7596,0.7918,0.792,0.7862,0.7744,0.7803,0.8139,0.8563,0.8217,0.7829,0.763,0.7485,0.7523,0.7716,0.8318,0.877,0.9102,0.9372,1.0015,1.0119,1.0026,0.997,1.0273,1.0333,1.0459,1.0408,1.0394,1.0513,1.0426,1.0464,1.0444,1.0329,1.0365,1.0318,1.0091,0.9906,0.9876,0.9837,0.9427,0.8527,0.782,0.7747,0.7723,0.7362,0.7104,0.7156,0.7107,0.7002,0.6897,0.7006,0.7549,0.7979,0.8607,0.8168,0.8816,0.9982,1.0303,1.3529,1.6341,1.8211,2.0149,2.2679,2.4468,2.4632,2.4727,2.4818,2.4915,2.5053,2.5132,2.5141,2.5141,2.5101,2.5082,2.5082,2.5096,2.5194,2.5293,2.5418,2.5556,2.5586,2.56,2.5604,2.5595,2.5599,2.5607,2.5601,2.5605,2.5619,2.5669,2.5573,2.5533,2.5492,2.5554,2.559,2.5681,2.5636,2.5393,2.5373,2.5173,2.5046,2.4929,2.4682,2.4421,2.4836,2.506,2.4595,2.4408,2.4676,2.4649,2.4322,2.4216,2.4033,2.4174,2.4012,2.3212,0.81,0.8218,0.8353,0.8345,0.8265,0.838,0.8693,0.9071,0.9317,0.9349,0.9237,0.887,0.8718,0.898,0.9552,0.985,1.0048,1.031,1.0424,1.0593,1.0597,1.0564,1.0638,1.0783,1.104,1.1005,1.1212,1.1334,1.1116,1.1376,1.1468,1.1274,1.1333,1.121,1.1066,1.1071,1.1111,1.1024,1.0868,1.0241,0.9238,0.9248,0.9107,0.8711,0.8675,0.8695,0.8646,0.8596,0.8905,0.927,0.9888,1.0309,1.095,1.1463,1.2182,1.3334,1.4322,1.5594,1.8288,1.9776,2.0474,2.2896,2.3958,2.4034,2.4273,2.4369,2.4595,2.4723,2.4869,2.4902,2.4938,2.4906,2.5003,2.505,2.5099,2.5169,2.5284,2.5406,2.5499,2.5538,2.5547,2.5549,2.5554,2.5554,2.555,2.555,2.5561,2.559,2.5637,2.568,2.567,2.5663,2.568,2.5688,2.5694,2.5684,2.5632,2.5668,2.5693,2.5538,2.5327,2.5512,2.5639,2.558,2.5539,2.5454,2.5392,2.5381,2.5332,2.4986,2.5014,2.5081,2.5233,2.5213,2.4465,0.8726,0.8658,0.8889,0.9026,0.91,0.9368,0.9675,0.9974,1.0461,1.0884,1.107,1.0576,1.0106,1.0125,1.0523,1.0572,1.0677,1.0972,1.1014,1.1062,1.0801,1.1044,1.1177,1.1154,1.1422,1.1802,1.2089,1.2093,1.1971,1.2192,1.2334,1.2513,1.2485,1.2442,1.2301,1.2329,1.2356,1.2163,1.2068,1.197,1.1447,1.091,1.0654,1.0488,1.0468,1.0372,1.0508,1.0752,1.1216,1.17,1.233,1.289,1.3415,1.4223,1.5449,1.6408,1.7383,1.9041,2.0953,2.1296,2.2202,2.3213,2.3307,2.3526,2.3801,2.3964,2.4183,2.4379,2.4522,2.4676,2.47,2.4751,2.4856,2.4983,2.5038,2.5153,2.5264,2.5385,2.5445,2.5495,2.55,2.5495,2.5495,2.5495,2.5502,2.5511,2.5515,2.5553,2.5586,2.5626,2.5634,2.5639,2.5652,2.5672,2.5681,2.5695,2.5701,2.5693,2.5695,2.5698,2.5696,2.5697,2.5701,2.5689,2.5664,2.5622,2.5581,2.5492,2.5459,2.5415,2.5386,2.5354,2.5367,2.533,2.5293,0.9646,1.0197,1.0431,1.0808,1.1236,1.137,1.1684,1.2135,1.2201,1.2577,1.2687,1.2806,1.2358,1.1559,1.1952,1.1989,1.1817,1.1848,1.2129,1.2356,1.1452,1.1636,1.1833,1.1644,1.172,1.2032,1.2376,1.2418,1.2428,1.2673,1.2768,1.2714,1.2768,1.2802,1.2869,1.3023,1.3348,1.3182,1.33,1.3282,1.3144,1.2703,1.2406,1.2477,1.2837,1.3131,1.3383,1.3495,1.3723,1.4131,1.4639,1.5449,1.5953,1.6417,1.7279,1.835,1.9416,2.0116,2.1126,2.1786,2.259,2.272,2.2925,2.3345,2.3495,2.3491,2.3711,2.3943,2.4118,2.4392,2.447,2.451,2.4598,2.4741,2.4818,2.5053,2.5221,2.5322,2.5414,2.5422,2.5429,2.5429,2.5429,2.5437,2.5453,2.5463,2.5472,2.5507,2.5537,2.5566,2.558,2.5599,2.5602,2.5622,2.5627,2.5683,2.5693,2.5702,2.5697,2.5696,2.5697,2.57,2.5702,2.5693,2.5664,2.5611,2.5581,2.5567,2.5527,2.5492,2.5479,2.546,2.5463,2.5464,2.5412]},{"header":{"parameterUnit":"m.s-1","parameterCategory":1,"la1":31.0,"la2":29.5877,"lo1":-88.7671,"lo2":-86.6584,"dy":0.0162,"dx":0.0185,"nx":115,"ny":88,"refTime":"2024-08-18T12:00:00:Z","depth":0,"parameterNumber":3,"parameterNumberName":"V-component_of_WINDS"},"data":[0.0,0.0,0.0,0.0,0.0,0.0,0.0,0.0,0.0,0.0,0.0,0.0,0.0,0.0,0.0,0.0,0.0,0.0,0.0,0.0,0.0,0.0,0.0,0.0,0.0,0.0,0.0,0.0,0.0,0.0,0.0,0.0,0.0,0.0,0.0,0.0,0.0,0.0,0.0,0.0,0.0,0.0,0.0,0.0,0.0,0.0,0.0,0.0,0.0,0.0,0.0,0.0,0.0,0.0,0.0,0.0,0.0,0.0,0.0,0.0,0.0,0.0,0.0,0.0,0.0,0.0,0.0,0.0,0.0,0.0,0.0,0.0,0.0,0.0,0.0,0.0,0.0,0.0,0.0,0.0,0.0,0.0,0.0,0.0,0.0,0.0,0.0,0.0,0.0,0.0,0.0,0.0,0.0,0.0,0.0,0.0,0.0,0.0,0.0,0.0,0.0,0.0,0.0,0.0,0.0,0.0,0.0,0.0,0.0,0.0,0.0,0.0,0.0,0.0,0.0,0.0,0.0,0.0,0.0,0.0,0.0,0.0,0.0,0.0,0.0,0.0,0.0,0.0,0.0,0.0,0.0,0.0,0.0,0.0,0.0,0.0,0.0,0.0,0.0,0.0,0.0,0.0,0.0,0.0,0.0,0.0,0.0,0.0,0.0,0.0,0.0,0.0,0.0,0.0,0.0,0.0,0.0,0.0,0.0,0.0,0.0,0.0,0.0,0.0,0.0,0.0,0.0,0.0,0.0,0.0,0.0,0.0,0.0,0.0,0.0,0.0,0.0,0.0,0.0,0.0,0.0,0.0,0.0,0.0,0.0,0.0,0.0,0.0,0.0,0.0,0.0,0.0,0.0,0.0,0.0,0.0,0.0,0.0,0.0,0.0,0.0,0.0,0.0,0.0,0.0,0.0,0.0,0.0,0.0,0.0,0.0,0.0,0.0,0.0,0.0,0.0,0.0,0.0,0.0,0.0,0.0,0.0,0.0,0.0,0.0,0.0,0.0,0.0,0.0,0.0,0.0,0.0,0.0,0.0,0.0,0.0,0.0,0.0,0.0,0.0,0.0,0.0,0.0,0.0,0.0,0.0,0.0,0.0,0.0,0.0,0.0,0.0,0.0,0.0,0.0,0.0,0.0,0.0,0.0,0.0,0.0,0.0,0.0,0.0,0.0,0.0,0.0,0.0,0.0,0.0,0.0,0.0,0.0,0.0,0.0,0.0,0.0,0.0,0.0,0.0,0.0,0.0,0.0,0.0,0.0,0.0,0.0,0.0,0.0,0.0,0.0,0.0,0.0,0.0,0.0,0.0,0.0,0.0,0.0,0.0,0.0,0.0,0.0,0.0,0.0,0.0,0.0,0.0,0.0,0.0,0.0,0.0,0.0,0.0,0.0,0.0,0.0,0.0,0.0,0.0,0.0,0.0,0.0,0.0,0.0,0.0,0.0,0.0,0.0,0.0,0.0,0.0,0.0,0.0,0.0,0.0,0.0,0.0,0.0,0.0,0.0,0.0,0.0,0.0,0.0,0.0,0.0,0.0,0.0,0.0,0.0,0.0,0.0,0.0,0.0,0.0,0.0,0.0,0.0,0.0,0.0,0.0,0.0,0.0,0.0,0.0,0.0,0.0,0.0,0.0,0.0,0.0,0.0,0.0,0.0,0.0,0.0,0.0,0.0,0.0,0.0,0.0,0.0,0.0,0.0,0.0,0.0,0.0,0.0,0.0,0.0,0.0,0.0,0.0,0.0,0.0,0.0,0.0,0.0,0.0,0.0,0.0,0.0,0.0,0.0,0.0,0.0,0.0,0.0,0.0,0.0,0.0,0.0,0.0,0.0,0.0,0.0,0.0,0.0,0.0,0.0,0.0,0.0,0.0,0.0,0.0,0.0,0.0,0.0,0.0,0.0,0.0,0.0,0.0,0.0,0.0,0.0,0.0,0.0,0.0,0.0,0.0,0.0,0.0,0.0,0.0,0.0,0.0,0.0,0.0,0.0,0.0,0.0,0.0,0.0,0.0,0.0,0.0,0.0,0.0,0.0,0.0,0.0,0.0,0.0,0.0,0.0,0.0,0.0,0.0,0.0,0.0,0.0,0.0,0.0,0.0,0.0,0.0,0.0,0.0,0.0,0.0,0.0,0.0,0.0,0.0,0.0,0.0,0.0,0.0,0.0,0.0,0.0,0.0,0.0,0.0,0.0,0.0,0.0,0.0,0.0,0.0,0.0,0.0,0.0,0.0,0.0,0.0,0.0,0.0,0.0,0.0,0.0,0.0,0.0,0.0,0.0,0.0,0.0,0.0,0.0,0.0,0.0,0.0,0.0,0.0,0.0,0.0,0.0,0.0,0.0,0.0,0.0,0.0,0.0,0.0,0.0,0.0,0.0,0.0,0.0,0.0,0.0,0.0,0.0,0.0,0.0,0.0,0.0,0.0,0.0,0.0,0.0,0.0,0.0,0.0,0.0,0.0,0.0,0.0,0.0,0.0,0.0,0.0,0.0,0.0,0.0,0.0,0.0,0.0,0.0,0.0,0.0,0.0,0.0,0.0,0.0,0.0,0.0,0.0,0.0,0.0,0.0,0.0,0.0,0.0,0.0,0.0,0.0,0.0,0.0,0.0,0.0,0.0,0.0,0.0,0.0,0.0,0.0,0.0,0.0,0.0,0.0,0.0,0.0,0.0,0.0,0.0,0.0,0.0,0.0,0.0,0.0,0.0,0.0,0.0,0.0,0.0,0.0,0.0,0.0,0.0,0.0,0.0,0.0,0.0,0.0,0.0,0.0,0.0,0.0,0.0,0.0,0.0,0.0,0.0,0.0,0.0,0.0,0.0,0.0,0.0,0.0,0.0,0.0,0.0,0.0,0.0,0.0,0.0,0.0,0.0,0.0,0.0,0.0,0.0,0.0,0.0,0.0,0.0,0.0,0.0,0.0,0.0,0.0,0.0,0.0,0.0,0.0,0.0,0.0,0.0,0.0,0.0,0.0,0.0,0.0,0.0,0.0,0.0,0.0,0.0,0.0,0.0,0.0,0.0,0.0,0.0,0.0,0.0,0.0,0.0,0.0,0.0,0.0,0.0,0.0,0.0,0.0,0.0,0.0,0.0,0.0,0.0,0.0,0.0,0.0,0.0,0.0,0.0,0.0,0.0,0.0,0.0,0.0,0.0,0.0,0.0,0.0,0.0,0.0,0.0,0.0,0.0,0.0,0.0,0.0,0.0,0.0,0.0,0.0,0.0,0.0,0.0,0.0,0.0,0.0,0.0,0.0,0.0,0.0,0.0,0.0,0.0,0.0,0.0,0.0,0.0,0.0,0.0,0.0,0.0,0.0,0.0,0.0,0.0,0.0,0.0,0.0,0.0,0.0,0.0,0.0,0.0,0.0,0.0,0.0,0.0,0.0,0.0,0.0,0.0,0.0,0.0,0.0,0.0,0.0,0.0,0.0,0.0,0.0,0.0,0.0,0.0,0.0,0.0,0.0,0.0,0.0,0.0,0.0,0.0,0.0,0.0,0.0,0.0,0.0,0.0,0.0,0.0,0.0,0.0,0.0,0.0,0.0,0.0,0.0,0.0,0.0,0.0,0.0,0.0,0.0,0.0,0.0,0.0,0.0,0.0,0.0,0.0,0.0,0.0,0.0,0.0,0.0,0.0,0.0,0.0,0.0,0.0,0.0,0.0,0.0,0.0,0.0,0.0,0.0,0.0,0.0,0.0,0.0,0.0,0.0,0.0,0.0,0.0,0.0,0.0,0.0,0.0,0.0,0.0,0.0,0.0,0.0,0.0,0.0,0.0,0.0,0.0,0.0,0.0,0.0,0.0,0.0,0.0,0.0,0.0,0.0,0.0,0.0,0.0,0.0,0.0,0.0,0.0,0.0,0.0,0.0,0.0,0.0,0.0,0.0,0.0,0.0,0.0,0.0,0.0,0.0,0.0,0.0,0.0,0.0,0.0,0.0,0.0,0.0,0.0,0.0,0.0,0.0,0.0,0.0,0.0,0.0,0.0,0.0,0.0,0.0,0.0,0.0,0.0,0.0,0.0,0.0,0.0,0.0,0.0,0.0,0.0,0.0,0.0,0.0,0.0,0.0,0.0,0.0,0.0,0.0,0.0,0.0,0.0,0.0,0.0,0.0,0.0,0.0,0.0,0.0,0.0,0.0,0.0,0.0,0.0,0.0,0.0,0.0,0.0,0.0,0.0,0.0,0.0,0.0,0.0,0.0,0.0,0.0,0.0,0.0,0.0,0.0,0.0,0.0,0.0,0.0,0.0,0.4033,0.0,0.0,0.0,0.0,0.0,0.0,0.0,0.0,0.0,0.0,0.0,0.0,0.0,0.0,0.0,0.0,0.0,0.0,0.0,0.0,0.0,0.0,0.0,0.0,0.0,0.0,0.0,0.0,0.0,0.0,0.0,0.0,0.0,0.0,0.0,0.0,0.0,0.0,0.0,0.0,0.0,0.0,0.0,0.0,0.0,0.0,0.0,0.0,0.0,0.0,0.0,0.0,0.0,0.0,0.0,0.0,0.0,0.0,0.0,0.0,0.0,0.0,0.0,0.0,0.0,0.0,0.0,0.0,0.0,0.0,0.0,0.0,0.0,0.0,0.0,0.0,0.0,0.0,0.0,0.0,0.0,0.0,0.0,0.0,0.0,0.0,0.0,0.0,0.0,0.0,0.0,0.0,0.0,0.0,0.0,0.0,0.0,0.0,0.0,0.0,0.0,0.0,0.0,0.0,0.0,0.0,0.0,0.0,0.0,0.0,0.4462,0.446,0.4384,0.4243,0.4027,0.0,0.0,0.0,0.0,0.0,0.0,0.0,0.0,0.0,0.0,0.0,0.0,0.0,0.0,0.0,0.0,0.0,0.0,0.0,0.0,0.0,0.0,0.0,0.0,0.0,0.0,0.0,0.0,0.0,0.0,0.0,0.0,0.0,0.0,0.0,0.0,0.0,0.0,0.0,0.0,0.0,0.0,0.0,0.0,0.0,0.0,0.0,0.0,0.0,0.0,0.0,0.0,0.0,0.0,0.0,0.0,0.0,0.0,0.0,0.0,0.0,0.0,0.0,0.0,0.0,0.0,0.0,0.0,0.0,0.0,0.0,0.0,0.0,0.0,0.0,0.0,0.0,0.0,0.0,0.0,0.0,0.0,0.0,0.0,0.0,0.0,0.0,0.0,0.0,0.0,0.0,0.0,0.0,0.0,0.0,0.0,0.0,0.0,0.0,0.0,0.0,0.0,0.0,0.0,0.0,0.0,0.0,0.0,0.0,0.0,0.0,0.0,0.4458,0.4259,0.4122,0.0,0.0,0.0,0.0,0.0,0.0,0.0,0.0,0.0,0.0,0.0,0.0,0.0,0.0,0.0,0.0,0.0,0.0,0.0,0.0,0.0,0.0,0.0,0.0,0.0,0.0,0.0,0.0,0.0,0.0,0.0,0.0,0.0,0.0,0.0,0.0,0.0,0.0,0.0,0.0,0.0,0.0,0.0,0.0,0.0,0.0,0.0,0.0,0.0,0.0,0.0,0.0,0.0,0.0,0.0,0.0,0.0,0.0,0.0,0.0,0.0,0.0,0.0,0.0,0.0,0.0,0.0,0.0,0.0,0.0,0.0,0.0,0.0,0.0,0.0,0.0,0.0,0.0,0.0,0.0,0.0,0.0,0.0,0.0,0.0,0.0,0.0,0.0,0.0,0.0,0.0,0.0,0.0,0.0,0.0,0.0,0.0,0.0,0.0,0.0,0.0,0.0,0.0,0.0,0.0,0.0,0.0,0.0,0.0,0.0,0.4462,0.4863,0.486,0.0,0.4486,0.0,0.0,0.0,0.0,0.0,0.0,0.0,0.0,0.0,0.0,0.0,0.0,0.0,0.0,0.0,0.0,0.0,0.0,0.0,0.0,0.0,0.0,0.0,0.0,0.0,0.0,0.0,0.0,0.0,0.0,0.0,0.0,0.0,0.0,0.0,0.0,0.0,0.0,0.0,0.0,0.0,0.0,0.0,0.0,0.0,0.0,0.0,0.0,0.0,0.0,0.0,0.0,0.0,0.0,0.0,0.0,0.0,0.0,0.0,0.0,0.0,0.0,0.0,0.0,0.0,0.0,0.0,0.0,0.0,0.0,0.0,0.0,0.0,0.0,0.0,0.0,0.0,0.0,0.0,0.0,0.0,0.0,0.0,0.0,0.0,0.0,0.0,0.0,0.0,0.0,0.0,0.0,0.0,0.0,0.0,0.0,0.0,0.0,0.0,0.0,0.0,0.0,0.0,0.0,0.0,0.0,0.0,0.0,0.0,0.0,0.4641,0.4913,0.4743,0.4463,0.0,0.0,0.0,0.0,0.0,0.0,0.0,0.0,0.0,0.0,0.0,0.0,0.0,0.0,0.0,0.0,0.0,0.0,0.0,0.0,0.0,0.0,0.0,0.0,0.0,0.0,0.0,0.0,0.0,0.0,0.0,0.0,0.0,0.0,0.0,0.0,0.0,0.0,0.0,0.0,0.0,0.0,0.0,0.0,0.0,0.0,0.0,0.0,0.0,0.0,0.0,0.0,0.0,0.0,0.0,0.0,0.0,0.0,0.0,0.0,0.0,0.0,0.0,0.0,0.0,0.0,0.0,0.0,0.0,0.0,0.0,0.0,0.0,0.0,0.0,0.0,0.0,0.0,0.0,0.0,0.0,0.0,0.0,0.0,0.0,0.0,0.0,0.0,0.0,0.0,0.0,0.0,0.0,0.0,0.0,0.0,0.0,0.0,0.0,0.0,0.0,0.0,0.0,0.0,0.0,0.0,0.0,0.0,0.0,0.0,0.4582,0.474,0.489,0.4724,0.4358,0.382,0.0,0.0,0.0,0.0,0.0,0.0,0.0,0.0,0.0,0.0,0.0,0.0,0.0,0.0,0.0,0.0,0.0,0.0,0.0,0.0,0.0,0.0,0.0,0.0,0.0,0.0,0.0,0.0,0.0,0.0,0.0,0.0,0.0,0.0,0.0,0.0,0.0,0.0,0.0,0.0,0.0,0.0,0.0,0.0,0.0,0.0,0.0,0.0,0.0,0.0,0.0,0.0,0.0,0.0,0.0,0.0,0.0,0.0,0.0,0.0,0.0,0.0,0.0,0.0,0.0,0.0,0.0,0.0,0.0,0.0,0.0,0.0,0.0,0.0,0.0,0.0,0.0,0.0,0.0,0.0,0.0,0.0,0.0,0.0,0.0,0.0,0.0,0.0,0.0,0.0,0.0,0.0,0.0,0.0,0.0,0.0,0.0,0.0,0.0,0.0,0.0,0.0,0.0,0.0,0.0,0.0,0.0,0.0,0.5013,0.4682,0.4687,0.499,0.4917,0.4559,0.0,0.0,0.0,0.0,0.0,0.0,0.0,0.0,0.0,0.0,0.0,0.0,0.0,0.0,0.0,0.0,0.0,0.0,0.0,0.0,0.0,0.0,0.0,0.0,0.0,0.0,0.0,0.0,0.0,0.0,0.0,0.0,0.0,0.0,0.0,0.0,0.0,0.0,0.0,0.0,0.0,0.0,0.0,0.0,0.0,0.0,0.0,0.0,0.0,0.0,0.0,0.0,0.0,0.0,0.0,0.0,0.0,0.0,0.0,0.0,0.0,0.0,0.0,0.0,0.0,0.0,0.0,0.0,0.0,0.0,0.0,0.0,0.0,0.0,0.0,0.0,0.0,0.0,0.0,0.0,0.0,0.0,0.0,0.0,0.0,0.0,0.0,0.0,0.0,0.0,0.0,0.0,0.0,0.0,0.0,0.0,0.0,0.0,0.0,0.0,0.0,0.0,0.0,0.0,0.0,0.0,0.0,0.0,0.0,0.4462,0.4378,0.4527,0.4923,0.4561,0.4163,0.0,0.0,0.0,0.0,0.0,0.0,0.0,0.0,0.0,0.0,0.0,0.0,0.0,0.0,0.0,0.0,0.0,0.0,0.0,0.0,0.0,0.0,0.0,0.0,0.0,0.0,0.0,0.0,0.0,0.0,0.0,0.0,0.0,0.0,0.0,0.0,0.0,0.0,0.0,0.0,0.0,0.0,0.0,0.0,0.0,0.0,0.0,0.0,0.0,0.0,0.0,0.0,0.0,0.0,0.0,0.0,0.0,0.0,0.0,0.0,0.0,0.0,0.0,0.0,0.0,0.0,0.0,0.0,0.0,0.0,0.0,0.0,0.0,0.0,0.0,0.0,0.0,0.0,0.0,0.0,0.0,0.0,0.0,0.0,0.0,0.0,0.0,0.0,0.0,0.0,0.0,0.0,0.0,0.0,0.0,0.0,0.0,0.0,0.0,0.0,0.0,0.0,0.0,0.0,0.0,0.0,0.0,0.0,0.0,0.3868,0.0,0.4076,0.0,0.3945,0.3633,0.0,0.0,0.0,0.0,0.0,0.0,0.0,0.0,0.0,0.0,0.0,0.0,0.0,0.0,0.0,0.0,0.0,0.0,0.0,0.0,0.0,0.0,0.0,0.0,0.0,0.0,0.0,0.0,0.0,0.0,0.0,0.0,0.0,0.0,0.0,0.0,0.0,0.0,0.0,0.0,0.0,0.0,0.0,0.0,0.0,0.0,0.0,0.0,0.0,0.0,0.0,0.0,0.0,0.0,0.0,0.0,0.0,0.0,0.0,0.0,0.0,0.0,0.0,0.0,0.0,0.0,0.0,0.0,0.0,0.0,0.0,0.0,0.0,0.0,0.0,0.0,0.0,0.0,0.0,0.0,0.0,0.0,0.0,0.0,0.0,0.0,0.0,0.0,0.0,0.0,0.0,0.0,0.0,0.0,0.0,0.0,0.0,0.0,0.0,0.0,0.0,0.0,0.0,0.0,0.0,0.0,0.0,0.0,0.3686,0.3369,0.3249,0.3174,0.3389,0.3036,0.293,0.0,0.0,0.0,0.0,0.0,0.0,0.0,0.0,0.0,0.0,0.0,0.0,0.0,0.0,0.0,0.0,0.0,0.0,0.0,0.0,0.0,0.0,0.0,0.0,0.0,0.0,0.0,0.0,0.0,0.0,0.0,0.0,0.0,0.0,0.0,0.0,0.0,0.0,0.0,0.0,0.0,0.0,0.0,0.0,0.0,0.0,0.0,0.0,0.0,0.0,0.0,0.0,0.0,0.0,0.0,0.0,0.0,0.0,0.0,0.0,0.0,0.0,0.0,0.0,0.0,0.0,0.0,0.0,0.0,0.0,0.0,0.0,0.0,0.0,0.0,0.0,0.0,0.0,0.0,0.0,0.0,0.0,0.0,0.0,0.0,0.0,0.0,0.0,0.0,0.0,0.0,0.0,0.0,0.0,0.0,0.0,0.0,0.0,0.0,0.0,0.0,0.0,0.0,0.0,0.0,0.0,0.0,0.0,0.0,0.2493,0.1668,0.1607,0.2397,0.173,0.1599,0.0,0.0,0.0,0.0,0.0,0.0,0.0,0.0,0.0,0.0,0.0,0.0,0.0,0.0,0.0,0.0,0.0,0.0,0.0,0.0,0.0,0.0,0.0,0.0,0.0,0.0,0.0,0.0,0.0,0.0,0.0,0.0,0.0,0.0,0.0,0.0,0.0,0.0,0.0,0.0,0.0,0.0,0.0,0.0,0.0,0.0,0.0,0.0,0.0,0.0,0.0,0.0,0.0,0.0,0.0,0.0,0.0,0.0,0.0,0.0,0.0,0.0,0.0,0.0,0.0,0.0,0.0,0.0,0.0,0.0,0.0,0.0,0.0,0.0,0.0,0.0,0.0,0.0,0.0,0.0,0.0,0.0,0.0,0.0,0.0,0.0,0.0,0.0,0.0,0.0,0.0,0.0,0.0,0.0,0.0,0.0,0.0,0.0,0.0,0.0,0.0,0.0,0.0,0.0,0.0,0.0,0.0,0.0,0.0,0.0,-0.0595,-0.0489,0.0377,-0.0115,-0.0054,0.0621,0.0,0.0,0.0,0.0,0.0,0.0,0.0,0.0,0.0,0.0,0.0,0.0,0.0,0.0,0.0,0.0,0.0,0.0,0.0,0.0,0.0,0.0,0.0,0.0,0.0,0.0,0.0,0.0,0.0,0.0,0.0,0.0,0.0,0.0,0.0,0.0,0.0,0.0,0.0,0.0,0.0,0.0,0.0,0.0,0.0,0.0,0.0,0.0,0.0,0.0,0.0,0.0,0.0,0.0,0.0,0.0,0.0,0.0,0.0,0.0,0.0,0.0,0.0,0.0,0.0,0.0,0.0,0.0,0.0,0.0,0.0,0.0,0.0,0.0,0.0,0.0,0.0,0.0,0.0,0.0,0.0,0.0,0.0,0.0,0.0,0.0,0.0,0.0,0.0,0.0,0.0,0.0,0.0,0.0,0.0,0.0,0.0,0.0,0.0,0.0,0.0,0.0,0.0,0.0,0.0,0.0,0.0,0.0,-0.357,-0.338,-0.3014,-0.2509,-0.2548,-0.2224,0.0,0.0,0.0,0.0,0.0,0.0,0.0,0.0,0.0,0.0,0.0,0.0,0.0,0.0,0.0,0.0,0.0,0.0,0.0,0.0,0.0,0.0,0.0,0.0,0.0,0.0,0.0,0.0,0.0,0.0,0.0,0.0,0.0,0.0,0.0,0.0,0.0,0.0,0.0,0.0,0.0,0.0,0.0,0.0,0.0,0.0,0.0,0.0,0.0,0.0,0.0,0.0,0.0,0.0,0.0,0.0,0.0,0.0,0.0,0.0,0.0,0.0,0.0,0.0,0.0,0.0,0.0,0.0,0.0,0.0,0.0,0.0,0.0,0.0,0.0,0.0,0.0,0.0,0.0,0.0,0.0,0.0,0.0,0.0,0.0,0.0,0.0,0.0,0.0,0.0,0.0,0.0,0.0,0.0,0.0,0.0,0.0,0.0,0.0,0.0,0.0,0.0,0.0,0.0,0.0,0.0,0.0,0.0,0.0,-0.4721,-0.6381,-0.6467,-0.475,-0.5746,-0.5597,0.0,0.0,0.0,0.0,0.0,0.0,0.0,0.0,0.0,0.0,0.0,0.0,0.0,0.0,0.0,0.0,0.0,0.0,0.0,0.0,0.0,0.0,0.0,0.0,0.0,0.0,0.0,0.0,0.0,0.0,0.0,0.0,0.0,0.0,0.0,0.0,0.0,0.0,0.0,0.0,0.0,0.0,0.0,0.0,0.0,0.0,0.0,0.0,0.0,0.0,0.0,0.0,0.0,0.0,0.0,0.0,0.0,0.0,0.0,0.0,0.0,0.0,0.0,0.0,0.0,0.0,0.0,0.0,0.0,0.0,0.0,0.0,0.0,0.0,0.0,0.0,0.0,0.0,0.0,0.0,0.0,0.0,0.0,0.0,0.0,0.0,0.0,0.0,0.0,0.0,0.0,0.0,0.0,0.0,0.0,0.0,0.0,0.0,0.0,0.0,0.0,0.0,0.0,0.0,0.0,0.0,0.0,0.0,-0.6462,-0.6829,-0.8425,-0.8765,-0.777,-0.7852,-0.7348,0.0,0.0,0.0,0.0,0.0,0.0,0.0,0.0,0.0,0.0,0.0,0.0,0.0,0.0,0.0,0.0,0.0,0.0,0.0,0.0,0.0,0.0,0.0,0.0,0.0,0.0,0.0,0.0,0.0,0.0,0.0,0.0,0.0,0.0,0.0,0.0,0.0,0.0,0.0,0.0,0.0,0.0,0.0,0.0,0.0,0.0,0.0,0.0,0.0,0.0,0.0,0.0,0.0,0.0,0.0,0.0,0.0,0.0,0.0,0.0,0.0,0.0,0.0,0.0,0.0,0.0,0.0,0.0,0.0,0.0,0.0,0.0,0.0,0.0,0.0,0.0,0.0,0.0,0.0,0.0,0.0,0.0,0.0,0.0,0.0,0.0,0.0,0.0,0.0,0.0,0.0,0.0,0.0,0.0,0.0,0.0,0.0,0.0,0.0,0.0,0.0,0.0,0.0,0.0,0.0,0.0,0.0,0.0,-0.8816,-0.9278,-0.9675,-1.0176,-1.0838,-0.9256,-0.8327,0.0,0.0,0.0,0.0,0.0,0.0,0.0,0.0,0.0,0.0,0.0,0.0,0.0,0.0,0.0,0.0,0.0,0.0,0.0,0.0,0.0,0.0,0.0,0.0,0.0,0.0,0.0,0.0,0.0,0.0,0.0,0.0,0.0,0.0,0.0,0.0,0.0,0.0,0.0,0.0,0.0,0.0,0.0,0.0,0.0,0.0,0.0,0.0,0.0,0.0,0.0,0.0,0.0,0.0,0.0,0.0,0.0,0.0,0.0,0.0,0.0,0.0,0.0,0.0,0.0,0.0,0.0,0.0,0.0,0.0,0.0,0.0,0.0,0.0,0.0,0.0,0.0,0.0,0.0,0.0,0.0,0.0,0.0,0.0,0.0,0.0,0.0,0.0,0.0,0.0,0.0,0.0,0.0,0.0,0.0,0.0,0.0,0.0,0.0,0.0,0.0,0.0,0.0,0.0,0.0,0.0,0.0,0.0,-0.9156,-0.9671,-1.0413,-1.105,-1.1554,-1.0954,-1.0635,0.0,0.0,0.0,0.0,0.0,0.0,0.0,0.0,0.0,0.0,0.0,0.0,0.0,0.0,0.0,0.0,0.0,0.0,0.0,0.0,0.0,0.0,0.0,0.0,0.0,0.0,0.0,0.0,0.0,0.0,0.0,0.0,0.0,0.0,0.0,0.0,0.0,0.0,0.0,0.0,0.0,0.0,0.0,0.0,0.0,0.0,0.0,0.0,-1.9703,0.0,0.0,0.0,0.0,0.0,0.0,0.0,0.0,0.0,0.0,0.0,0.0,0.0,0.0,0.0,0.0,0.0,0.0,0.0,0.0,0.0,0.0,0.0,0.0,0.0,0.0,0.0,0.0,0.0,0.0,0.0,0.0,0.0,0.0,0.0,0.0,0.0,0.0,0.0,0.0,0.0,0.0,0.0,0.0,0.0,0.0,0.0,0.0,0.0,0.0,0.0,0.0,0.0,0.0,0.0,0.0,0.0,0.0,0.0,-1.0068,-1.0541,-1.1225,-1.1745,-1.2053,-1.2163,-1.2214,0.0,0.0,0.0,0.0,0.0,0.0,0.0,0.0,0.0,0.0,0.0,0.0,0.0,0.0,0.0,0.0,0.0,0.0,0.0,0.0,0.0,0.0,0.0,0.0,0.0,0.0,0.0,0.0,0.0,0.0,0.0,0.0,0.0,0.0,0.0,0.0,0.0,0.0,0.0,0.0,0.0,0.0,0.0,0.0,0.0,0.0,0.0,0.0,0.0,0.0,0.0,0.0,0.0,0.0,0.0,0.0,0.0,0.0,0.0,0.0,0.0,0.0,0.0,0.0,0.0,0.0,0.0,0.0,0.0,0.0,0.0,0.0,0.0,0.0,0.0,0.0,0.0,0.0,0.0,0.0,0.0,0.0,0.0,0.0,0.0,0.0,0.0,0.0,0.0,0.0,0.0,0.0,0.0,0.0,0.0,0.0,0.0,0.0,0.0,0.0,0.0,0.0,0.0,0.0,0.0,0.0,0.0,-0.9779,-1.1027,-1.1451,-1.2026,-1.2458,-1.2745,-1.3233,-1.347,-1.3486,0.0,0.0,0.0,0.0,0.0,0.0,0.0,0.0,0.0,0.0,0.0,0.0,0.0,0.0,0.0,0.0,0.0,0.0,0.0,0.0,0.0,0.0,0.0,0.0,0.0,0.0,0.0,0.0,0.0,0.0,0.0,0.0,0.0,0.0,0.0,0.0,0.0,0.0,-1.251,-1.4215,0.0,0.0,0.0,0.0,0.0,0.0,0.0,0.0,-2.2556,0.0,0.0,0.0,0.0,0.0,0.0,0.0,0.0,0.0,0.0,0.0,0.0,0.0,0.0,0.0,0.0,0.0,0.0,0.0,0.0,0.0,0.0,0.0,0.0,0.0,0.0,0.0,0.0,0.0,0.0,0.0,0.0,0.0,0.0,0.0,0.0,0.0,0.0,0.0,0.0,0.0,0.0,0.0,0.0,0.0,0.0,0.0,0.0,0.0,0.0,0.0,0.0,0.0,0.0,0.0,0.0,-0.8563,-1.0124,-1.1164,-1.1742,-1.2374,-1.3188,-1.4116,-1.4256,-1.4558,-1.5085,0.0,0.0,0.0,0.0,0.0,0.0,0.0,0.0,0.0,0.0,0.0,0.0,0.0,0.0,0.0,0.0,0.0,0.0,0.0,0.0,0.0,0.0,0.0,0.0,0.0,0.0,0.0,0.0,0.0,0.0,0.0,0.0,0.0,0.0,0.0,0.0,0.0,0.0,0.0,-1.6051,-1.7633,0.0,0.0,0.0,0.0,0.0,0.0,0.0,0.0,-2.3928,0.0,0.0,0.0,0.0,0.0,0.0,0.0,0.0,0.0,0.0,0.0,0.0,0.0,0.0,0.0,0.0,0.0,0.0,0.0,0.0,0.0,0.0,0.0,0.0,0.0,0.0,0.0,0.0,0.0,0.0,0.0,0.0,0.0,0.0,0.0,0.0,0.0,0.0,0.0,0.0,0.0,0.0,0.0,0.0,0.0,0.0,0.0,0.0,0.0,0.0,0.0,0.0,0.0,0.0,0.0,-0.848,-1.0371,-1.1594,-1.2124,-1.3283,-1.419,-1.4795,-1.5215,-1.5465,0.0,0.0,0.0,0.0,0.0,0.0,0.0,0.0,0.0,0.0,0.0,0.0,0.0,0.0,0.0,0.0,0.0,0.0,0.0,0.0,0.0,0.0,0.0,0.0,0.0,0.0,0.0,0.0,0.0,0.0,0.0,0.0,0.0,0.0,0.0,0.0,0.0,0.0,0.0,0.0,-1.7171,-1.9026,-1.9677,0.0,0.0,0.0,0.0,0.0,0.0,-2.4834,-2.4901,0.0,0.0,0.0,0.0,0.0,0.0,0.0,0.0,0.0,0.0,0.0,0.0,0.0,0.0,0.0,0.0,0.0,0.0,0.0,0.0,0.0,0.0,0.0,0.0,0.0,0.0,0.0,0.0,0.0,0.0,0.0,0.0,0.0,0.0,0.0,0.0,0.0,0.0,0.0,0.0,0.0,0.0,0.0,0.0,0.0,0.0,0.0,0.0,0.0,0.0,0.0,0.0,0.0,0.0,0.0,-0.8252,-1.0732,-1.2261,-1.2778,-1.4267,-1.5175,-1.5361,-1.6048,-1.6184,0.0,0.0,0.0,0.0,0.0,0.0,0.0,0.0,0.0,0.0,0.0,0.0,0.0,0.0,0.0,0.0,0.0,0.0,0.0,0.0,0.0,0.0,0.0,0.0,0.0,0.0,0.0,0.0,0.0,0.0,0.0,0.0,0.0,0.0,0.0,0.0,0.0,0.0,0.0,0.0,0.0,-2.057,-2.1815,-2.2731,0.0,0.0,0.0,0.0,-2.6318,-2.6181,0.0,0.0,0.0,0.0,0.0,0.0,0.0,0.0,0.0,0.0,0.0,0.0,0.0,0.0,0.0,0.0,0.0,0.0,0.0,0.0,0.0,0.0,0.0,0.0,0.0,0.0,0.0,0.0,0.0,0.0,0.0,0.0,0.0,0.0,0.0,0.0,0.0,0.0,0.0,0.0,0.0,0.0,0.0,0.0,0.0,0.0,0.0,0.0,0.0,0.0,0.0,0.0,0.0,0.0,0.0,0.0,-0.8656,-1.1415,-1.3175,-1.3934,-1.5084,-1.5882,-1.6343,-1.6777,-1.6678,0.0,0.0,0.0,0.0,0.0,0.0,0.0,0.0,0.0,0.0,0.0,0.0,0.0,0.0,0.0,0.0,0.0,0.0,0.0,0.0,0.0,0.0,0.0,0.0,0.0,0.0,0.0,0.0,0.0,0.0,0.0,0.0,0.0,0.0,0.0,0.0,0.0,0.0,0.0,0.0,0.0,-2.3024,-2.3565,-2.4857,-2.6202,0.0,0.0,-2.7451,-2.783,-2.8153,0.0,0.0,0.0,0.0,0.0,0.0,0.0,0.0,0.0,0.0,0.0,0.0,0.0,0.0,0.0,0.0,0.0,0.0,0.0,0.0,0.0,0.0,0.0,0.0,0.0,0.0,0.0,0.0,0.0,0.0,0.0,0.0,0.0,0.0,0.0,0.0,0.0,0.0,0.0,0.0,0.0,0.0,0.0,0.0,0.0,0.0,0.0,0.0,0.0,0.0,0.0,0.0,0.0,0.0,0.0,-0.752,-0.9105,-1.144,-1.3154,-1.4095,-1.5225,-1.6052,-1.6617,-1.6892,-1.662,0.0,0.0,0.0,0.0,0.0,0.0,0.0,0.0,0.0,0.0,0.0,0.0,0.0,0.0,0.0,0.0,0.0,0.0,0.0,0.0,0.0,0.0,0.0,0.0,0.0,0.0,0.0,0.0,0.0,0.0,0.0,0.0,0.0,0.0,0.0,0.0,0.0,0.0,0.0,0.0,0.0,0.0,-2.5956,-2.7304,0.0,0.0,0.0,-2.8324,-2.8485,0.0,0.0,0.0,0.0,0.0,0.0,0.0,0.0,0.0,0.0,0.0,0.0,0.0,0.0,0.0,0.0,0.0,0.0,0.0,0.0,0.0,0.0,0.0,0.0,0.0,0.0,0.0,0.0,0.0,0.0,0.0,0.0,0.0,0.0,0.0,0.0,0.0,0.0,0.0,0.0,0.0,0.0,0.0,0.0,0.0,0.0,0.0,0.0,0.0,0.0,0.0,0.0,0.0,0.0,0.0,0.0,0.0,-0.9277,-1.1785,-1.3637,-1.4818,-1.6102,-1.6975,-1.7448,-1.759,0.0,0.0,0.0,0.0,0.0,0.0,0.0,0.0,0.0,0.0,0.0,0.0,0.0,0.0,0.0,0.0,0.0,0.0,0.0,0.0,0.0,0.0,0.0,0.0,0.0,0.0,0.0,-0.6741,0.0,0.0,0.0,0.0,0.0,0.0,0.0,0.0,0.0,0.0,0.0,0.0,0.0,0.0,-2.6642,-2.7865,-2.9251,-3.0225,0.0,0.0,-2.8676,-2.8781,-2.8033,-2.7358,0.0,0.0,0.0,0.0,0.0,0.0,0.0,0.0,0.0,0.0,0.0,0.0,0.0,0.0,0.0,0.0,0.0,0.0,0.0,0.0,0.0,0.0,0.0,0.0,0.0,0.0,0.0,0.0,0.0,0.0,0.0,0.0,0.0,0.0,0.0,0.0,0.0,0.0,0.0,0.0,0.0,0.0,0.0,0.0,0.0,0.0,0.0,0.0,0.0,0.0,0.0,0.0,0.0,0.0,-0.7004,-0.9079,-1.2824,-1.5416,-1.6896,-1.8527,-1.9407,-1.9509,-1.9448,-1.9019,0.0,0.0,0.0,0.0,0.0,0.0,0.0,0.0,0.0,0.0,0.0,0.0,0.0,0.0,0.0,0.0,0.0,0.0,0.0,0.0,0.0,0.0,0.0,0.0,0.0,0.0,0.0,0.0,0.0,0.0,0.0,0.0,0.0,0.0,0.0,0.0,0.0,0.0,0.0,0.0,0.0,-2.8655,-2.8724,-3.0193,-3.1292,0.0,-2.9882,-2.8794,-2.8801,-2.8099,-2.7205,-2.6085,0.0,0.0,0.0,0.0,0.0,0.0,0.0,0.0,0.0,0.0,0.0,0.0,0.0,0.0,0.0,0.0,0.0,0.0,0.0,0.0,0.0,0.0,0.0,0.0,0.0,0.0,0.0,0.0,0.0,0.0,0.0,0.0,0.0,0.0,0.0,0.0,0.0,0.0,0.0,0.0,0.0,0.0,0.0,0.0,0.0,0.0,0.0,0.0,0.0,0.0,0.0,0.0,0.0,-0.3903,-0.961,-0.9064,-1.1567,-1.7258,-1.8091,-1.8757,-1.9554,-1.9327,-1.8765,0.0,0.0,0.0,0.0,0.0,0.0,0.0,0.0,0.0,0.0,0.0,0.0,0.0,0.0,0.0,0.0,0.0,0.0,0.0,0.0,0.0,0.0,0.0,0.0,0.0,0.0,0.0,0.0,-1.2897,-1.3944,-1.5371,0.0,0.0,0.0,0.0,0.0,0.0,0.0,0.0,0.0,0.0,-2.8858,-2.9937,-3.0385,0.0,0.0,-2.9698,-2.8582,-2.8279,-2.7224,-2.6126,-2.521,-2.4631,0.0,0.0,0.0,0.0,0.0,0.0,0.0,0.0,0.0,0.0,0.0,0.0,0.0,0.0,0.0,0.0,0.0,0.0,0.0,0.0,0.0,0.0,0.0,0.0,0.0,0.0,0.0,0.0,0.0,0.0,0.0,0.0,0.0,0.0,0.0,0.0,0.0,0.0,0.0,0.0,0.0,0.0,0.0,0.0,0.0,0.0,0.0,0.0,0.0,0.0,0.0,0.0,-0.0268,-0.7919,-0.6356,-0.9507,-1.7625,-1.8337,-1.9054,-1.9941,-1.9587,-1.9073,0.0,0.0,0.0,0.0,0.0,0.0,0.0,0.0,0.0,0.0,0.0,0.0,0.0,0.0,0.0,0.0,0.0,0.0,0.0,0.0,0.0,0.0,0.0,0.0,0.0,0.0,0.0,0.0,-1.5544,-1.6383,-1.6958,0.0,0.0,0.0,0.0,0.0,0.0,0.0,0.0,0.0,0.0,-2.9022,-2.9927,-2.993,-2.9901,-3.0079,-2.8999,-2.8015,-2.7619,-2.6399,-2.5293,-2.472,0.0,0.0,0.0,0.0,0.0,0.0,0.0,0.0,0.0,0.0,0.0,0.0,0.0,0.0,0.0,0.0,0.0,0.0,0.0,0.0,0.0,0.0,0.0,0.0,0.0,0.0,0.0,0.0,0.0,0.0,1.8112,0.0,0.0,0.0,0.0,0.0,0.0,0.0,0.0,0.0,0.0,0.0,0.0,0.0,0.0,0.0,0.0,0.0,0.0,0.0,0.0,0.0,0.0,0.3579,-0.3004,-0.5545,-1.0445,-1.7513,-1.9811,-2.0881,-2.1072,-2.0694,-2.0372,-2.0169,0.0,0.0,0.0,0.0,0.0,0.0,0.0,0.0,0.0,0.0,0.0,0.0,0.0,0.0,0.0,0.0,0.0,0.0,0.0,0.0,0.0,0.0,0.0,0.0,0.0,0.0,-1.5961,-1.5887,-1.5724,0.0,0.0,0.0,0.0,0.0,0.0,0.0,0.0,0.0,0.0,-2.7861,-2.9426,-2.8339,-2.8758,-2.8997,-2.8617,-2.774,-2.7045,-2.6835,-2.5799,-2.4936,0.0,0.0,0.0,0.0,0.0,0.0,0.0,0.0,0.0,0.0,0.0,0.0,0.0,0.0,0.0,0.0,0.0,0.0,0.0,0.0,0.0,0.0,0.0,0.0,0.0,0.0,0.0,1.9147,1.9081,0.0,0.0,0.0,0.0,0.0,0.0,0.0,0.0,0.0,0.0,0.0,1.9145,1.9094,0.0,0.0,0.0,0.0,0.0,0.0,0.0,0.0,0.0,0.0,0.0,0.0,0.8189,-0.1435,-0.0647,-0.5039,-1.5258,-1.7575,-1.8936,-1.9638,-1.9648,-1.9551,-1.9361,0.0,0.0,0.0,0.0,0.0,0.0,0.0,0.0,0.0,0.0,0.0,0.0,0.0,0.0,0.0,0.0,0.0,0.0,0.0,0.0,0.0,0.0,0.0,0.0,0.0,-1.6293,0.0,0.0,0.0,0.0,0.0,0.0,0.0,0.0,0.0,0.0,0.0,-2.5331,-2.6072,-2.7097,-2.7701,-2.7461,-2.7046,-2.6839,0.0,0.0,0.0,0.0,0.0,0.0,0.0,0.0,0.0,0.0,0.0,0.0,0.0,0.0,-2.1715,-2.0556,-2.0064,-1.9714,-1.9467,0.0,0.0,0.0,0.0,0.0,0.0,0.0,0.0,0.0,0.0,0.0,0.0,0.0,0.0,1.9232,0.0,1.855,0.0,0.0,0.0,0.0,0.0,0.0,0.0,0.0,1.8808,1.9256,1.9724,1.9672,1.939,0.0,1.8812,1.7973,0.0,0.0,0.0,0.0,0.0,0.0,0.0,0.0,1.0825,0.1168,0.1745,-0.2963,-1.3457,-1.5956,-1.7487,-1.8488,-1.8888,-1.9138,-1.9214,-1.944,-1.9399,0.0,0.0,0.0,0.0,0.0,0.0,0.0,0.0,0.0,0.0,0.0,0.0,0.0,0.0,0.0,0.0,0.0,0.0,0.0,0.0,0.0,0.0,0.0,-1.7018,0.0,0.0,0.0,0.0,0.0,0.0,0.0,0.0,0.0,-2.1837,-2.3141,-2.4208,-2.5209,-2.5535,-2.57,-2.573,0.0,0.0,0.0,0.0,0.0,0.0,0.0,-2.4071,-2.3583,-2.3405,-2.3269,-2.3159,-2.3094,-2.2883,-2.2276,0.0,0.0,-2.1124,-2.0657,-2.0386,-2.0309,-1.9819,-1.9278,-1.8864,-1.7998,-1.7165,0.0,0.0,0.0,0.0,0.0,0.0,0.0,0.0,1.9123,1.9691,0.0,1.9107,0.0,0.0,0.0,0.0,0.0,1.9085,0.0,0.0,1.9416,1.9528,1.9376,1.9607,1.9101,1.7935,1.8419,1.7984,1.6761,1.7654,0.0,0.0,0.0,0.0,0.0,0.0,1.1514,0.4875,0.1537,-0.4257,-1.2496,-1.5061,-1.6722,-1.7757,-1.8491,-1.9118,-1.9708,-2.0429,-2.0391,-1.9329,-1.928,0.0,0.0,0.0,0.0,0.0,0.0,0.0,0.0,0.0,0.0,0.0,0.0,0.0,0.0,0.0,0.0,0.0,0.0,0.0,0.0,-1.731,0.0,0.0,0.0,0.0,0.0,0.0,0.0,0.0,0.0,0.0,-2.056,-2.1397,-2.1995,-2.2678,0.0,0.0,0.0,0.0,-2.3979,-2.4393,-2.4466,-2.4474,-2.4458,-2.4122,-2.3895,-2.3846,0.0,0.0,-2.2937,-2.275,-2.2606,-2.2259,-2.219,-2.213,-2.186,-2.1534,-2.1348,-2.1349,-2.0846,-2.0489,-2.0266,-1.8996,-1.8022,1.7765,0.0,0.0,0.0,0.0,1.839,1.8958,1.9447,1.9843,2.0087,2.0214,1.9718,0.0,0.0,0.0,0.0,0.0,0.0,1.8739,1.8473,1.7893,1.7841,1.8217,1.7628,1.7286,1.7189,1.6991,1.6663,1.629,1.6529,1.6221,1.5523,0.0,0.0,0.0,0.0,1.2081,0.5352,0.1918,-0.2853,-0.9259,-1.3018,-1.5706,-1.7322,-1.7948,-1.8373,-1.8565,-1.9005,-1.9217,-1.9149,-1.8623,0.0,0.0,0.0,0.0,0.0,0.0,0.0,0.0,0.0,0.0,0.0,0.0,0.0,0.0,0.0,0.0,0.0,0.0,0.0,-1.515,-1.5494,-1.5542,0.0,0.0,0.0,0.0,0.0,0.0,0.0,0.0,0.0,-1.8636,-1.977,-2.0558,0.0,0.0,-2.2198,-2.2224,-2.2377,-2.2734,-2.3522,-2.3651,0.0,-2.3651,-2.3544,-2.3457,-2.3472,-2.3157,-2.2785,-2.243,-2.2374,-2.2289,-2.22,-2.2182,-2.2177,-2.2091,-2.1848,-2.1608,-2.1354,-2.1013,-2.0458,-1.9582,-1.8829,-1.8257,1.8682,1.8406,1.8361,1.8072,1.7792,1.8595,1.914,1.9513,1.9963,2.0457,2.0995,2.0666,2.0275,1.9727,1.8481,0.0,0.0,0.0,1.7997,1.7565,1.6996,1.685,1.7053,1.6511,1.6178,1.6095,1.5614,1.5291,1.5061,1.498,1.4468,1.3783,0.0,0.0,1.3345,1.3038,1.0251,0.4922,0.1614,-0.2636,-0.7966,-1.2638,-1.5509,-1.6471,-1.7371,-1.7817,-1.7781,-1.8249,-1.8676,-1.9024,-1.8631,-1.8143,0.0,0.0,0.0,0.0,0.0,0.0,0.0,0.0,0.0,0.0,0.0,-1.3943,-1.3363,0.0,0.0,0.0,-1.4085,-1.4348,-1.4656,-1.4896,0.0,0.0,0.0,0.0,0.0,0.0,0.0,-1.4792,-1.4988,-1.5515,-1.6885,-1.8035,-1.9128,-2.0163,-2.0619,-2.0887,-2.1068,0.0,-2.1657,-2.2441,-2.2519,-2.2625,-2.2814,-2.2866,-2.2859,-2.2852,-2.2678,-2.2441,-2.2263,-2.217,-2.217,-2.217,-2.217,-2.217,-2.217,-2.2037,-2.1801,-2.1376,-2.068,-2.0007,-1.9632,-1.9028,-1.8482,1.9368,1.9276,1.7929,1.7169,1.695,1.8518,1.9015,1.8744,1.9793,2.0839,2.1874,2.1744,2.1599,2.1333,1.9648,0.0,1.7774,1.7565,1.7116,1.6513,1.6429,1.6201,1.5941,1.5891,1.5525,1.4829,1.4394,1.3924,1.3401,1.3218,1.2387,1.1077,1.3022,1.3346,1.1972,0.9798,0.7161,0.4113,0.0875,-0.3265,-0.8407,-1.327,-1.5696,-1.5481,-1.6792,-1.746,-1.7263,-1.7896,-1.8474,-1.8853,-1.8929,-1.8459,-1.7333,0.0,0.0,0.0,0.0,0.0,0.0,0.0,0.0,0.0,0.0,0.0,0.0,0.0,0.0,0.0,-1.3494,0.0,-1.4708,-1.5125,0.0,0.0,0.0,-1.4484,-1.4204,-1.4595,-1.4834,-1.4834,0.0,0.0,-1.5526,-1.6528,-1.7818,-1.9538,-1.9709,-1.9759,-1.9805,-2.0258,-2.0709,-2.1237,-2.1313,-2.1506,-2.199,-2.2123,-2.2184,-2.2278,-2.217,-2.2217,-2.2231,-2.217,-2.217,-2.217,-2.217,-2.2177,-2.2184,-2.2095,-2.1938,-2.1317,-2.0248,-1.9553,-2.0117,-1.9476,-1.8832,1.9263,1.9133,1.9376,1.9415,1.9371,2.002,2.0256,2.0224,2.1049,2.1572,2.1818,2.1671,2.1115,2.015,1.8876,1.8,1.7446,1.661,1.6021,1.5555,1.4721,1.4424,1.455,1.4201,1.3821,1.3428,1.3316,1.2991,1.2346,1.1913,1.1525,1.1187,1.1303,1.0725,0.95,0.9188,0.7444,0.4137,0.0922,-0.3756,-0.9919,-1.2821,-1.4751,-1.5778,-1.6561,-1.6891,-1.6614,-1.6527,-1.6912,-1.7725,-1.78,-1.7902,-1.8086,-1.6684,0.0,0.0,0.0,0.0,0.0,0.0,0.0,0.0,0.0,-1.3779,-1.2234,0.0,-1.4262,0.0,-1.374,-1.3984,-1.4391,-1.4028,0.0,0.0,-1.4964,-1.4864,-1.5068,-1.52,-1.5259,-1.5264,-1.5352,-1.5743,-1.6647,-1.7034,-1.7689,-1.8988,-1.9177,-1.9374,-1.9938,-1.999,-2.0067,-2.0373,-2.0631,-2.0858,-2.0999,-2.1306,-2.1759,-2.2137,-2.217,-2.217,-2.217,-2.217,-2.217,-2.217,-2.217,-2.2137,-2.1942,-2.1541,-2.1162,-2.0793,-2.057,-2.0356,-2.0094,-1.9636,-1.9317,1.9402,1.9402,2.0016,2.0334,2.0442,2.0599,2.0492,2.0283,2.0815,2.1306,2.1739,2.1826,2.1341,2.0364,1.9092,1.8048,1.7179,1.6124,1.5322,1.4686,1.4077,1.3679,1.3501,1.3278,1.2841,1.2346,1.2428,1.2138,1.1379,1.1095,1.0685,1.0218,1.0079,0.935,0.7975,0.8142,0.6521,0.3037,-0.1105,-0.5145,-0.9137,-1.2613,-1.4637,-1.508,-1.655,-1.7115,-1.6695,-1.6483,-1.6662,-1.7202,-1.7212,-1.7269,-1.7285,-1.6186,-1.5163,0.0,0.0,0.0,0.0,0.0,0.0,0.0,0.0,0.0,0.0,0.0,-1.4244,-1.3971,-1.3941,-1.4109,-1.455,-1.4248,-1.4395,-1.5214,-1.5145,-1.5113,-1.5391,-1.5415,-1.5415,-1.5415,-1.5415,-1.5637,-1.6306,-1.6872,-1.7424,-1.8147,-1.8655,-1.9158,-1.955,-1.9681,-1.9793,-1.9674,-2.0186,-2.0603,-2.0603,-2.0858,-2.1153,-2.1451,-2.1691,-2.1841,-2.1855,-2.2037,-2.217,-2.217,-2.217,-2.2123,-2.1976,-2.1739,-2.1396,-2.1156,-2.1109,-2.0826,-2.0159,-1.9917,-1.9839,1.9664,1.9813,2.0238,2.0451,2.0476,2.0555,2.027,1.972,2.0175,2.0782,2.154,2.1834,2.165,2.1013,1.9537,1.8164,1.6979,1.59,1.4926,1.4015,1.3921,1.3515,1.2812,1.2716,1.2281,1.156,1.1719,1.1368,1.0553,1.0502,1.0024,0.9082,0.935,0.8662,0.7069,0.7021,0.5261,0.1641,-0.3472,-0.654,-0.7565,-1.2466,-1.4807,-1.4361,-1.653,-1.7555,-1.7119,-1.7004,-1.7004,-1.7083,-1.7076,-1.6825,-1.6237,-1.5432,-1.4852,0.0,-1.226,0.0,0.0,0.0,0.0,0.0,0.0,0.0,0.0,-1.3766,-1.4322,-1.4109,-1.4192,-1.4453,-1.487,-1.4917,-1.5029,-1.5152,-1.5162,-1.5187,-1.5279,-1.5225,-1.5273,-1.5317,-1.5327,-1.5347,-1.557,-1.6528,-1.7196,-1.7479,-1.8321,-1.8993,-1.904,-1.939,-1.9612,-1.9366,-1.9972,-2.0453,-2.0553,-2.0603,-2.0666,-2.0653,-2.1209,-2.1458,-2.1361,-2.1841,-2.2184,-2.213,-2.2177,-2.2184,-2.213,-2.2123,-2.2016,-2.1657,-2.152,-2.1226,-2.0549,-2.0327,-2.0427,1.9693,1.9684,2.0347,2.0107,1.9277,1.9754,2.0132,2.0353,2.0792,2.1056,2.1079,2.0796,2.0473,2.0115,1.8631,1.7632,1.6928,1.5617,1.4731,1.4134,1.3505,1.3117,1.2914,1.2388,1.1801,1.115,1.1158,1.0804,1.0098,1.0098,0.9721,0.9026,0.9082,0.8227,0.6627,0.0,0.0,0.0,-0.2834,-0.5996,-0.8062,-1.1824,-1.4348,-1.535,-1.6139,0.0,-1.7444,-1.7015,-1.698,-1.7459,-1.7495,0.0,0.0,0.0,0.0,0.0,0.0,0.0,0.0,0.0,0.0,0.0,-1.2884,-1.3227,-1.3367,-1.4566,-1.5083,-1.4562,-1.4902,-1.5028,-1.4756,-1.4728,-1.4838,-1.5024,-1.4835,-1.4733,-1.4714,-1.4544,-1.4507,-1.4863,-1.4907,-1.5209,-1.6027,-1.6754,-1.7368,-1.7814,-1.8542,-1.8993,-1.8993,-1.9146,-1.9784,-2.1134,-2.0605,-2.0169,-2.0516,-2.0553,-2.056,-2.0709,-2.1444,-2.1698,-2.1251,-2.1691,-2.2084,-2.1942,-2.203,-2.2123,-2.1935,-2.1895,-2.1752,-2.1271,-2.1458,-2.1623,-2.1233,-2.0964,-2.0948,1.947,0.0,1.9662,1.9494,0.0,1.9224,1.943,1.96,1.9812,2.0047,2.033,2.0413,2.0365,2.0073,1.8591,1.7626,1.714,1.5668,1.4783,1.4378,1.3836,1.3351,1.2967,1.2379,1.1837,1.1384,1.0952,1.0655,1.0498,1.0257,0.984,0.9194,0.9197,0.8396,0.6851,0.5758,0.398,0.1492,-0.1851,-0.4558,-0.6693,-1.0346,-1.3024,-1.4547,0.0,0.0,0.0,0.0,0.0,0.0,0.0,0.0,0.0,0.0,0.0,-1.5593,-1.5247,-1.4675,-1.3789,-1.3563,-1.3243,-1.2671,-1.2808,-1.3092,-1.3452,-1.416,-1.4624,-1.4558,-1.4775,-1.4848,-1.4606,-1.4421,-1.4359,-1.4524,-1.4331,-1.4246,-1.4545,-1.4535,-1.4629,-1.5005,-1.5093,-1.529,-1.5776,-1.6647,-1.7257,-1.765,-1.8435,-1.8993,-1.9046,-1.9245,-1.9851,-2.083,-2.0418,-1.9914,-2.0099,-2.0207,-2.0359,-2.0553,-2.0852,-2.0993,-2.1035,-2.1444,-2.1746,-2.1664,-2.1807,-2.1895,-2.1657,-2.1609,-2.1554,-2.1389,-2.1274,-2.1185,-2.1144,-2.1254,-2.1361,1.9048,1.8518,1.8898,1.8877,1.861,1.8792,1.8786,1.8649,0.0,0.0,0.0,2.014,2.0216,1.9901,1.8614,1.7761,1.7238,1.5825,1.5074,1.4846,1.4419,1.3878,1.3294,1.2657,1.2218,1.1967,1.1103,1.0757,1.1006,1.0569,1.0003,0.9465,0.9305,0.8557,0.7071,0.521,0.3488,0.1705,-0.1095,-0.3453,-0.5269,-0.901,-1.1785,-1.3484,-1.5615,-1.7238,-1.8307,-1.7929,-1.7604,-1.7373,-1.6744,-1.63,-1.6132,-1.5866,-1.5721,-1.5656,-1.5119,-1.4692,-1.4403,-1.3752,-1.3228,-1.2759,-1.2693,-1.2956,-1.3431,-1.3588,-1.3838,-1.4378,-1.4396,-1.4373,-1.43,-1.3988,-1.3838,-1.3946,-1.3739,-1.3784,-1.4268,-1.4445,-1.4653,-1.5103,-1.52,-1.5332,-1.5459,-1.6477,-1.7207,-1.7363,-1.8267,-1.8993,-1.9099,-1.9466,-1.9823,-1.99,-1.9881,-1.985,-1.9946,-1.9997,-2.0099,-2.0503,-2.0446,-2.0446,-2.0894,-2.1299,-2.1506,-2.1506,-2.1629,-2.158,-2.1431,-2.1294,-2.1315,-2.1436,-2.0964,-2.0516,-2.0649,-2.113,-2.1448,1.8617,1.837,1.876,1.8336,1.7522,1.8374,1.8602,1.8384,1.867,1.905,1.948,1.9205,1.8938,1.8717,1.8045,1.7499,1.7031,1.6007,1.5635,0.0,1.4669,1.4357,1.4571,1.3432,1.2866,1.2769,1.1701,1.1221,1.1171,1.0718,1.0102,0.9462,0.904,0.7975,0.6268,0.576,0.4478,0.2348,-0.1237,-0.3966,-0.5779,-0.892,-1.1722,-1.3989,-1.4874,-1.6114,-1.7828,-1.7482,-1.705,-1.6622,-1.6876,-1.6686,-1.5935,-1.6163,-1.6052,-1.5283,-1.4948,-1.4573,-1.4118,-1.3663,-1.3142,-1.2588,-1.2187,-1.2378,-1.3431,-1.3705,-1.3901,-1.3969,-1.3969,-1.3823,-1.3516,-1.3415,-1.3319,-1.3346,-1.3162,-1.3105,-1.3299,-1.347,-1.3796,-1.4267,-1.4648,-1.5015,-1.5389,-1.6419,-1.7131,-1.7346,-1.8244,-1.8993,-1.9099,-1.9614,-1.9919,-1.9869,-1.9798,-2.001,-2.0308,-2.0466,-2.0453,-2.0553,-2.1202,-2.1341,-2.1084,-2.1492,-2.1779,-2.1732,-2.1493,-2.1332,-2.1248,-2.0873,-2.0587,-2.0436,-2.0341,-2.0244,-1.9953,-2.0277,-2.0735,1.8439,1.7882,1.8173,1.8009,1.7577,1.8282,1.8595,1.863,1.8749,1.8897,1.902,1.8982,1.8805,1.8478,1.8049,1.7632,1.7173,1.6417,1.6126,1.6107,1.549,1.5085,1.4858,1.3993,1.3532,1.3367,1.2335,1.1891,1.2044,1.1601,1.1011,1.0395,0.9562,0.8349,0.6907,0.6625,0.5272,0.2701,-0.0054,-0.25,-0.4592,-0.7158,-0.9825,-1.2577,-1.3662,-1.4986,-1.6585,-1.6782,-1.657,-1.6015,-1.6306,-1.625,-1.5838,-1.5762,-1.5546,-1.5114,-1.4499,-1.4078,-1.3894,-1.319,-1.272,-1.2485,-1.1626,-1.1526,-1.2333,-1.2714,-1.3049,-1.3506,-1.332,-1.3077,-1.2894,-1.2649,-1.2413,-1.2072,-1.2109,-1.2331,-1.2678,-1.3133,-1.3568,-1.4009,-1.4302,-1.4512,-1.4642,-1.5685,-1.6552,-1.6922,-1.8053,-1.8969,-1.901,-1.922,-1.9573,-1.9742,-1.9798,-2.0055,-2.0459,-2.0365,-2.0409,-2.0914,-2.0809,-2.0901,-2.1006,-2.1396,-2.1171,-2.0955,-2.0823,-2.074,-2.0488,-2.0188,-2.0002,-2.0028,-1.973,-1.9598,-1.9494,-1.9461,-1.9705,1.8406,1.772,1.7882,1.8035,1.8108,1.839,1.8731,1.9058,1.8884,1.8777,1.8829,1.9011,1.8874,1.8542,1.8247,1.7922,1.7523,1.6886,1.6588,1.6533,1.6201,1.5724,1.526,1.4721,1.4359,1.4061,1.3082,1.2696,1.2904,1.2339,1.176,1.1246,1.0207,0.9061,0.8019,0.759,0.6173,0.3696,0.1781,-0.0537,-0.323,-0.5639,-0.8287,-1.0971,-1.2611,-1.4095,-1.5446,-1.5852,-1.577,-1.5279,-1.5377,-1.5451,-1.5433,-1.513,-1.492,-1.4829,-1.3978,-1.3415,-1.3334,-1.2657,-1.2269,-1.2328,-1.1364,-1.0927,-1.1316,-1.1473,-1.1898,-1.2575,-1.2362,-1.2155,-1.196,-1.1752,-1.1368,-1.0926,-1.1174,-1.154,-1.1956,-1.265,-1.3299,-1.3667,-1.3849,-1.398,-1.4233,-1.5008,-1.5848,-1.6685,-1.7798,-1.8556,-1.863,-1.8602,-1.8784,-1.9258,-1.9535,-1.9788,-2.0278,-2.0244,-2.044,-2.1271,-2.061,-2.0531,-2.1005,-2.0848,-2.0329,-2.002,-1.9906,-1.9697,-1.9237,-1.8979,-1.8934,-1.8955,-1.8656,-1.8476,-1.8593,-1.8359,-1.8538,1.8736,1.8507,1.8514,1.87,1.8898,1.8669,1.8921,1.9486,1.9049,1.9011,1.9332,1.9176,1.8974,1.8745,1.8542,1.8314,1.8029,1.7297,1.7076,1.7221,1.6417,1.612,1.6244,1.572,1.5448,1.5225,1.4152,1.3601,1.3606,1.255,1.1823,1.1336,1.0667,1.0018,0.9382,0.8734,0.7541,0.591,0.4077,0.1287,-0.2528,-0.5727,-0.8334,-1.0356,-1.2006,-1.359,-1.4886,-1.4692,-1.4288,-1.3878,-1.4253,-1.4444,-1.4438,-1.4392,-1.4398,-1.4351,-1.3437,-1.2681,-1.2166,-1.2008,-1.195,-1.1918,-1.1469,-1.1082,-1.0933,-1.0478,-1.0459,-1.103,-1.1168,-1.099,-1.0669,-1.0605,-1.0557,-1.0419,-1.0573,-1.0769,-1.0992,-1.1454,-1.2101,-1.2761,-1.3139,-1.3521,-1.3975,-1.467,-1.551,-1.6502,-1.7232,-1.7748,-1.7718,-1.7684,-1.783,-1.8315,-1.8712,-1.9149,-1.9678,-2.0234,-2.042,-2.104,-2.1108,-2.0833,-2.0635,-2.0306,-1.9794,-1.918,-1.8776,-1.8383,-1.7911,-1.7383,-1.7102,-1.7437,-1.7285,-1.7013,-1.6965,-1.7057,-1.7514,1.9027,1.8753,1.8876,1.9004,1.9101,1.9161,1.9515,1.9945,1.9696,1.9747,1.9967,1.9795,1.9398,1.8791,1.8581,1.8393,1.8163,1.7733,1.757,1.7577,1.7102,1.6795,1.6595,1.6281,1.5958,1.5632,1.5078,1.4761,1.4453,1.3428,1.2507,1.1883,1.1754,1.123,1.034,1.0217,0.9059,0.6732,0.5277,0.3195,0.0377,-0.3433,-0.6585,-0.8808,-1.088,-1.2337,-1.3226,-1.3909,-1.3988,-1.3291,-1.3889,-1.4165,-1.3889,-1.3889,-1.3894,-1.3836,-1.2972,-1.2295,-1.1923,-1.1751,-1.1584,-1.1392,-1.0708,-1.0151,-0.9784,-0.9357,-0.9204,-0.9567,-0.9917,-1.0109,-0.9936,-0.9913,-0.9817,-0.961,-0.9921,-1.0277,-1.0332,-1.0978,-1.164,-1.2227,-1.2508,-1.2782,-1.3423,-1.4352,-1.529,-1.6167,-1.6828,-1.7303,-1.7382,-1.7385,-1.7412,-1.7597,-1.7831,-1.8323,-1.9006,-1.8994,-1.9272,-1.9505,-1.9244,-1.896,-1.973,-1.9171,-1.8495,-1.8237,-1.785,-1.7477,-1.7195,-1.6944,-1.6691,-1.6635,-1.667,-1.6691,-1.6691,-1.6782,-1.7135,1.9673,1.9471,1.9594,1.9652,1.9595,1.9882,2.0127,2.0319,2.0258,2.03,2.0376,2.025,1.9831,1.9161,1.8912,1.869,1.8457,1.8333,1.8182,1.8016,1.7841,1.7509,1.7089,1.697,1.6655,1.6238,1.6046,1.579,1.5401,1.4479,1.3667,1.3168,1.3007,1.2534,1.1794,1.193,1.0792,0.8547,0.727,0.5625,0.3215,-0.0723,-0.4202,-0.6898,-0.9416,-1.109,-1.1999,-1.3117,-1.3467,-1.2978,-1.3573,-1.3842,-1.3615,-1.3472,-1.3281,-1.2929,-1.2398,-1.1868,-1.1573,-1.1262,-1.099,-1.0771,-1.0072,-0.9427,-0.9057,-0.8742,-0.8633,-0.8689,-0.9096,-0.9368,-0.9361,-0.9354,-0.9211,-0.8854,-0.9413,-0.9766,-0.9821,-1.0379,-1.1011,-1.1714,-1.1877,-1.2116,-1.2856,-1.3905,-1.4822,-1.5392,-1.6179,-1.6878,-1.6901,-1.6901,-1.6843,-1.6882,-1.6967,-1.7327,-1.8061,-1.8234,-1.8033,-1.7962,-1.7812,-1.7948,-1.8588,-1.7954,-1.718,-1.702,-1.6844,-1.6574,-1.6138,-1.6101,-1.6192,-1.6178,-1.6185,-1.6212,-1.6002,-1.6317,-1.6551,2.0853,2.0943,2.0886,2.0704,2.0712,2.0728,2.0753,2.0778,2.0638,2.053,2.047,2.0277,2.0127,1.9927,1.9762,1.9428,1.9108,1.9065,1.8975,1.8786,1.8422,1.8147,1.7941,1.7901,1.7821,1.7564,1.7101,1.656,1.5935,1.541,1.5266,1.5393,1.43,1.3789,1.3887,1.3596,1.2861,1.1587,1.0433,0.8697,0.5826,0.2205,-0.1203,-0.4416,-0.7493,-0.9936,-1.1512,-1.2053,-1.2426,-1.2886,-1.2968,-1.3157,-1.3483,-1.3152,-1.2461,-1.1556,-1.156,-1.1368,-1.0647,-1.0285,-1.0156,-1.0285,-0.984,-0.9401,-0.8857,-0.8893,-0.8738,-0.8573,-0.8636,-0.8804,-0.8804,-0.885,-0.8857,-0.8808,-0.9057,-0.9263,-0.926,-0.961,-1.0182,-1.1002,-1.136,-1.1864,-1.2774,-1.3349,-1.3963,-1.448,-1.4919,-1.5497,-1.5969,-1.5957,-1.5971,-1.6008,-1.6093,-1.6321,-1.6625,-1.7035,-1.7395,-1.7279,-1.7076,-1.739,-1.7426,-1.7242,-1.6466,-1.5857,-1.5758,-1.5514,-1.5081,-1.4956,-1.5075,-1.5163,-1.5251,-1.5237,-1.551,-1.5329,-1.5597,2.1079,2.1015,2.0942,2.0877,2.0802,2.081,2.1015,2.1291,2.1127,2.1182,2.126,2.1063,2.0704,2.0395,2.0638,2.0258,1.9508,1.9288,1.9162,1.9043,1.8824,1.8626,1.8556,1.8454,1.8344,1.8273,1.8066,1.7563,1.693,1.6579,1.616,1.5821,1.5804,1.5494,1.4875,1.4887,1.435,1.3225,1.2228,1.0773,0.8941,0.628,0.3024,-0.0888,-0.6027,-0.9141,-0.9904,-1.1329,-1.2175,-1.2377,-1.2382,-1.2622,-1.3012,-1.2671,-1.2067,-1.1305,-1.0842,-1.0435,-0.9972,-0.9658,-0.9434,-0.9347,-0.9193,-0.8681,-0.8014,-0.7937,-0.7883,-0.7501,-0.7566,-0.7676,-0.7892,-0.8321,-0.8804,-0.8804,-0.8956,-0.9057,-0.9208,-0.9361,-0.9777,-1.06,-1.1259,-1.2071,-1.2764,-1.3573,-1.4077,-1.4351,-1.5006,-1.5513,-1.5748,-1.5792,-1.5672,-1.5416,-1.538,-1.5338,-1.5063,-1.5692,-1.6092,-1.5878,-1.5746,-1.5718,-1.5729,-1.5986,-1.5426,-1.5571,-1.5291,-1.5094,-1.4886,-1.4913,-1.4878,-1.5025,-1.5056,-1.5048,-1.5216,-1.5381,-1.5617,2.1568,2.1513,2.1415,2.1393,2.1399,2.137,2.1546,2.1853,2.1759,2.1802,2.1903,2.1705,2.1362,2.1111,2.1355,2.1119,2.0405,2.0074,1.9919,1.9872,1.9507,1.9281,1.9207,1.902,1.8914,1.9013,1.9155,1.8899,1.8324,1.7996,1.7483,1.6906,1.7198,1.6903,1.6209,1.6379,1.5997,1.5058,1.4235,1.327,1.1912,0.9702,0.6955,0.3317,-0.1905,-0.6032,-0.8186,-1.0116,-1.117,-1.1371,-1.1805,-1.2269,-1.2524,-1.2116,-1.1619,-1.1108,-1.0375,-0.9865,-0.9658,-0.9221,-0.8744,-0.8551,-0.8293,-0.7827,-0.6982,-0.7085,-0.6974,-0.6858,-0.6915,-0.7082,-0.7025,-0.756,-0.8099,-0.8265,-0.8421,-0.8685,-0.8896,-0.9103,-0.9621,-1.0344,-1.1209,-1.1968,-1.2573,-1.3132,-1.3737,-1.4201,-1.4954,-1.5322,-1.5697,-1.5612,-1.5621,-1.5472,-1.5344,-1.5377,-1.5437,-1.5945,-1.5875,-1.5614,-1.5789,-1.5298,-1.4914,-1.5036,-1.5193,-1.5254,-1.5159,-1.497,-1.4889,-1.4923,-1.5056,-1.5238,-1.5208,-1.5178,-1.5403,-1.5668,-1.5852,2.2424,2.2509,2.2443,2.24,2.2413,2.2373,2.246,2.2443,2.2415,2.2298,2.2245,2.2172,2.1982,2.1882,2.1866,2.1861,2.1658,2.1505,2.136,2.1134,2.0506,2.0143,2.0001,1.973,1.9637,1.9743,2.0379,2.0431,1.9855,1.9465,1.9162,1.8928,1.8379,1.8194,1.8159,1.8117,1.7932,1.7353,1.6811,1.6081,1.4853,1.2467,1.0242,0.8196,0.4792,0.0049,-0.6302,-0.8016,-0.9089,-0.9893,-1.1116,-1.2022,-1.1864,-1.1405,-1.1057,-1.0706,-1.0127,-0.981,-0.9707,-0.8764,-0.796,-0.7688,-0.7348,-0.6828,-0.6327,-0.6317,-0.6475,-0.6473,-0.6645,-0.6753,-0.6305,-0.6357,-0.6578,-0.7028,-0.7506,-0.788,-0.8309,-0.8742,-0.9372,-1.0194,-1.0901,-1.1464,-1.1927,-1.2466,-1.3079,-1.4025,-1.4553,-1.4966,-1.5585,-1.5492,-1.5569,-1.5927,-1.5721,-1.5375,-1.5963,-1.6474,-1.6055,-1.5801,-1.6145,-1.6097,-1.5599,-1.5552,-1.5998,-1.608,-1.5518,-1.5332,-1.5413,-1.5424,-1.532,-1.5411,-1.5358,-1.5388,-1.5617,-1.5877,-1.5913,2.2841,2.2807,2.2703,2.2651,2.2582,2.2535,2.2587,2.2677,2.256,2.2552,2.2544,2.2311,2.2153,2.2144,2.2313,2.2422,2.2359,2.2556,2.2289,2.156,2.1174,2.0999,2.0878,2.0707,2.0575,2.0565,2.0704,2.0712,2.0556,2.033,2.0177,2.0101,1.9951,1.9703,1.9473,1.9564,1.9541,1.9386,1.8934,1.831,1.7548,1.6409,1.418,1.0821,0.8841,0.5671,0.1241,-0.3195,-0.6616,-0.8889,-0.9603,-1.0088,-1.0316,-1.0064,-0.9806,-0.9647,-0.8656,-0.8081,-0.8025,-0.7329,-0.6622,-0.618,-0.5973,-0.5487,-0.4888,-0.488,-0.4935,-0.4888,-0.4895,-0.4897,-0.4785,-0.473,-0.5107,-0.6029,-0.6684,-0.7173,-0.7599,-0.8359,-0.9208,-0.9921,-1.0685,-1.1405,-1.2017,-1.2515,-1.3223,-1.4077,-1.4741,-1.5399,-1.5635,-1.56,-1.539,-1.5459,-1.5329,-1.5581,-1.6219,-1.676,-1.6783,-1.6577,-1.678,-1.7012,-1.6547,-1.6316,-1.6739,-1.6866,-1.6257,-1.5905,-1.5954,-1.5866,-1.5773,-1.5705,-1.5683,-1.5799,-1.5934,-1.6047,-1.6103,2.3107,2.3105,2.3028,2.2969,2.2933,2.2909,2.2951,2.3061,2.3021,2.3054,2.3091,2.2901,2.2781,2.2746,2.2939,2.2996,2.2963,2.3212,2.293,2.2216,2.1923,2.1845,2.1757,2.1635,2.1524,2.1452,2.1444,2.1469,2.1432,2.1205,2.1054,2.1046,2.1037,2.091,2.0751,2.0877,2.0962,2.0923,2.0671,2.0432,2.0091,1.9449,1.7698,1.5025,1.3574,1.105,0.7364,0.3139,-0.1274,-0.5486,-0.7336,-0.8301,-0.8783,-0.8528,-0.8268,-0.8153,-0.7304,-0.6561,-0.6666,-0.5912,-0.5206,-0.4765,-0.4537,-0.4265,-0.378,-0.3615,-0.3338,-0.3849,-0.3568,-0.3347,-0.3404,-0.3292,-0.3504,-0.3876,-0.5148,-0.614,-0.684,-0.7812,-0.8728,-0.9354,-0.998,-1.0698,-1.1451,-1.2152,-1.2962,-1.3684,-1.4603,-1.5371,-1.5451,-1.5501,-1.5378,-1.5459,-1.574,-1.6085,-1.6502,-1.697,-1.7461,-1.7477,-1.754,-1.7735,-1.7655,-1.7471,-1.7703,-1.7982,-1.7683,-1.6906,-1.6836,-1.6427,-1.6226,-1.6149,-1.6038,-1.5978,-1.6055,-1.6246,-1.6355,2.3307,2.3517,2.3421,2.3412,2.3504,2.3549,2.3526,2.3526,2.3661,2.3723,2.3734,2.3647,2.367,2.3637,2.3557,2.3553,2.3513,2.3482,2.3468,2.3194,2.2911,2.2702,2.2565,2.2434,2.2354,2.2361,2.2468,2.2529,2.2402,2.2122,2.1943,2.1876,2.1832,2.1799,2.1974,2.212,2.2194,2.2194,2.2166,2.2358,2.261,2.1538,2.0559,1.9983,1.8414,1.5858,1.2303,0.9592,0.5434,-0.0955,-0.4558,-0.6102,-0.6767,-0.6584,-0.6199,-0.6348,-0.5496,-0.511,-0.5167,-0.4472,-0.3657,-0.316,-0.288,-0.288,-0.2839,-0.2286,-0.223,-0.3236,-0.2673,-0.2227,-0.2286,-0.212,-0.1784,-0.1563,-0.3395,-0.4995,-0.6291,-0.7055,-0.7865,-0.8573,-0.8949,-0.9364,-1.0391,-1.0998,-1.1882,-1.2851,-1.3815,-1.449,-1.5192,-1.5501,-1.5685,-1.5883,-1.6179,-1.6613,-1.7055,-1.749,-1.7935,-1.8135,-1.8204,-1.8366,-1.8414,-1.8285,-1.8534,-1.8843,-1.8594,-1.7955,-1.752,-1.7151,-1.6728,-1.6504,-1.6342,-1.6146,-1.6214,-1.6436,-1.6607,2.4028,2.4077,2.3939,2.389,2.3869,2.3837,2.3783,2.3741,2.3777,2.3841,2.3813,2.3798,2.3789,2.3723,2.3899,2.3926,2.3869,2.3923,2.395,2.389,2.3888,2.355,2.3194,2.3028,2.3034,2.3097,2.3064,2.3032,2.301,2.2861,2.276,2.2777,2.2923,2.3037,2.3118,2.3336,2.3446,2.3428,2.3476,2.3519,2.3597,2.3318,2.2714,2.1869,2.0758,1.8975,1.6454,1.2862,0.7513,0.0794,-0.112,-0.2306,-0.3021,-0.2767,-0.2721,-0.306,-0.2966,-0.2532,-0.2198,-0.221,-0.1777,-0.0833,-0.0833,-0.1059,-0.1006,-0.0783,-0.1006,-0.1563,-0.1339,-0.117,-0.1228,-0.1172,-0.1117,-0.1456,-0.2453,-0.3834,-0.4988,-0.6133,-0.7114,-0.7439,-0.8606,-0.9402,-0.9873,-1.069,-1.1633,-1.2783,-1.3553,-1.4136,-1.4902,-1.56,-1.5789,-1.6278,-1.6648,-1.7144,-1.7605,-1.8033,-1.8369,-1.871,-1.8835,-1.8891,-1.879,-1.8579,-1.9081,-1.9652,-1.8664,-1.7918,-1.8005,-1.7915,-1.7499,-1.6866,-1.6651,-1.6456,-1.6525,-1.6693,-1.6841,2.4303,2.4284,2.421,2.4135,2.405,2.406,2.4022,2.399,2.4048,2.4096,2.4087,2.4105,2.4088,2.4127,2.4257,2.4301,2.4301,2.4363,2.4391,2.4364,2.438,2.4165,2.3817,2.3681,2.3669,2.3684,2.3632,2.3575,2.3548,2.3485,2.3493,2.3599,2.3798,2.3914,2.3952,2.4197,2.4342,2.4323,2.4341,2.4367,2.4454,2.4309,2.4004,2.3381,2.2638,2.1438,1.9252,1.6038,1.1219,0.597,0.3381,0.2033,0.1115,0.1122,0.0968,0.0326,0.0164,0.0329,0.0549,0.0496,0.0774,0.1386,0.1445,0.1501,0.1442,0.1552,0.1549,0.0719,0.0996,0.1164,0.0998,0.0943,0.0834,0.0612,-0.0555,-0.1941,-0.3664,-0.4539,-0.5523,-0.6448,-0.7635,-0.8646,-0.881,-1.0052,-1.1162,-1.2146,-1.3034,-1.3772,-1.4614,-1.5276,-1.583,-1.6185,-1.6877,-1.7415,-1.7939,-1.8382,-1.8672,-1.9003,-1.8974,-1.9138,-1.9031,-1.8716,-1.8574,-1.8785,-1.8347,-1.8114,-1.8215,-1.8149,-1.7657,-1.7151,-1.6926,-1.6819,-1.6857,-1.7052,-1.7175,2.4374,2.4374,2.4374,2.432,2.4238,2.4324,2.4377,2.4329,2.4461,2.453,2.453,2.4523,2.4561,2.4723,2.4623,2.4672,2.4762,2.4687,2.4702,2.4687,2.4663,2.4528,2.4468,2.4292,2.422,2.4174,2.4192,2.4201,2.4172,2.4062,2.4137,2.4275,2.4335,2.4476,2.4599,2.4775,2.4888,2.4914,2.4869,2.492,2.4979,2.4811,2.4655,2.462,2.4194,2.315,2.1386,1.9234,1.6187,1.1777,0.8773,0.6984,0.5853,0.5579,0.5069,0.4287,0.4106,0.3827,0.3582,0.4012,0.3884,0.3946,0.4366,0.4321,0.379,0.4047,0.3986,0.2637,0.396,0.4112,0.3833,0.3846,0.3517,0.3185,0.2532,0.0715,-0.1432,-0.2376,-0.3263,-0.5138,-0.5901,-0.6551,-0.757,-0.8773,-1.0171,-1.1048,-1.2039,-1.3022,-1.3961,-1.4827,-1.5343,-1.5691,-1.6559,-1.7577,-1.8138,-1.8682,-1.8977,-1.9209,-1.903,-1.9052,-1.9077,-1.8671,-1.7873,-1.7507,-1.7716,-1.7941,-1.8169,-1.7952,-1.7666,-1.745,-1.7225,-1.7131,-1.7109,-1.7422,-1.7639,2.4926,2.4939,2.4936,2.4881,2.4816,2.4834,2.4826,2.4804,2.4804,2.4832,2.4795,2.4809,2.4818,2.4861,2.4847,2.4818,2.4836,2.4818,2.4851,2.4914,2.4868,2.4965,2.4968,2.4747,2.462,2.4672,2.4669,2.47,2.4752,2.4728,2.4762,2.4756,2.4841,2.4979,2.5059,2.5166,2.5283,2.5305,2.5306,2.5333,2.5379,2.5311,2.5244,2.5271,2.4858,2.4436,2.3747,2.2209,2.0708,1.8803,1.5618,1.2746,1.1591,1.0958,1.0305,0.9542,0.8703,0.833,0.8407,0.7739,0.7275,0.7249,0.6929,0.614,0.5352,0.6015,0.5613,0.4744,0.5599,0.661,0.6333,0.5141,0.5253,0.5639,0.5531,0.5068,0.3861,0.097,-0.1041,-0.1864,-0.2785,-0.3872,-0.5296,-0.6086,-0.7596,-0.95,-1.0893,-1.2001,-1.3113,-1.4177,-1.4899,-1.5327,-1.6895,-1.7991,-1.8503,-1.8965,-1.9184,-1.9296,-1.91,-1.9016,-1.9034,-1.8743,-1.796,-1.759,-1.7455,-1.776,-1.82,-1.8166,-1.7963,-1.774,-1.7617,-1.7586,-1.7648,-1.7902,-1.8012,2.5084,2.5084,2.5084,2.5084,2.5063,2.5063,2.5039,2.5041,2.5133,2.5089,2.4949,2.4913,2.4939,2.5,2.5009,2.5,2.5058,2.507,2.5128,2.5175,2.5141,2.52,2.5244,2.5071,2.4972,2.4996,2.4946,2.5008,2.5096,2.5075,2.5025,2.5148,2.5177,2.5197,2.5314,2.5418,2.5453,2.5488,2.5513,2.5541,2.5541,2.5572,2.5574,2.5494,2.5177,2.4975,2.4911,2.3873,2.3303,2.2568,2.0616,1.8054,1.619,1.5331,1.4717,1.384,1.2705,1.2044,1.183,1.1349,1.0767,1.0725,1.0413,1.0102,0.968,0.9864,0.9574,0.9069,0.949,0.9901,0.9501,0.8994,0.8727,0.8702,0.8726,0.8627,0.8214,0.5143,0.2365,0.1822,0.0641,-0.0482,-0.1662,-0.279,-0.4943,-0.6794,-0.8503,-0.9736,-1.175,-1.2892,-1.4426,-1.5458,-1.7277,-1.8467,-1.8926,-1.9252,-1.9368,-1.9333,-1.9146,-1.9087,-1.9084,-1.865,-1.812,-1.7962,-1.7873,-1.8024,-1.8372,-1.8317,-1.8384,-1.8369,-1.8287,-1.8197,-1.8222,-1.8436,-1.8421,2.5163,2.5172,2.5152,2.5171,2.5152,2.5161,2.5131,2.5138,2.5367,2.531,2.5099,2.5018,2.5102,2.5154,2.5176,2.5226,2.5312,2.5369,2.5375,2.5387,2.5377,2.5378,2.5366,2.5316,2.526,2.5167,2.5133,2.5204,2.5245,2.5186,2.5263,2.5427,2.5362,2.5355,2.5477,2.5517,2.5556,2.5603,2.561,2.5609,2.5605,2.5642,2.5634,2.5553,2.5379,2.5303,2.5305,2.4774,2.4492,2.4708,2.4241,2.2318,2.0188,1.8722,1.8241,1.7223,1.6211,1.5514,1.5183,1.4736,1.4373,1.4142,1.4155,1.4149,1.3922,1.3626,1.3329,1.3249,1.3174,1.3301,1.3227,1.3011,1.2909,1.2848,1.2349,1.2417,1.2187,0.9939,0.831,0.6378,0.5476,0.4526,0.2511,0.0849,-0.1665,-0.4067,-0.5789,-0.7599,-0.9578,-1.1412,-1.2772,-1.4513,-1.6137,-1.7669,-1.8274,-1.8508,-1.8743,-1.8742,-1.8666,-1.8929,-1.8938,-1.8721,-1.8376,-1.8467,-1.8469,-1.8573,-1.8646,-1.8744,-1.8822,-1.894,-1.8913,-1.8743,-1.881,-1.897,-1.8868,2.543,2.5439,2.5435,2.5429,2.5439,2.5432,2.5422,2.5433,2.5464,2.5436,2.5359,2.5371,2.5379,2.5412,2.5434,2.5447,2.547,2.5479,2.5493,2.5482,2.5489,2.5482,2.5517,2.5508,2.5508,2.548,2.5376,2.5361,2.5439,2.545,2.546,2.5556,2.5537,2.5551,2.5557,2.5574,2.5606,2.5666,2.5673,2.5676,2.5673,2.5652,2.5627,2.56,2.5473,2.5482,2.5485,2.5223,2.5005,2.5009,2.4787,2.4232,2.3206,2.2067,2.1334,2.0759,1.9862,1.8925,1.8473,1.8289,1.7692,1.6977,1.6603,1.6068,1.5694,1.5725,1.5776,1.5217,1.5427,1.5834,1.6464,1.6477,1.6604,1.6643,1.6754,1.6831,1.6474,1.5286,1.3193,1.0418,0.9966,0.9053,0.6047,0.3515,0.1342,-0.1124,-0.3159,-0.5037,-0.703,-0.892,-1.059,-1.2523,-1.4571,-1.6083,-1.7383,-1.7507,-1.7667,-1.7645,-1.7773,-1.8442,-1.8529,-1.8681,-1.8651,-1.84,-1.8596,-1.8853,-1.896,-1.9108,-1.9189,-1.9241,-1.9253,-1.9247,-1.9275,-1.9313,-1.9324,2.5509,2.5549,2.5556,2.5564,2.5547,2.5511,2.5525,2.5535,2.5553,2.5537,2.5527,2.5539,2.5535,2.5535,2.5512,2.5527,2.5552,2.5547,2.5566,2.5595,2.5571,2.5566,2.5599,2.5605,2.5603,2.558,2.5503,2.5482,2.5542,2.5547,2.5593,2.5636,2.5652,2.5641,2.5644,2.5642,2.5654,2.5694,2.5692,2.5693,2.5692,2.5643,2.5609,2.5615,2.559,2.5574,2.555,2.5474,2.5344,2.5304,2.5213,2.512,2.4779,2.4281,2.3497,2.3079,2.2343,2.1713,2.1184,2.0874,2.0185,1.9656,1.9271,1.8969,1.86,1.8622,1.8345,1.8099,1.8137,1.8789,1.9121,1.911,1.9213,1.9216,1.9292,1.8602,1.7641,1.7069,1.4969,1.2545,1.1523,0.9842,0.7633,0.5479,0.3983,0.1909,-0.0459,-0.2588,-0.4664,-0.6694,-0.871,-1.1179,-1.3307,-1.4734,-1.6007,-1.6309,-1.6309,-1.6305,-1.6599,-1.7283,-1.7575,-1.7463,-1.7729,-1.7852,-1.8242,-1.845,-1.9238,-1.9375,-1.9462,-1.9503,-1.9561,-1.958,-1.9608,-1.9629,-1.9569,2.5541,2.5599,2.5609,2.5609,2.559,2.5542,2.5554,2.5597,2.5621,2.5607,2.5609,2.5605,2.5621,2.5611,2.5576,2.5574,2.5619,2.5619,2.5648,2.5676,2.5652,2.5626,2.5617,2.5619,2.5632,2.5636,2.5611,2.5615,2.5612,2.5613,2.5647,2.5681,2.5691,2.5694,2.569,2.5681,2.5697,2.57,2.5683,2.5677,2.5681,2.5649,2.5643,2.5696,2.5638,2.5623,2.5622,2.5573,2.5544,2.5522,2.5493,2.5457,2.5359,2.5196,2.4862,2.4336,2.3675,2.328,2.2897,2.2503,2.1953,2.1504,2.1641,2.152,2.1354,2.1026,2.1182,2.1335,2.1346,2.0783,2.0128,2.0365,1.9816,1.8915,1.8522,1.8265,1.6408,1.5188,1.4146,1.2617,1.2084,1.0421,0.7994,0.7467,0.5971,0.337,0.0998,-0.0986,-0.3062,-0.5168,-0.7368,-1.004,-1.2119,-1.3504,-1.45,-1.497,-1.4888,-1.4706,-1.5088,-1.5648,-1.5851,-1.5917,-1.6241,-1.6484,-1.696,-1.7283,-1.8431,-1.933,-1.9148,-1.9181,-1.9645,-1.9744,-1.9467,-1.9483,-1.9547,2.5591,2.5603,2.5608,2.5608,2.561,2.5587,2.5593,2.5609,2.5655,2.5642,2.5625,2.5652,2.5685,2.5678,2.5673,2.5677,2.5681,2.5662,2.5663,2.5683,2.5675,2.5655,2.5664,2.5681,2.5673,2.5681,2.5674,2.5683,2.568,2.5668,2.5681,2.5693,2.5693,2.5693,2.5683,2.5692,2.5701,2.5692,2.5637,2.5634,2.569,2.5697,2.5701,2.5693,2.5683,2.5674,2.567,2.563,2.5592,2.5593,2.559,2.5587,2.556,2.5498,2.5369,2.5062,2.4638,2.4163,2.3801,2.3488,2.3168,2.2845,2.2755,2.272,2.2554,2.2545,2.2552,2.2434,2.2476,2.1493,1.9794,1.9229,1.7819,1.6502,1.5735,1.4931,1.3616,1.2997,1.1983,1.0145,0.8776,0.9017,0.8037,0.8143,0.7837,0.5073,0.2487,0.0379,-0.1658,-0.3937,-0.5886,-0.8481,-1.0304,-1.1682,-1.2357,-1.2926,-1.2988,-1.2847,-1.3393,-1.3819,-1.3738,-1.3823,-1.4364,-1.4661,-1.5177,-1.5821,-1.6741,-1.7522,-1.8186,-1.8649,-1.8871,-1.9004,-1.9057,-1.919,-1.9343,2.5654,2.5661,2.567,2.5643,2.5664,2.5653,2.5653,2.5653,2.5689,2.568,2.5672,2.5674,2.5681,2.5649,2.568,2.5669,2.5642,2.565,2.565,2.5645,2.5643,2.5634,2.5639,2.5671,2.5691,2.5696,2.5697,2.5691,2.5698,2.5691,2.5701,2.57,2.569,2.568,2.5654,2.5691,2.5678,2.5652,2.5609,2.5609,2.5649,2.5679,2.5693,2.5699,2.5699,2.5694,2.5691,2.5681,2.5654,2.5653,2.5661,2.565,2.5633,2.5587,2.5517,2.546,2.5149,2.4809,2.4535,2.432,2.3998,2.3779,2.3633,2.3482,2.3388,2.3313,2.3381,2.3426,2.1737,2.0206,1.8635,1.7358,1.5853,1.4419,1.3188,1.1785,1.0914,1.0466,0.9475,0.7437,0.5766,0.6168,0.6316,0.5787,0.5365,0.397,0.1964,0.0458,-0.1363,-0.3257,-0.5056,-0.6837,-0.8355,-0.9601,-1.0054,-1.0493,-1.0473,-1.0518,-1.1256,-1.1525,-1.1359,-1.1538,-1.2085,-1.2541,-1.2869,-1.3728,-1.4831,-1.6065,-1.7071,-1.7573,-1.7991,-1.7991,-1.8041,-1.8577,-1.8721,2.5699,2.5701,2.5692,2.5698,2.5697,2.5697,2.568,2.5693,2.565,2.5662,2.5678,2.5654,2.5613,2.5605,2.5636,2.5639,2.558,2.5596,2.559,2.5584,2.56,2.5603,2.5611,2.5639,2.5673,2.5693,2.5655,2.5649,2.5639,2.5639,2.5642,2.568,2.5632,2.5618,2.5606,2.5616,2.5625,2.5571,2.5578,2.5586,2.5622,2.5638,2.5662,2.568,2.5697,2.57,2.5701,2.5693,2.5695,2.5699,2.57,2.5682,2.5674,2.5639,2.5609,2.5557,2.5362,2.5236,2.5025,2.4826,2.4657,2.4485,2.4161,2.3733,2.252,2.293,2.2074,2.0829,1.93,1.781,1.6629,1.4396,1.2759,1.173,1.1115,0.946,0.8056,0.7675,0.7011,0.5382,0.3934,0.3242,0.3211,0.2642,0.2265,0.2002,0.118,0.0246,-0.1357,-0.3162,-0.4438,-0.6061,-0.6907,-0.7921,-0.8117,-0.8286,-0.8168,-0.8456,-0.9191,-0.9467,-0.9412,-0.9494,-0.99,-1.0261,-1.0782,-1.1303,-1.2239,-1.4155,-1.5932,-1.6072,-1.6237,-1.6694,-1.7017,-1.7578,-1.7899,2.5703,2.5696,2.5695,2.5687,2.5695,2.5639,2.5641,2.5679,2.5576,2.5554,2.5601,2.5537,2.5518,2.5532,2.5566,2.5575,2.5498,2.5561,2.5542,2.554,2.5578,2.5583,2.5582,2.5582,2.5582,2.56,2.5576,2.5556,2.5532,2.5517,2.5552,2.5599,2.5556,2.5527,2.5517,2.5529,2.5534,2.5509,2.5515,2.5552,2.5575,2.5593,2.5619,2.5619,2.5658,2.5694,2.5698,2.5694,2.5697,2.5701,2.5697,2.5699,2.5688,2.5683,2.5658,2.5603,2.5532,2.5425,2.5311,2.5163,2.4968,2.4846,2.423,2.2973,2.106,2.0147,1.8567,1.6309,1.5502,1.3846,1.2258,1.0412,0.9255,0.8423,0.7893,0.6883,0.562,0.4966,0.4211,0.301,0.2402,0.2124,0.1678,0.1452,0.1332,0.1136,0.082,-0.0098,-0.1807,-0.3456,-0.4204,-0.5272,-0.5876,-0.6386,-0.6419,-0.6635,-0.7183,-0.7439,-0.7851,-0.7885,-0.7758,-0.7892,-0.8339,-0.8709,-0.9301,-0.9476,-0.9848,-1.1722,-1.3246,-1.3956,-1.4509,-1.5077,-1.5787,-1.6398,-1.6609,2.5547,2.5521,2.5517,2.5565,2.5636,2.5609,2.5598,2.5585,2.5537,2.5519,2.5537,2.551,2.5473,2.547,2.5505,2.5499,2.5439,2.5461,2.5461,2.5481,2.5503,2.5534,2.5534,2.549,2.5464,2.5467,2.546,2.5439,2.5389,2.5393,2.5389,2.5412,2.5444,2.547,2.5461,2.5443,2.5448,2.5445,2.5444,2.5476,2.5531,2.5535,2.5566,2.56,2.561,2.5639,2.5646,2.5642,2.5671,2.5694,2.5697,2.5696,2.5697,2.5702,2.5682,2.5648,2.5586,2.5547,2.5506,2.5374,2.5244,2.4627,2.3227,2.1078,1.9057,1.7815,1.6274,1.4349,1.2321,1.0509,1.0169,0.8142,0.6294,0.5286,0.4627,0.4182,0.3738,0.3352,0.2905,0.2403,0.2014,0.1735,0.1232,0.0673,0.0557,0.0439,0.0052,-0.0587,-0.2268,-0.3504,-0.421,-0.4694,-0.5255,-0.5682,-0.576,-0.6098,-0.6437,-0.6482,-0.6525,-0.6567,-0.6564,-0.6972,-0.7342,-0.7641,-0.7968,-0.8399,-0.8926,-0.9669,-1.075,-1.2078,-1.2962,-1.3636,-1.4377,-1.5131,-1.53,2.5441,2.5396,2.5391,2.5447,2.5527,2.5532,2.5506,2.5466,2.542,2.5422,2.5439,2.5435,2.542,2.5394,2.5437,2.5418,2.5386,2.5405,2.5404,2.5422,2.5448,2.5456,2.5411,2.5357,2.5311,2.5289,2.529,2.5264,2.5178,2.5244,2.5234,2.5245,2.533,2.5367,2.5358,2.5341,2.5361,2.5369,2.5376,2.541,2.5463,2.5505,2.5515,2.5573,2.5585,2.5603,2.562,2.562,2.5634,2.5664,2.5671,2.5694,2.5701,2.5694,2.5693,2.5681,2.5656,2.5616,2.5576,2.5489,2.4852,2.322,2.1651,1.9183,1.6651,1.4295,1.2451,1.0598,0.888,0.8006,0.8009,0.6067,0.5093,0.4522,0.4247,0.3802,0.3355,0.2967,0.2462,0.2014,0.168,0.1345,0.0896,0.0336,-0.0276,-0.0381,-0.0572,-0.123,-0.2533,-0.3576,-0.4043,-0.4395,-0.4655,-0.5043,-0.5341,-0.5305,-0.5224,-0.5082,-0.5214,-0.5518,-0.5696,-0.6099,-0.6404,-0.6722,-0.7053,-0.744,-0.7953,-0.8476,-0.9479,-1.062,-1.1439,-1.2218,-1.272,-1.3409,-1.3907,2.5406,2.5395,2.5391,2.5403,2.5391,2.535,2.5348,2.5379,2.5283,2.5264,2.5302,2.5303,2.5293,2.5303,2.5369,2.536,2.5322,2.5369,2.5378,2.536,2.5341,2.5322,2.5244,2.5183,2.5123,2.5051,2.5071,2.5046,2.4943,2.5082,2.5065,2.505,2.5155,2.5251,2.5202,2.5222,2.5253,2.5293,2.5293,2.5341,2.5395,2.5455,2.5478,2.551,2.5538,2.5564,2.5576,2.5575,2.5591,2.5629,2.566,2.5675,2.5678,2.5695,2.568,2.5644,2.5677,2.5654,2.5599,2.5437,2.3381,2.043,1.843,1.6113,1.1487,0.9208,0.8574,0.7118,0.5468,0.5002,0.4664,0.4476,0.4345,0.4081,0.386,0.3638,0.319,0.2858,0.2464,0.2295,0.1569,0.0897,0.0561,0.0056,-0.088,-0.1236,-0.1292,-0.1929,-0.2879,-0.3389,-0.3753,-0.4031,-0.4208,-0.4512,-0.469,-0.4212,-0.3948,-0.3851,-0.419,-0.4838,-0.5053,-0.5313,-0.5572,-0.5827,-0.6212,-0.6634,-0.694,-0.7238,-0.8164,-0.9042,-1.0055,-1.0817,-1.1244,-1.1819,-1.2454,2.5234,2.5208,2.519,2.5202,2.5214,2.5274,2.5301,2.5264,2.5224,2.5222,2.5232,2.5222,2.5233,2.5243,2.5263,2.5283,2.5292,2.5253,2.5263,2.5204,2.5184,2.5149,2.508,2.4978,2.4911,2.4885,2.4891,2.4855,2.4771,2.4911,2.4957,2.4949,2.5034,2.5137,2.5187,2.521,2.5232,2.5232,2.5233,2.5264,2.5322,2.536,2.5405,2.544,2.5461,2.5493,2.5531,2.5534,2.5553,2.5585,2.563,2.5642,2.5648,2.5671,2.5687,2.567,2.5693,2.5665,2.4849,2.3582,2.0259,1.7108,1.4374,1.2409,0.9467,0.695,0.554,0.4856,0.4565,0.452,0.4346,0.4448,0.4298,0.3965,0.369,0.3579,0.3299,0.3026,0.2747,0.2745,0.2352,0.1401,0.0841,0.0168,-0.0718,-0.1189,-0.1201,-0.158,-0.2393,-0.2881,-0.3262,-0.3569,-0.381,-0.4071,-0.4122,-0.3914,-0.4017,-0.4153,-0.4431,-0.4925,-0.5009,-0.4746,-0.4918,-0.5262,-0.5567,-0.5827,-0.6084,-0.6337,-0.6677,-0.7401,-0.8436,-0.9323,-0.9837,-1.0517,-1.134,2.5299,2.5472,2.5216,2.5273,2.546,2.5316,2.5213,2.5158,2.5168,2.5189,2.5209,2.5209,2.521,2.5201,2.5212,2.5169,2.5189,2.5157,2.508,2.5018,2.499,2.4923,2.4832,2.4752,2.4659,2.4648,2.4645,2.4626,2.4603,2.4692,2.4778,2.4875,2.495,2.4985,2.5054,2.5094,2.5185,2.5185,2.5219,2.5221,2.5263,2.5303,2.5332,2.536,2.5387,2.543,2.5472,2.5493,2.5511,2.5548,2.5578,2.5595,2.5619,2.564,2.5675,2.5666,2.5683,2.442,2.1573,1.9865,1.5976,1.1247,0.9605,0.8852,0.7971,0.5886,0.514,0.4672,0.4789,0.4572,0.4356,0.4408,0.413,0.3744,0.352,0.3409,0.3242,0.2969,0.2691,0.28,0.2409,0.1626,0.0953,0.0279,-0.05,-0.0759,-0.1004,-0.1502,-0.1998,-0.2474,-0.2905,-0.3213,-0.3488,-0.3745,-0.3952,-0.4027,-0.4153,-0.4478,-0.454,-0.4581,-0.4484,-0.4176,-0.4439,-0.4705,-0.5067,-0.5333,-0.531,-0.5518,-0.5858,-0.6233,-0.6852,-0.7669,-0.8334,-0.9182,-1.0026,2.5577,2.6125,2.5412,2.5545,2.6059,2.5419,2.5126,2.5158,2.5129,2.5149,2.5176,2.5191,2.5184,2.518,2.518,2.5103,2.4987,2.4984,2.4883,2.4823,2.4761,2.4657,2.4563,2.4489,2.4431,2.4364,2.4374,2.4426,2.442,2.4538,2.4667,2.4742,2.4778,2.4822,2.487,2.4949,2.5054,2.5088,2.5127,2.5132,2.5177,2.5231,2.5252,2.5273,2.5332,2.5369,2.5415,2.5439,2.548,2.5519,2.5547,2.5564,2.5587,2.56,2.5603,2.5618,2.5654,2.2175,1.8269,1.6838,1.2743,0.8996,0.8375,0.7139,0.6039,0.5097,0.4876,0.4684,0.4737,0.4519,0.4301,0.4078,0.3801,0.3577,0.3354,0.3186,0.3074,0.2798,0.2577,0.2241,0.1738,0.1122,0.0673,0.0056,-0.0,-0.022,-0.0648,-0.1391,-0.1893,-0.2373,-0.2792,-0.3038,-0.3269,-0.345,-0.3608,-0.3689,-0.3637,-0.3773,-0.3656,-0.3638,-0.3543,-0.3584,-0.3731,-0.4064,-0.461,-0.487,-0.487,-0.4945,-0.5068,-0.5492,-0.6005,-0.6462,-0.7233,-0.7867,-0.8573,2.5511,2.6114,2.5369,2.5502,2.6052,2.5363,2.5364,2.5847,2.5381,2.5107,2.5122,2.5129,2.512,2.5113,2.4977,2.491,2.4823,2.4713,2.4592,2.4522,2.4482,2.4389,2.4348,2.4349,2.4275,2.4303,2.434,2.445,2.4377,2.4456,2.456,2.45,2.4828,2.4794,2.4776,2.4796,2.4874,2.4908,2.4944,2.5022,2.506,2.5084,2.5111,2.5168,2.5272,2.5302,2.5293,2.5369,2.5387,2.5387,2.5385,2.5408,2.5534,2.5502,2.5482,2.5596,2.5249,2.3655,1.9685,1.6733,1.2992,0.8535,0.7659,0.6177,0.5181,0.4903,0.4903,0.4739,0.4684,0.4575,0.4356,0.4081,0.3914,0.3747,0.3522,0.3409,0.3241,0.2851,0.2574,0.2128,0.1569,0.1289,0.0728,0.0616,0.0558,0.0332,-0.011,-0.0934,-0.1684,-0.2149,-0.2628,-0.2834,-0.2998,-0.3177,-0.3099,-0.3131,-0.3044,-0.2955,-0.2983,-0.2961,-0.3016,-0.304,-0.3057,-0.3326,-0.3842,-0.4206,-0.4474,-0.457,-0.4671,-0.5006,-0.5477,-0.5778,-0.6174,-0.6887,-0.7493,2.539,2.6052,2.5646,2.5901,2.6421,2.5716,2.5863,2.6375,2.5525,2.5212,2.553,2.5196,2.5063,2.5066,2.4875,2.4736,2.4659,2.4515,2.4364,2.4247,2.4192,2.4421,2.4435,2.456,2.4844,2.4844,2.5001,2.526,2.5017,2.5122,2.5263,2.5328,2.5319,2.5105,2.5048,2.5035,2.4855,2.4766,2.4734,2.4861,2.4903,2.4934,2.499,2.5063,2.5174,2.5176,2.5176,2.5261,2.5272,2.5241,2.5234,2.5255,2.5139,2.486,2.4412,2.4293,2.3533,2.0939,1.7191,1.5585,1.2413,0.9377,0.7101,0.6344,0.5645,0.5397,0.5014,0.4741,0.4796,0.4743,0.4468,0.4193,0.4082,0.4027,0.3858,0.3744,0.3407,0.296,0.257,0.2126,0.1792,0.1624,0.14,0.1289,0.1232,0.1059,0.0723,0.0111,-0.0884,-0.1741,-0.2257,-0.263,-0.2746,-0.2864,-0.2727,-0.2595,-0.2628,-0.2658,-0.2686,-0.2668,-0.2598,-0.2619,-0.2694,-0.2843,-0.3045,-0.3462,-0.3923,-0.42,-0.4407,-0.4735,-0.501,-0.5245,-0.5671,-0.6373,-0.6871,2.5412,2.633,2.6264,2.6679,2.7104,2.6355,2.651,2.7064,2.5848,2.5545,2.5962,2.5258,2.4903,2.4856,2.4664,2.4648,2.4527,2.4377,2.4418,2.4085,2.3987,2.4265,2.4799,2.5083,2.5092,2.5791,2.6013,2.5512,2.6087,2.6106,2.6072,2.6484,2.6341,2.5977,2.5533,2.5557,2.5392,2.5032,2.5018,2.5117,2.4849,2.4818,2.4874,2.4934,2.4993,2.5041,2.5098,2.5126,2.5158,2.5161,2.5028,2.4993,2.4431,2.4086,2.35,2.267,2.2058,1.8906,1.5893,1.4027,1.1072,0.8414,0.6522,0.6527,0.6261,0.5887,0.5559,0.5069,0.5014,0.5016,0.4798,0.4792,0.4736,0.468,0.4622,0.4291,0.3847,0.3236,0.246,0.2127,0.1959,0.1736,0.1736,0.1624,0.1511,0.1567,0.1454,0.0895,-0.0,-0.1109,-0.1548,-0.2097,-0.2262,-0.2261,-0.2098,-0.208,-0.2291,-0.2382,-0.2356,-0.2339,-0.2163,-0.2232,-0.2343,-0.2477,-0.2619,-0.2943,-0.3344,-0.3869,-0.4348,-0.4497,-0.4703,-0.4746,-0.5185,-0.5898,-0.6364,2.6491,2.7841,2.7851,2.7644,2.7231,2.699,2.7258,2.7793,2.6877,2.6219,2.5759,2.5068,2.4608,2.4661,2.4505,2.4596,2.484,2.4415,2.4634,2.4581,2.4355,2.4219,2.4802,2.4946,2.5095,2.5127,2.5249,2.5538,2.5805,2.6064,2.6345,2.639,2.6481,2.6363,2.6116,2.6145,2.5896,2.5461,2.5553,2.5301,2.4802,2.4569,2.4495,2.4657,2.4773,2.5164,2.5199,2.5035,2.5297,2.548,2.4692,2.4197,2.3648,2.3721,2.2966,2.1776,2.1008,1.7954,1.5238,1.3231,1.1169,0.8933,0.7481,0.7063,0.6799,0.6534,0.6154,0.5611,0.5342,0.5344,0.5344,0.5393,0.5389,0.5389,0.5277,0.4783,0.4233,0.3403,0.2461,0.2238,0.2071,0.2015,0.2014,0.1958,0.1847,0.179,0.1734,0.1343,0.0504,-0.0391,-0.0446,-0.089,-0.1451,-0.1509,-0.1458,-0.1568,-0.1831,-0.183,-0.176,-0.1751,-0.1743,-0.178,-0.1868,-0.2064,-0.2303,-0.2639,-0.3213,-0.4129,-0.4457,-0.4508,-0.4543,-0.4671,-0.4863,-0.5433,-0.5841,2.6913,2.7744,2.7755,2.7726,2.7679,2.7624,2.7783,2.7919,2.7446,2.696,2.6451,2.5762,2.5318,2.5185,2.5047,2.5005,2.5346,2.4586,2.4707,2.4805,2.4517,2.4297,2.4467,2.4798,2.5091,2.5159,2.5634,2.5911,2.5718,2.6637,2.7182,2.7051,2.7027,2.6898,2.6715,2.6564,2.6336,2.597,2.6078,2.5669,2.504,2.5067,2.5192,2.53,2.5374,2.5615,2.5653,2.5504,2.5501,2.5298,2.4474,2.3428,2.2702,2.2019,2.1315,2.0241,1.9092,1.7549,1.4876,1.3152,1.194,0.9719,0.8898,0.8688,0.8122,0.7859,0.7227,0.674,0.6258,0.6209,0.6102,0.6152,0.583,0.5668,0.5449,0.5064,0.4401,0.3627,0.3074,0.291,0.2741,0.2629,0.2573,0.2573,0.2516,0.2516,0.2405,0.207,0.1175,0.0448,0.0448,0.0168,-0.0448,-0.1122,-0.1403,-0.1402,-0.1456,-0.1345,-0.1234,-0.1394,-0.1494,-0.1337,-0.1344,-0.1509,-0.1842,-0.2395,-0.3062,-0.3737,-0.4353,-0.4462,-0.4523,-0.4648,-0.4791,-0.4844,-0.5144,2.7055,2.7046,2.7156,2.7574,2.8217,2.8202,2.8098,2.7972,2.7794,2.7631,2.7399,2.6849,2.6675,2.6375,2.6209,2.6168,2.5777,2.479,2.4739,2.4846,2.3978,2.4233,2.4526,2.4762,2.4919,2.5454,2.6074,2.6083,2.5967,2.6908,2.754,2.7941,2.7879,2.762,2.7148,2.6899,2.665,2.6083,2.5879,2.5817,2.5861,2.6018,2.5881,2.5959,2.6073,2.6164,2.6172,2.5957,2.5642,2.5092,2.4198,2.3136,2.2107,2.1186,1.9953,1.9043,1.7845,1.5836,1.3672,1.3114,1.1619,1.0335,1.0438,1.0108,0.9496,0.902,0.8386,0.7862,0.7439,0.7017,0.6966,0.6748,0.6428,0.5998,0.5723,0.5289,0.4625,0.3907,0.3633,0.3413,0.3301,0.3187,0.3187,0.3187,0.3131,0.3132,0.302,0.2686,0.2238,0.1567,0.1231,0.0895,0.0336,-0.0336,-0.0785,-0.0953,-0.0785,-0.1009,-0.0953,-0.1122,-0.1178,-0.0897,-0.0785,-0.0841,-0.1233,-0.1623,-0.2182,-0.2792,-0.3465,-0.3968,-0.3964,-0.3846,-0.4018,-0.4125,-0.4289,2.7622,2.7455,2.8086,2.8341,2.8342,2.8499,2.8382,2.8076,2.8228,2.8084,2.768,2.7464,2.6961,2.5811,2.5631,2.5711,2.593,2.4979,2.5429,2.5905,2.401,2.4258,2.4532,2.4276,2.4434,2.4945,2.5516,2.5745,2.548,2.6273,2.692,2.6957,2.692,2.684,2.6829,2.67,2.6627,2.6011,2.5687,2.5652,2.5657,2.5617,2.5295,2.5162,2.4925,2.5224,2.5302,2.4854,2.4885,2.4599,2.3889,2.2797,2.1858,2.0919,1.9877,1.8592,1.733,1.5858,1.4451,1.3547,1.2138,1.1639,1.1493,1.0824,1.0399,1.0214,0.964,0.9131,0.8659,0.8043,0.7833,0.761,0.7286,0.6745,0.6418,0.5611,0.4903,0.4351,0.3912,0.3856,0.3744,0.3744,0.3744,0.3688,0.3577,0.3579,0.358,0.3245,0.274,0.2349,0.2069,0.1678,0.1286,0.1287,0.1175,0.0224,0.0112,-0.028,-0.0561,-0.0617,-0.0561,-0.0393,-0.028,0.0112,-0.0112,-0.0447,-0.1117,-0.1564,-0.2121,-0.2511,-0.2734,-0.2901,-0.3126,-0.3352,-0.3515]}]]